[[{"header":{"parameterUnit":"m.s-1","parameterCategory":1,"la1":30.6,"la2":29.2853,"lo1":-89.7004,"lo2":-87.6739,"dy":0.0162,"dx":0.0183,"nx":112,"ny":82,"refTime":"2023-04-20T06:00:00:Z","depth":0,"parameterNumber":2,"parameterNumberName":"U-component_of_WINDS"},"data":[0.0,0.0,0.0,0.0,0.0,0.0,0.0,0.0,0.0,0.0,0.0,0.0,0.0,0.0,0.0,0.0,0.0,0.0,0.0,0.0,0.0,0.0,0.0,0.0,0.0,0.0,0.0,0.0,0.0,0.0,0.0,0.0,0.0,0.0,0.0,0.0,0.0,0.0,0.0,0.0,0.0,0.0,0.0,0.0,0.0,0.0,0.0,0.0,0.0,0.0,0.0,0.0,0.0,0.0,0.0,0.0,0.0,0.0,0.0,0.0,0.0,0.0,0.0,0.0,0.0,0.0,0.0,0.0,0.0,0.0,0.0,0.0,0.0,0.0,0.0,0.0,0.0,0.0,0.0,0.0,0.0,0.0,0.0,0.0,0.0,0.0,0.0,0.0,0.0,0.0,2.6442,2.4543,2.3727,2.3114,2.2796,2.37,2.5512,2.846,0.0,0.0,0.0,0.0,0.0,0.0,0.0,0.0,0.0,0.0,0.0,0.0,0.0,0.0,0.0,0.0,0.0,0.0,0.0,0.0,0.0,0.0,0.0,0.0,0.0,0.0,0.0,0.0,0.0,0.0,0.0,0.0,0.0,0.0,0.0,0.0,0.0,0.0,0.0,0.0,0.0,0.0,0.0,0.0,0.0,0.0,0.0,0.0,0.0,0.0,0.0,0.0,0.0,0.0,0.0,0.0,0.0,0.0,0.0,0.0,0.0,0.0,0.0,0.0,0.0,0.0,0.0,0.0,0.0,0.0,0.0,0.0,0.0,0.0,0.0,0.0,0.0,0.0,0.0,0.0,0.0,0.0,0.0,0.0,0.0,0.0,0.0,0.0,0.0,0.0,0.0,0.0,0.0,0.0,0.0,0.0,0.0,0.0,0.0,0.0,0.0,0.0,0.0,0.0,2.5408,2.2592,2.2243,2.1419,1.9656,2.0466,2.2317,2.5394,0.0,0.0,0.0,0.0,0.0,0.0,0.0,0.0,0.0,0.0,0.0,0.0,0.0,0.0,0.0,0.0,0.0,0.0,0.0,0.0,0.0,0.0,0.0,0.0,0.0,0.0,0.0,0.0,0.0,0.0,0.0,0.0,0.0,0.0,0.0,0.0,0.0,0.0,0.0,0.0,0.0,0.0,0.0,0.0,0.0,0.0,0.0,0.0,0.0,0.0,0.0,0.0,0.0,0.0,0.0,0.0,0.0,0.0,0.0,0.0,0.0,0.0,0.0,0.0,0.0,0.0,0.0,0.0,0.0,0.0,0.0,0.0,0.0,0.0,0.0,0.0,0.0,0.0,0.0,0.0,0.0,0.0,0.0,0.0,0.0,0.0,0.0,0.0,0.0,0.0,0.0,0.0,0.0,0.0,0.0,0.0,0.0,0.0,0.0,0.0,0.0,0.0,0.0,2.4472,2.2391,2.0487,1.9247,1.8109,1.7185,1.7389,1.8877,2.204,2.6462,0.0,0.0,0.0,0.0,0.0,0.0,0.0,0.0,0.0,0.0,0.0,0.0,0.0,0.0,0.0,0.0,0.0,0.0,0.0,0.0,0.0,0.0,0.0,0.0,0.0,0.0,0.0,0.0,0.0,0.0,0.0,0.0,0.0,0.0,0.0,0.0,0.0,0.0,0.0,0.0,0.0,0.0,0.0,0.0,0.0,0.0,0.0,0.0,0.0,0.0,0.0,0.0,0.0,0.0,0.0,0.0,0.0,0.0,0.0,0.0,0.0,0.0,0.0,0.0,0.0,0.0,0.0,0.0,0.0,0.0,0.0,0.0,0.0,0.0,0.0,0.0,0.0,0.0,0.0,0.0,0.0,0.0,0.0,0.0,0.0,0.0,0.0,0.0,0.0,0.0,0.0,0.0,0.0,0.0,0.0,0.0,0.0,0.0,0.0,0.0,0.0,0.0,2.0698,1.8928,1.7946,1.6001,1.4655,1.4421,1.4241,1.5675,1.9105,2.2662,0.0,0.0,0.0,0.0,0.0,0.0,0.0,0.0,0.0,0.0,0.0,0.0,0.0,0.0,0.0,0.0,0.0,0.0,0.0,0.0,0.0,0.0,0.0,0.0,0.0,0.0,0.0,0.0,0.0,0.0,0.0,0.0,0.0,0.0,0.0,0.0,0.0,0.0,0.0,0.0,0.0,0.0,0.0,0.0,0.0,0.0,0.0,0.0,0.0,0.0,0.0,0.0,0.0,0.0,0.0,0.0,0.0,0.0,0.0,0.0,0.0,0.0,0.0,0.0,0.0,0.0,0.0,0.0,0.0,0.0,0.0,0.0,0.0,0.0,0.0,0.0,0.0,0.0,0.0,0.0,0.0,0.0,0.0,0.0,0.0,0.0,0.0,0.0,0.0,0.0,0.0,0.0,0.0,0.0,0.0,0.0,0.0,0.0,0.0,0.0,0.0,0.0,1.7906,1.5509,1.4476,1.318,1.2082,1.1026,1.094,1.2722,1.7053,1.8901,0.0,0.0,0.0,0.0,0.0,0.0,0.0,0.0,0.0,0.0,0.0,0.0,0.0,0.0,0.0,0.0,0.0,0.0,0.0,0.0,0.0,0.0,0.0,0.0,0.0,0.0,0.0,0.0,0.0,0.0,0.0,0.0,0.0,0.0,0.0,0.0,0.0,0.0,0.0,0.0,0.0,0.0,0.0,0.0,0.0,0.0,0.0,0.0,0.0,0.0,0.0,0.0,0.0,0.0,0.0,0.0,0.0,0.0,0.0,0.0,0.0,0.0,0.0,0.0,0.0,0.0,0.0,0.0,0.0,0.0,0.0,0.0,0.0,0.0,0.0,0.0,0.0,0.0,0.0,0.0,0.0,0.0,0.0,0.0,0.0,0.0,0.0,0.0,0.0,0.0,0.0,0.0,0.0,0.0,0.0,0.0,0.0,0.0,0.0,0.0,0.0,0.0,1.6025,1.3732,1.2012,1.0162,0.8549,0.7425,0.6643,0.7824,1.1584,0.0,0.0,0.0,0.0,0.0,0.0,0.0,0.0,0.0,0.0,0.0,0.0,0.0,0.0,0.0,0.0,0.0,0.0,0.0,0.0,0.0,0.0,0.0,0.0,0.0,0.0,0.0,0.0,0.0,0.0,0.0,0.0,0.0,0.0,0.0,0.0,0.0,0.0,0.0,0.0,0.0,0.0,0.0,0.0,0.0,0.0,0.0,0.0,0.0,0.0,0.0,0.0,0.0,0.0,0.0,0.0,0.0,0.0,0.0,0.0,0.0,0.0,0.0,0.0,0.0,0.0,0.0,0.0,0.0,0.0,0.0,0.0,0.0,0.0,0.0,0.0,0.0,0.0,0.0,0.0,0.0,0.0,0.0,0.0,0.0,0.0,0.0,0.0,0.0,0.0,0.0,0.0,0.0,0.0,0.0,0.0,0.0,0.0,0.0,0.0,0.0,0.0,1.5736,1.2908,1.0309,0.8451,0.6599,0.4956,0.3714,0.2928,0.3886,0.7332,0.0,0.0,0.0,0.0,0.0,0.0,0.0,0.0,0.0,0.0,0.0,0.0,0.0,0.0,0.0,0.0,0.0,0.0,0.0,0.0,0.0,0.0,0.0,0.0,0.0,0.0,0.0,0.0,0.0,0.0,0.0,0.0,0.0,0.0,0.0,0.0,0.0,0.0,0.0,0.0,0.0,0.0,0.0,0.0,0.0,0.0,0.0,0.0,0.0,0.0,0.0,0.0,0.0,0.0,0.0,0.0,0.0,0.0,0.0,0.0,0.0,0.0,0.0,0.0,0.0,0.0,0.0,0.0,0.0,0.0,0.0,0.0,0.0,0.0,0.0,0.0,0.0,0.0,0.0,0.0,0.0,0.0,0.0,0.0,0.0,0.0,0.0,0.0,0.0,0.0,0.0,0.0,0.0,0.0,0.0,0.0,0.0,0.0,0.0,0.0,0.0,0.0,1.2218,0.806,0.4775,0.3608,0.2389,0.1242,0.0088,0.0,0.1404,0.0,0.0,0.0,0.0,0.0,0.0,0.0,0.0,0.0,0.0,0.0,0.0,0.0,0.0,0.0,0.0,0.0,0.0,0.0,0.0,0.0,0.0,0.0,0.0,0.0,0.0,0.0,0.0,0.0,0.0,0.0,0.0,0.0,0.0,0.0,0.0,0.0,0.0,0.0,0.0,0.0,0.0,0.0,0.0,0.0,0.0,0.0,0.0,0.0,0.0,0.0,0.0,0.0,0.0,0.0,0.0,0.0,0.0,0.0,0.0,0.0,0.0,0.0,0.0,0.0,0.0,0.0,0.0,0.0,0.0,0.0,0.0,0.0,0.0,0.0,0.0,0.0,0.0,0.0,0.0,0.0,0.0,0.0,0.0,0.0,0.0,0.0,0.0,0.0,0.0,0.0,0.0,0.0,0.0,0.0,0.0,0.0,0.0,0.0,0.0,0.0,0.0,0.0,0.7505,0.3951,0.106,-0.0088,-0.0532,-0.1243,-0.2401,-0.2578,-0.1419,0.1324,0.0,0.0,0.0,0.0,0.0,0.0,0.0,0.0,0.0,0.0,0.0,0.0,0.0,0.0,0.0,0.0,0.0,0.0,0.0,0.0,0.0,0.0,0.0,0.0,0.0,0.0,0.0,0.0,0.0,0.0,0.0,0.0,0.0,0.0,0.0,0.0,0.0,0.0,0.0,0.0,0.0,0.0,0.0,0.0,0.0,0.0,0.0,0.0,0.0,0.0,0.0,0.0,0.0,0.0,0.0,0.0,0.0,0.0,0.0,0.0,0.0,0.0,0.0,0.0,0.0,0.0,0.0,0.0,0.0,0.0,0.0,0.0,0.0,0.0,0.0,0.0,0.0,0.0,0.0,0.0,0.0,0.0,0.0,0.0,0.0,0.0,0.0,0.0,0.0,0.0,0.0,0.0,0.0,0.0,0.0,0.0,0.0,0.0,0.0,0.0,0.0,0.0,0.3959,0.0795,-0.1864,-0.3114,-0.3203,-0.3739,-0.4905,-0.4994,-0.4186,-0.2314,0.0,0.0,0.0,0.0,0.0,0.0,0.0,0.0,0.0,0.0,0.0,0.0,0.0,0.0,0.0,0.0,0.0,0.0,0.0,0.0,0.0,0.0,0.0,0.0,0.0,0.0,0.0,0.0,0.0,0.0,0.0,0.0,0.0,0.0,0.0,0.0,0.0,0.0,0.0,0.0,0.0,0.0,0.0,0.0,0.0,0.0,0.0,0.0,0.0,0.0,0.0,0.0,0.0,0.0,0.0,0.0,0.0,0.0,0.0,0.0,0.0,0.0,0.0,0.0,0.0,0.0,0.0,0.0,0.0,0.0,0.0,0.0,0.0,0.0,0.0,0.0,0.0,0.0,0.0,0.0,0.0,0.0,0.0,0.0,0.0,0.0,0.0,0.0,0.0,0.0,0.0,0.0,0.0,0.0,0.0,0.0,0.0,0.0,0.0,0.0,0.0,0.0,0.1235,-0.1861,-0.455,-0.562,-0.5797,-0.6334,-0.7312,-0.7312,-0.6782,-0.5625,0.0,0.0,0.0,0.0,0.0,0.0,0.0,0.0,0.0,0.0,0.0,0.0,0.0,0.0,0.0,0.0,0.0,0.0,0.0,0.0,0.0,0.0,0.0,0.0,0.0,0.0,0.0,0.0,0.0,0.0,0.0,0.0,0.0,0.0,0.0,0.0,0.0,0.0,0.0,0.0,0.0,0.0,0.0,0.0,0.0,0.0,0.0,0.0,0.0,0.0,0.0,0.0,0.0,0.0,0.0,0.0,0.0,0.0,0.0,0.0,0.196,0.0,0.0,0.0,0.0,0.0,0.0,0.0,0.0,0.0,0.0,0.0,0.0,0.0,0.0,0.0,0.0,0.0,0.0,0.0,0.0,0.0,0.0,0.0,0.0,0.0,0.0,0.0,0.0,0.0,0.0,0.0,0.0,0.0,0.0,0.0,0.0,0.0,0.0,0.0,0.0,0.0,-0.2387,-0.5582,-0.7914,-0.8097,-0.8956,-0.9566,-0.9826,-0.9061,-0.8002,-0.6832,-0.5697,0.0,0.0,0.0,0.0,0.0,0.0,0.0,0.0,0.0,0.0,0.0,0.0,0.0,0.0,0.0,0.0,0.0,0.0,0.0,0.0,0.0,0.0,0.0,0.0,0.0,0.0,0.0,0.0,0.0,0.0,0.0,0.0,0.0,0.0,0.0,0.0,0.0,0.0,0.0,0.0,0.0,0.0,0.0,0.0,0.0,0.0,0.0,0.0,0.0,0.0,0.0,0.0,0.0,0.0,0.0,0.0,0.0,0.0,0.0,0.0,0.0178,0.0,0.0,0.0,0.0,0.0,0.0,0.0,0.0,0.0,0.0,0.0,0.0,0.0,0.0,0.0,0.0,0.0,0.0,0.0,0.0,0.0,0.0,0.0,0.0,0.0,0.0,0.0,0.0,0.0,0.0,0.0,0.0,0.0,0.0,0.0,0.0,0.0,0.0,0.0,0.0,-0.5225,-0.7876,-0.9749,-0.9749,-1.0269,-1.0605,-1.0605,-1.0096,-0.9479,-0.8844,-0.8241,0.0,0.0,0.0,0.0,0.0,0.0,0.0,0.0,0.0,0.0,0.0,0.0,0.0,0.0,0.0,0.0,0.0,0.0,0.0,0.0,0.0,0.0,0.0,0.0,0.0,0.0,0.0,0.0,0.0,0.0,0.0,0.0,0.0,0.0,0.0,0.0,0.0,0.0,0.0,0.0,0.0,0.0,0.0,0.0,0.0,0.0,0.0,0.0,0.0,0.0,0.0,0.0,0.0,-0.4105,-0.4194,-0.4194,-0.4194,-0.4194,-0.4194,-0.4194,-0.4016,-0.3479,-0.1425,0.0,0.0,0.0,0.0,0.0,0.0,0.0,0.0,0.0,0.0,0.0,0.0,0.0,0.0,0.0,0.0,0.0,0.0,0.0,0.0,0.0,0.0,0.0,0.0,-0.3462,-0.3449,0.0,0.0,0.0,0.0,0.0,0.0,0.0,0.0,0.0,0.0,0.0,0.0,-0.7701,-0.9548,-1.0864,-1.0864,-1.1037,-1.1219,-1.1219,-1.1047,-1.0864,-1.0864,-1.0692,-1.0183,0.0,0.0,0.0,0.0,0.0,0.0,0.0,0.0,0.0,0.0,0.0,0.0,0.0,0.0,0.0,0.0,0.0,0.0,0.0,0.0,0.0,0.0,0.0,0.0,0.0,0.0,0.0,0.0,0.0,0.0,0.0,0.0,-0.1162,-0.1342,0.0,0.0,0.0,0.0,0.0,0.0,0.0,0.0,0.0,0.0,0.0,0.0,0.0,-0.3571,-0.3571,-0.4643,-0.5181,-0.5181,-0.6157,-0.6605,-0.6605,-0.6605,-0.6605,-0.6605,-0.6605,0.0,-0.3568,-0.3301,0.0,0.0,0.0,0.0,0.0,0.0,0.0,0.0,0.0,0.0,0.0,0.0,0.0,0.0,0.0,0.0,0.0,0.0,0.0,0.0,0.0,0.0,-0.6593,-0.6416,-0.6505,-0.6505,0.0,-0.3639,-0.1866,-0.2939,-0.3905,0.0,0.0,0.0,0.0,0.0,0.0,0.0,-0.999,-1.1295,-1.2066,-1.2066,-1.3039,-1.3646,-1.3646,-1.2687,-1.2066,-1.2066,-1.1123,-1.0519,-1.0346,-0.9538,0.0,0.0,0.0,0.0,0.0,0.0,0.0,0.0,0.0,0.0,0.0,0.0,0.0,0.0,0.0,0.0,0.0,0.0,0.0,0.0,0.0,0.0,0.0,0.0,0.0,0.0,0.0,0.0,0.0,-0.1204,-0.2224,-0.2962,-0.3054,-0.3054,0.0,0.0,0.0,0.0,0.0,0.0,0.0,0.0,0.0,-0.5823,-0.5823,-0.5823,-0.5823,-0.6379,-0.6661,-0.6661,-0.7119,-0.74,-0.7394,-0.7305,-0.7272,-0.7265,-0.7177,-0.6511,-0.5531,-0.491,-0.4643,-0.4465,0.0,0.0,0.0,0.0,-0.2316,-0.2761,-0.2221,-0.2042,0.0,0.0,0.0,0.0,0.0,0.0,0.0,0.0,0.0,0.0,0.0,0.0,0.0,-0.7143,-0.7577,-0.8105,-0.8105,-0.7358,-0.6718,0.0,-0.7534,-0.8138,-0.7614,0.0,0.0,0.0,0.0,-1.093,-1.1466,-1.2601,-1.3294,-1.3294,-1.3815,-1.4082,-1.4082,-1.3646,-1.3294,-1.3294,-1.2857,-1.2248,-1.1552,-1.1016,-0.9875,0.0,0.0,0.0,0.0,0.0,0.0,0.0,0.0,0.0,0.0,0.0,0.0,0.0,0.0,0.0,0.0,0.0,0.0,0.0,0.0,0.0,0.0,0.0,0.0,0.0,0.0,0.0,0.0,-0.2284,-0.2946,-0.4269,-0.4462,-0.4462,0.0,0.0,0.0,0.0,0.0,0.0,-0.6261,-0.6261,-0.6643,-0.7597,-0.7597,-0.7597,-0.7597,-0.7597,-0.7597,-0.7597,-0.7597,-0.7597,-0.7597,-0.7482,-0.7428,-0.7421,-0.7305,-0.7258,-0.7161,-0.6186,-0.5802,-0.5714,-0.455,-0.4283,-0.4461,-0.4194,-0.4283,-0.4461,-0.4461,-0.4461,-0.4461,-0.4461,0.0,-0.4016,-0.3657,0.0,0.0,0.0,0.0,-0.4355,-0.5531,-0.6428,-0.7143,-0.7143,-0.7753,-0.8456,-0.8456,-0.9314,-1.0009,0.0,-1.0269,-1.095,-1.0616,0.0,0.0,0.0,0.0,-1.276,-1.276,-1.3561,-1.4082,-1.4082,-1.4082,-1.4082,-1.4082,-1.4082,-1.4082,-1.4082,-1.4082,-1.373,-1.2772,-1.276,-1.1798,-0.9693,0.0,0.0,0.0,0.0,0.0,0.0,0.0,0.0,0.0,0.0,0.0,0.0,0.0,0.0,0.0,0.0,0.0,0.0,0.0,0.0,0.0,0.0,0.0,0.0,0.0,0.0,0.0,0.0,0.0,-0.5596,-0.569,0.0,0.0,0.0,0.0,-0.569,-0.6738,-0.7409,-0.7503,-0.7503,-0.7503,-0.7597,-0.7597,-0.7597,-0.7597,-0.7597,-0.7597,-0.7597,-0.7597,-0.7597,-0.7597,-0.759,-0.759,-0.759,-0.7584,-0.7577,-0.7556,-0.7168,-0.7048,-0.6871,-0.5714,-0.598,-0.6782,-0.5714,-0.598,-0.6959,-0.6959,-0.6959,-0.6959,-0.6959,-0.6157,-0.5092,-0.3927,-0.3568,0.0,0.0,-0.527,-0.5536,-0.6694,-0.7054,-0.7143,-0.7143,-0.7143,-0.7231,-0.7231,-0.8105,-0.9323,0.0,-1.1466,-1.1895,-1.0778,0.0,-1.3561,-1.2419,-1.3209,-1.3997,-1.3997,-1.4082,-1.4082,-1.4082,-1.4082,-1.4082,-1.4082,-1.4082,-1.4082,-1.4082,-1.4082,-1.4082,-1.3997,-1.3997,-1.3379,-1.2151,-1.2066,0.0,0.0,0.0,0.0,0.0,0.0,0.0,0.0,0.0,0.0,0.0,0.0,0.0,0.0,0.0,0.0,0.0,0.0,0.0,0.0,0.0,0.0,0.0,0.0,0.0,0.0,0.0,0.0,-0.7088,-0.7186,0.0,-0.7186,-0.7186,-0.7186,-0.7186,-0.7583,-0.7882,-0.7882,-0.7882,-0.7882,-0.7882,-0.7882,-0.7882,-0.7882,-0.7882,-0.7882,-0.7882,-0.7882,-0.7882,-0.7882,-0.778,-0.7733,-0.7733,-0.7638,-0.7597,-0.759,-0.7482,-0.7434,-0.7336,-0.6872,-0.6924,-0.7188,-0.6726,-0.6782,-0.7143,-0.7143,-0.7143,-0.7143,-0.7143,-0.6782,-0.6428,-0.598,-0.5885,-0.5974,-0.634,-0.6517,-0.6605,-0.6959,-0.7143,-0.7143,-0.7143,-0.7665,-0.8448,-0.9226,-1.026,-1.1477,-1.2601,-1.2504,-1.2151,-1.1724,-1.3039,-1.3913,-1.3561,-1.3815,-1.4082,-1.4082,-1.4082,-1.4082,-1.4082,-1.4082,-1.4082,-1.4082,-1.4082,-1.4082,-1.4082,-1.3379,-1.2942,-1.2942,-1.2942,-1.276,-1.2322,-1.2322,-1.1884,0.0,0.0,0.0,0.0,0.0,0.0,0.0,0.0,0.0,0.0,0.0,0.0,0.0,0.0,0.0,0.0,0.0,0.0,0.0,0.0,0.0,0.0,0.0,0.0,0.0,-0.5727,-0.6531,-0.7839,-0.8038,-0.8038,-0.8038,-0.8038,-0.8038,-0.8038,-0.8038,-0.8038,-0.8038,-0.8038,-0.8038,-0.8038,-0.8038,-0.8038,-0.8038,-0.8038,-0.8038,-0.8038,-0.8038,-0.8038,-0.8038,-0.7936,-0.7889,-0.7882,-0.7787,-0.7746,-0.7746,-0.7746,-0.7746,-0.7726,-0.7529,-0.7448,-0.7434,-0.7333,-0.7299,-0.7292,-0.7238,-0.7183,-0.7143,-0.7143,-0.7143,-0.7143,-0.7143,-0.7143,-0.7143,-0.7143,-0.7143,-0.7143,-0.7143,-0.7401,-0.7665,-0.7665,-0.8623,-0.9662,-1.0443,-1.1209,-1.1992,-1.2772,-1.2942,-1.2942,-1.2942,-1.3561,-1.4082,-1.4082,-1.4082,-1.4082,-1.4082,-1.4082,-1.4082,-1.4082,-1.4082,-1.4082,-1.4082,-1.4082,-1.4082,-1.4082,-1.2942,-1.2322,-1.2322,-1.2322,-1.2322,-1.2322,-1.2674,-1.2504,-1.1724,0.0,0.0,0.0,0.0,0.0,0.0,0.0,0.0,0.0,0.0,0.0,0.0,0.0,0.0,0.0,0.0,0.0,0.0,0.0,0.0,0.0,0.0,0.0,-0.4117,-0.5222,-0.6531,-0.7839,-0.8038,-0.8038,-0.8038,-0.8038,-0.8038,-0.8038,-0.8038,-0.8038,-0.8038,-0.8038,-0.8038,-0.8038,-0.8038,-0.8038,-0.8038,-0.8038,-0.8038,-0.8038,-0.8038,-0.8038,-0.8038,-0.8038,-0.8038,-0.8038,-0.8038,-0.8038,-0.8038,-0.8038,-0.8038,-0.8011,-0.7719,-0.7604,-0.7604,-0.7604,-0.7597,-0.7577,-0.7428,-0.7278,-0.7156,-0.7149,-0.7149,-0.7149,-0.7143,-0.7143,-0.7143,-0.7143,-0.7143,-0.7143,-0.7143,-0.7929,-0.8894,-0.8886,-0.9749,-1.0605,-1.0605,-1.0605,-1.0692,-1.0692,-1.2516,-1.4082,-1.4082,-1.4082,-1.4082,-1.4082,-1.4082,0.0,-1.4082,-1.4082,-1.4082,-1.4082,-1.4082,-1.3997,-1.3997,-1.3997,-1.3997,-1.3997,-1.2857,-1.2237,-1.2237,-1.2237,-1.2237,-1.2322,-1.3379,-1.2869,-1.0605,0.0,0.0,0.0,0.0,0.0,0.0,0.0,0.0,0.0,0.0,0.0,0.0,0.0,0.0,0.0,0.0,0.0,0.0,0.0,0.0,0.0,-0.4218,-0.5827,-0.6731,-0.7235,-0.7633,-0.7939,-0.8038,-0.8038,-0.8038,-0.8038,-0.8038,-0.8038,-0.8038,-0.8038,-0.8038,-0.8038,-0.8038,-0.8038,-0.8038,-0.8038,-0.8038,-0.8038,-0.8038,-0.8038,-0.8038,-0.8038,-0.8038,-0.8038,-0.8038,-0.8038,-0.8038,-0.8038,-0.8038,-0.8038,-0.8038,-0.8018,-0.7828,-0.7753,-0.774,-0.7638,-0.7597,-0.7597,-0.755,-0.7509,-0.7455,-0.7346,-0.7305,-0.7285,-0.7177,-0.7143,-0.7143,-0.7143,-0.7143,-0.7143,-0.7143,-0.7312,-0.7841,-0.8719,-0.9148,-0.9836,-1.1466,-1.1809,-1.2077,-1.2954,-1.3646,-1.3815,-1.2942,-1.3561,-1.4082,-1.4082,-1.4082,0.0,-1.4082,-1.3379,-1.3124,-1.3997,-1.3294,-1.276,-1.276,-1.276,-1.276,-1.276,-1.0961,-1.0183,-1.1037,-1.0269,-1.0616,-1.2237,-1.1821,-1.1219,0.0,0.0,0.0,0.0,0.0,0.0,0.0,0.0,0.0,0.0,0.0,0.0,0.0,0.0,0.0,0.0,0.0,0.0,0.0,0.0,0.0,0.0,-0.5022,-0.6448,-0.7925,-0.8079,-0.8065,-0.8126,-0.8133,-0.816,-0.8221,-0.8228,-0.8228,-0.8228,-0.8228,-0.8228,-0.8228,-0.8228,-0.8228,-0.8228,-0.8228,-0.8194,-0.814,-0.8133,-0.8106,-0.8038,-0.8038,-0.8038,-0.8038,-0.8038,-0.8038,0.0,-0.8038,-0.8038,-0.8038,-0.8038,-0.8038,0.0,0.0,0.0,0.0,0.0,-0.7746,-0.7685,-0.7685,-0.7651,-0.7584,-0.7495,-0.7468,-0.7448,-0.736,-0.7285,-0.7238,-0.7238,-0.719,-0.7143,-0.7143,-0.7489,-0.8017,-0.8719,-0.9235,-1.0009,-1.1295,-1.1552,-1.1809,-1.2516,0.0,0.0,-1.2334,-1.3294,-1.4082,-1.4082,-1.4082,-1.4082,-1.4082,-1.3027,-1.2589,-1.3294,-1.2248,-1.1552,-1.1552,-1.1552,0.0,0.0,0.0,-0.9235,-0.9836,-0.9235,0.0,0.0,0.0,-1.1037,0.0,0.0,0.0,0.0,-0.8017,-0.8711,0.0,0.0,0.0,0.0,0.0,0.0,0.0,0.0,0.0,0.0,0.0,0.0,0.0,0.0,0.0,0.0,-0.6168,-0.6715,-0.8173,-0.8174,-0.814,-0.8275,-0.8296,-0.8343,-0.8472,-0.8479,-0.8479,-0.8479,-0.8479,-0.8479,-0.8479,0.0,0.0,0.0,0.0,-0.8425,-0.8296,-0.8296,-0.8228,-0.8085,-0.8085,-0.8085,-0.8085,-0.8085,-0.8079,-0.8065,-0.8065,-0.8058,-0.8038,-0.8038,-0.8038,-0.8038,-0.8038,-0.8038,-0.8038,-0.8038,-0.7957,0.0,0.0,0.0,0.0,-0.7631,-0.7624,-0.7617,-0.7604,-0.7502,-0.74,-0.74,-0.7299,-0.719,-0.717,-0.7959,-0.8744,-0.8894,-0.9662,-1.0443,-1.0605,-1.0605,-1.0605,-1.0605,-1.0605,-1.095,-1.1895,-1.3124,-1.3913,-1.4082,-1.4082,0.0,-1.4082,-1.3027,-1.2322,-1.2322,0.0,0.0,-1.0443,-1.0443,-1.0443,-1.0443,-0.9497,-0.8798,-0.8711,-0.8719,-0.9235,-1.0356,-1.1381,-1.1466,-1.0605,-1.0605,-1.0096,-0.9061,-0.7841,-0.8448,0.0,0.0,0.0,0.0,0.0,0.0,0.0,0.0,0.0,0.0,0.0,0.0,0.0,0.0,0.0,-0.6312,-0.7345,-0.8092,-0.8438,-0.8418,-0.8404,-0.8438,-0.8438,-0.8452,-0.8479,-0.8479,-0.8479,-0.8479,-0.8479,-0.8479,-0.8479,-0.8479,-0.8479,-0.8479,-0.8479,-0.8472,-0.8438,-0.8438,-0.8425,-0.8397,0.0,0.0,-0.8397,-0.8397,-0.8336,-0.8228,-0.8228,-0.8153,-0.8038,-0.8038,-0.8038,-0.8038,-0.8038,-0.8038,-0.8038,-0.8038,-0.8018,-0.7997,-0.7997,-0.7977,-0.7936,-0.7814,-0.7773,-0.7746,-0.7638,-0.7577,0.0,-0.7556,-0.7536,-0.7482,-0.736,-0.7507,-0.7923,-0.8664,-0.9061,-0.9497,-1.0443,-1.0605,-1.0605,-1.0605,-1.0605,-1.0692,-1.0864,-1.1906,-1.2942,-1.3913,-1.4082,-1.4082,-1.4082,-1.3027,-1.2322,-1.2322,-1.1295,-1.0269,-0.9323,-0.9235,-0.9235,-0.9235,-0.9061,-0.8456,-0.7489,-0.7489,-0.8017,-0.9235,-0.941,-0.9923,-1.0605,-1.0605,-1.0519,-1.0269,-0.9061,-0.8798,0.0,0.0,0.0,0.0,0.0,0.0,0.0,0.0,0.0,0.0,0.0,-0.4668,-0.5352,0.0,-0.6706,-0.744,-0.8059,-0.8506,-0.8587,-0.8594,-0.8594,-0.8594,-0.8594,-0.8628,-0.8703,-0.871,-0.871,-0.871,-0.871,-0.871,-0.871,-0.871,-0.871,-0.871,-0.871,-0.8676,-0.8594,-0.8594,-0.856,-0.8479,-0.8479,-0.8479,-0.8479,-0.8479,-0.8445,-0.8377,-0.8377,-0.833,-0.8255,-0.8187,-0.8106,-0.8038,-0.8038,-0.8038,-0.8038,-0.8038,-0.8038,-0.8038,-0.8038,-0.8038,-0.8024,-0.795,-0.7923,-0.7916,-0.7841,-0.7767,-0.7706,-0.7706,-0.7651,-0.7584,-0.7502,-0.7489,-0.7632,-0.8005,-0.8147,-0.8302,-0.8727,-0.8877,-0.8877,-0.8877,-0.8877,-0.9052,-0.9662,-1.0183,-1.0961,-1.2174,-1.2857,-1.3209,-1.3209,-1.2163,-1.1466,-1.1466,-0.9913,-0.8623,-0.8017,-0.8017,-0.8017,-0.8017,-0.8017,-0.7753,-0.7136,-0.7143,-0.7401,-0.8017,-0.8632,-0.9148,-0.9749,-0.9749,-0.9749,-0.9749,-0.8536,-0.8623,0.0,0.0,0.0,0.0,0.0,0.0,0.0,-0.3129,-0.3463,-0.5027,-0.5361,-0.5673,-0.68,-0.7002,-0.7294,-0.8375,-0.8574,-0.8615,-0.8737,-0.8757,-0.8757,-0.8757,-0.8757,-0.8804,-0.8927,-0.894,-0.894,-0.894,-0.894,-0.894,-0.894,-0.894,-0.894,-0.894,-0.894,-0.8879,-0.8757,-0.8757,-0.8696,-0.8574,-0.8574,-0.8574,-0.8574,-0.8574,-0.8554,-0.8526,-0.8492,-0.8479,-0.8472,-0.8357,-0.8221,-0.8085,-0.8085,-0.8065,-0.8038,-0.8038,-0.8038,-0.8038,-0.8038,-0.8038,-0.8038,-0.8038,-0.8038,-0.8038,-0.8038,-0.7957,-0.7855,-0.7855,-0.7773,-0.7678,-0.7651,-0.7638,-0.7604,-0.7455,-0.7394,-0.7339,-0.721,-0.7163,-0.7143,-0.7143,-0.7143,-0.7401,-0.8368,-0.8544,-0.9061,-1.0356,-1.1381,-1.198,-1.198,-1.1209,-1.0519,-1.0269,-0.8623,-0.7312,-0.7143,-0.7143,-0.7143,-0.7143,-0.7143,-0.7143,-0.7143,-0.7143,-0.7143,-0.7143,-0.8017,-0.8632,-0.8894,-0.8894,-0.8973,-0.9235,-0.8017,-0.836,0.0,0.0,-0.0336,-0.1678,-0.19,-0.2682,0.0,-0.6139,-0.6589,-0.8152,-0.838,-0.8484,-0.8582,-0.8582,-0.8686,-0.8783,-0.8886,-0.8893,-0.8913,-0.8913,-0.8913,-0.8913,-0.8913,-0.892,-0.894,-0.894,-0.894,-0.894,-0.894,-0.894,-0.894,-0.894,-0.894,-0.894,-0.894,-0.8927,-0.8913,-0.8913,-0.8906,-0.8886,-0.8886,-0.8886,-0.8886,-0.8886,-0.8811,-0.8676,-0.854,-0.8479,-0.8479,-0.8465,-0.8377,-0.8241,-0.8241,-0.816,-0.8038,-0.8038,-0.8038,-0.8038,-0.8038,-0.8038,-0.8038,-0.8038,-0.8038,-0.8038,-0.8038,-0.8024,-0.8011,-0.8011,-0.8004,-0.7957,-0.7821,-0.7787,-0.7753,-0.7611,-0.7468,-0.7366,-0.7353,-0.7238,-0.7143,-0.7143,-0.7143,-0.7143,-0.7312,-0.7319,-0.8009,-1.0269,-1.0692,-1.0778,-1.0778,-1.0692,-1.0183,-0.9235,-0.8886,-0.8281,-0.7231,-0.7143,-0.7143,-0.7143,-0.7143,-0.7143,-0.7143,-0.7143,-0.7143,-0.7143,-0.7224,-0.7841,-0.8894,-0.8894,-0.941,-1.0346,-0.9235,-0.8281,-0.1008,-0.1231,-0.1678,-0.3129,-0.3575,-0.4132,-0.6255,-0.67,-0.7149,-0.8602,-0.894,-0.894,-0.894,-0.894,-0.894,-0.894,-0.894,-0.894,-0.894,-0.9008,-0.9062,-0.9062,-0.9062,-0.9028,-0.8947,-0.894,-0.894,-0.894,-0.894,-0.894,-0.894,-0.894,-0.894,-0.894,-0.894,-0.894,-0.894,-0.894,-0.894,-0.894,-0.894,-0.894,-0.894,-0.894,-0.8906,-0.8838,-0.8777,-0.8696,-0.8615,-0.8615,-0.8526,-0.8384,-0.8303,-0.8235,-0.8167,-0.8072,-0.8038,-0.8038,-0.8038,-0.8038,-0.8038,-0.8038,-0.8038,-0.8038,-0.8038,-0.8038,-0.8038,-0.8038,-0.8038,-0.8024,-0.7963,-0.7943,-0.7909,-0.776,-0.7672,-0.7584,-0.7407,-0.7319,-0.7251,-0.7156,-0.7143,-0.7143,-0.7143,-0.7143,-0.7401,-0.844,-0.9139,-0.9575,-0.9575,-0.9575,-0.9148,-0.8017,-0.7841,-0.7665,-0.7143,-0.7143,-0.7143,-0.7143,-0.7143,-0.7143,-0.7143,-0.7143,-0.7143,-0.7143,-0.7143,-0.7312,-0.7841,-0.7841,-0.7746,-0.7548,-0.7746,-0.7217,-0.179,-0.2235,-0.2682,-0.4582,-0.5139,-0.5472,-0.6927,-0.726,-0.7593,-0.8712,-0.894,-0.894,-0.894,-0.894,-0.894,-0.894,-0.894,-0.8954,-0.8994,-0.9089,-0.9171,-0.9211,-0.9218,-0.9178,-0.9069,-0.8988,-0.894,-0.894,-0.894,-0.894,-0.894,-0.894,-0.894,-0.894,-0.894,-0.894,-0.894,-0.894,-0.894,-0.894,-0.894,-0.894,-0.894,-0.894,-0.894,-0.894,-0.894,-0.8872,-0.8771,-0.8771,-0.8682,-0.8533,-0.8431,-0.8343,-0.8255,-0.8147,-0.8079,-0.8038,-0.8038,-0.8038,-0.8038,-0.8038,-0.8038,-0.8038,-0.8038,-0.8038,-0.8038,-0.8038,-0.8038,-0.8038,-0.8038,-0.8038,-0.8011,-0.7902,-0.7841,-0.7753,-0.7536,-0.7428,-0.7339,-0.7224,-0.717,-0.7143,-0.7143,-0.7143,-0.7143,-0.7143,-0.7841,-0.8368,-0.8368,-0.8368,-0.8105,-0.7231,-0.7143,-0.7143,-0.7143,-0.7143,-0.7143,-0.7143,-0.7143,-0.7143,-0.7143,-0.7143,-0.7143,-0.7143,-0.7143,-0.7143,-0.7143,-0.6782,-0.6251,-0.5447,-0.5891,-0.5708,-0.179,-0.2235,-0.2905,-0.5917,-0.6589,-0.7038,-0.8491,-0.883,-0.883,-0.894,-0.894,-0.894,-0.894,-0.894,-0.894,-0.894,-0.894,-0.8988,-0.9123,-0.915,-0.9205,-0.9354,-0.9374,-0.9374,-0.9367,-0.911,-0.894,-0.894,-0.894,-0.894,-0.894,-0.894,-0.894,-0.894,-0.894,-0.894,-0.894,-0.894,-0.894,-0.894,-0.894,-0.894,-0.894,-0.894,-0.894,-0.894,-0.894,-0.8933,-0.8933,-0.8933,-0.8845,-0.8703,-0.8696,-0.852,-0.8269,-0.8269,-0.8167,-0.8038,-0.8038,-0.8038,-0.8038,-0.8038,-0.8038,-0.8038,-0.8038,-0.8038,-0.8038,-0.8038,-0.8038,-0.8038,-0.8038,-0.8038,-0.8038,-0.8031,-0.7916,-0.7807,-0.7801,-0.7577,-0.7366,-0.7366,-0.7244,-0.7143,-0.7143,-0.7143,-0.7143,-0.7143,-0.7136,-0.7143,-0.7143,-0.7143,-0.7143,-0.7143,-0.7143,-0.7143,-0.7143,-0.7143,-0.7143,-0.7143,-0.7143,-0.7143,-0.7143,-0.7143,-0.7143,-0.7143,-0.7143,-0.7143,-0.7143,-0.598,-0.5447,-0.5359,-0.4194,-0.3657,-0.1794,-0.2235,-0.2682,-0.4693,-0.525,-0.5361,-0.5922,-0.67,-0.7482,-0.7482,-0.8263,-0.894,-0.894,-0.894,-0.894,-0.894,-0.894,-0.8988,-0.913,-0.9239,-0.9361,-0.9517,-0.953,-0.953,-0.953,-0.9354,-0.9232,-0.9232,-0.9232,-0.9232,-0.9232,-0.9232,-0.9184,-0.9083,-0.9083,-0.9035,-0.894,-0.894,-0.894,-0.894,-0.894,-0.894,-0.894,-0.894,-0.894,-0.894,-0.894,-0.894,-0.894,-0.894,-0.8906,-0.8852,-0.875,-0.8648,-0.8554,-0.8445,-0.8316,-0.818,-0.8072,-0.8038,-0.8038,-0.8038,-0.8038,-0.8038,-0.8038,-0.8038,-0.8038,-0.8038,-0.8038,-0.8038,-0.8038,-0.8038,-0.8038,-0.8038,-0.7997,-0.7936,-0.7834,-0.7733,-0.7604,-0.7407,-0.7326,-0.7258,-0.7156,-0.7143,-0.7143,-0.7143,-0.7143,-0.7143,-0.7143,-0.7143,-0.7143,-0.7143,-0.7143,-0.7143,-0.7143,-0.7143,-0.7143,-0.7143,-0.7143,-0.7143,-0.7143,-0.7143,-0.7143,-0.7143,-0.7143,-0.7143,-0.7143,-0.598,-0.4999,-0.4194,-0.3749,-0.3215,-0.1797,-0.2235,-0.2571,-0.4136,-0.447,-0.447,-0.447,-0.5588,-0.67,-0.67,-0.7482,-0.8152,-0.8152,-0.8152,-0.8152,-0.8152,-0.8602,-0.9008,-0.9205,-0.932,-0.9456,-0.9659,-0.9686,-0.9686,-0.9686,-0.9598,-0.9496,-0.9388,-0.9381,-0.9381,-0.9381,-0.9381,-0.9334,-0.9239,-0.9232,-0.9164,-0.9015,-0.9015,-0.8988,-0.894,-0.894,-0.894,-0.894,-0.894,-0.894,-0.894,-0.894,-0.894,-0.894,-0.894,-0.894,-0.8927,-0.8832,-0.8757,-0.8696,-0.8601,-0.8472,-0.8323,-0.8174,-0.8085,-0.8038,-0.8038,-0.8038,-0.8038,-0.8038,-0.8038,-0.8038,-0.8038,-0.8038,-0.8038,-0.8038,-0.8038,-0.8038,-0.8038,-0.8038,-0.8011,-0.7916,-0.7848,-0.774,-0.7502,-0.7407,-0.7319,-0.717,-0.7143,-0.7143,-0.7143,-0.7143,-0.7143,-0.7143,-0.7143,-0.7143,-0.7143,-0.7143,-0.7143,-0.7143,-0.7143,-0.7143,-0.7143,-0.7143,-0.7143,-0.7143,-0.7143,-0.7143,-0.7143,-0.7143,-0.6871,-0.6517,-0.5354,-0.4105,-0.2948,-0.2504,-0.1878,-0.1688,-0.2127,-0.2461,-0.3913,-0.4247,-0.4247,-0.4247,-0.5472,-0.6589,-0.6478,-0.6589,-0.67,-0.67,-0.67,-0.67,-0.6811,-0.8042,-0.9042,-0.934,-0.9381,-0.949,-0.9788,-0.9822,-0.9822,-0.9822,-0.9822,-0.9707,-0.9422,0.0,-0.9401,-0.9401,-0.9401,-0.9401,-0.9395,-0.9395,-0.932,-0.9164,-0.9157,-0.9083,-0.894,-0.894,-0.894,-0.894,-0.894,-0.894,-0.894,-0.894,-0.894,-0.894,-0.894,-0.894,-0.894,-0.894,-0.8852,-0.8723,-0.8723,-0.8621,-0.8472,-0.8336,-0.8187,-0.8052,-0.8052,-0.8045,-0.8038,-0.8038,-0.8038,-0.8038,-0.8038,-0.8038,-0.8038,-0.8038,-0.8038,-0.8038,-0.8038,-0.8038,-0.8038,-0.8038,-0.7923,-0.778,-0.7631,-0.7468,-0.7312,-0.7163,-0.7143,-0.7143,-0.7143,-0.7143,-0.7143,-0.7143,-0.7143,-0.7143,-0.7143,-0.7143,-0.7143,-0.7143,-0.7143,-0.7143,-0.7143,-0.7143,-0.7143,-0.7143,-0.7143,-0.7143,-0.7143,-0.7054,-0.6517,-0.5359,-0.4105,-0.2948,-0.1791,-0.0538,0.0,-0.046,-0.0571,-0.0683,-0.1011,-0.112,-0.112,-0.112,-0.3131,-0.4693,-0.3575,-0.5135,-0.67,-0.67,-0.67,-0.7038,-0.8152,-0.8602,-0.9042,-0.934,-0.9381,-0.949,-0.9788,-0.9822,-0.9822,-0.9822,-0.9822,-0.9788,-0.9713,-0.9707,-0.9707,-0.9707,-0.9707,-0.9659,-0.9557,-0.9551,-0.9476,-0.9327,-0.9211,-0.9083,-0.894,-0.894,-0.894,-0.894,-0.894,-0.894,-0.894,-0.894,-0.894,-0.894,-0.894,-0.894,-0.894,-0.894,-0.8913,-0.8879,-0.8879,-0.8784,-0.8648,-0.8608,-0.8431,-0.8214,-0.8214,-0.8133,-0.8038,-0.8038,-0.8038,-0.8038,-0.8038,-0.8038,-0.8038,-0.8038,-0.8038,-0.8038,-0.8038,-0.8038,-0.8038,-0.8038,-0.8011,-0.7902,-0.7651,-0.738,-0.7183,-0.7149,-0.7143,-0.7143,-0.7143,-0.7143,-0.7143,-0.7143,-0.7143,-0.7143,-0.7143,-0.7143,-0.7143,-0.7143,-0.7143,-0.7143,-0.7143,-0.7143,-0.7143,-0.7143,-0.7143,-0.7143,-0.7143,-0.6251,-0.5714,-0.5359,-0.3307,-0.2057,-0.1791,-0.0538,0.0,0.0,0.0,0.0,0.0,0.0,0.0,0.0,-0.182,-0.3282,-0.2395,-0.3519,-0.4964,-0.5643,-0.5725,-0.6255,-0.7709,-0.8491,-0.9022,-0.9252,-0.934,-0.9469,-0.97,-0.9781,-0.9822,-0.9822,-0.9822,-0.9822,-0.9822,-0.9822,-0.9822,-0.9822,-0.9822,-0.9781,-0.9707,-0.97,-0.9598,-0.9381,-0.9171,-0.9022,-0.894,-0.894,-0.894,-0.894,-0.894,-0.894,-0.894,0.0,-0.894,-0.894,-0.894,-0.894,-0.894,-0.894,-0.894,-0.894,-0.894,-0.8886,-0.8811,-0.8811,-0.8655,-0.8445,-0.8316,-0.8214,-0.8126,-0.8058,-0.8038,-0.8038,-0.8038,-0.8038,-0.8038,-0.8038,-0.8038,-0.8038,-0.8038,-0.8038,-0.8038,-0.8038,-0.8038,-0.795,-0.7658,-0.7407,-0.7217,-0.7149,-0.7143,-0.7143,-0.7143,-0.7143,-0.7143,-0.7143,-0.7143,-0.7143,-0.7143,-0.7143,-0.7143,-0.7143,-0.7143,-0.7143,-0.7143,-0.7143,-0.7143,-0.7143,-0.7143,-0.7143,-0.7143,-0.598,-0.5176,-0.4643,-0.2683,-0.1522,-0.0986,-0.0359,0.0,0.0,0.0,0.0,0.0,0.0,0.0,0.0,-0.1163,-0.2193,-0.1992,-0.209,-0.2643,-0.3902,-0.4428,-0.5058,-0.6502,-0.7955,-0.9008,-0.9137,-0.9286,-0.9435,-0.9591,-0.9734,-0.9822,-0.9822,-0.9822,-0.9822,-0.9822,-0.9822,-0.9822,-0.9822,-0.9822,-0.9822,-0.9822,-0.9802,-0.9659,-0.9388,-0.9103,-0.896,-0.894,-0.894,-0.894,-0.894,-0.894,-0.894,-0.894,0.0,0.0,-0.894,-0.894,-0.894,-0.894,-0.894,-0.894,-0.894,-0.894,-0.894,-0.894,-0.894,-0.8852,-0.8696,-0.8418,-0.8303,-0.8248,-0.8113,-0.8058,-0.8038,-0.8038,-0.8038,-0.8038,-0.8038,-0.8038,-0.8038,-0.8038,-0.8038,-0.8038,-0.8038,-0.8024,-0.7929,-0.7651,-0.7475,-0.7319,-0.717,-0.7143,-0.7143,-0.7143,-0.7143,-0.7143,-0.7143,-0.7143,-0.7143,-0.7143,-0.7143,-0.7143,-0.7143,-0.7143,-0.7143,-0.7143,-0.7143,-0.7143,-0.7143,-0.7143,-0.7143,-0.7143,-0.5802,-0.4643,-0.3571,-0.2236,-0.0986,0.0,0.0,0.0,0.0,0.0,0.0,0.0,0.0,0.0,0.0,-0.1173,-0.1873,-0.0588,-0.1408,-0.2339,-0.2571,-0.373,-0.5092,-0.6502,-0.8088,-0.9123,-0.915,-0.9286,-0.9435,-0.9591,-0.9734,-0.9822,-0.9822,-0.9822,-0.9822,-0.9822,-0.9822,-0.9822,-0.9822,-0.9822,-0.9822,-0.9822,-0.9707,-0.9557,-0.9381,-0.9205,-0.9055,-0.894,-0.894,-0.894,-0.894,-0.894,-0.894,-0.894,-0.894,0.0,-0.894,-0.894,-0.894,-0.894,-0.894,-0.894,-0.894,-0.894,-0.894,-0.894,-0.894,-0.892,-0.8872,-0.8696,-0.8472,-0.8269,-0.8241,-0.814,-0.8038,-0.8038,-0.8038,-0.8038,-0.8038,-0.8038,-0.8038,-0.8038,-0.8038,-0.8038,-0.8038,-0.7936,-0.7801,-0.7631,-0.7475,-0.7319,-0.717,-0.7143,-0.7143,-0.7143,-0.7143,-0.7143,-0.7143,-0.7143,-0.7143,-0.7143,-0.7143,-0.7143,-0.7143,-0.7143,-0.7143,-0.7143,-0.7143,-0.7143,-0.7143,-0.7143,-0.7143,-0.7143,-0.4999,-0.3838,-0.3571,-0.1343,-0.018,0.0,0.0,0.0,0.0,0.0,0.0,0.0,0.0,0.0,0.0,-0.06,-0.0836,-0.0121,-0.06,-0.1309,-0.2022,-0.2833,-0.4094,-0.6378,-0.747,-0.8231,-0.9037,-0.9218,-0.932,-0.9469,-0.9618,-0.9741,-0.9815,-0.9822,-0.9822,-0.9822,-0.9822,-0.9822,-0.9822,-0.9822,-0.9788,-0.9713,-0.9564,-0.9415,-0.9266,-0.9117,-0.9008,-0.894,-0.894,-0.894,-0.894,-0.894,-0.894,-0.894,-0.894,0.0,-0.894,-0.894,-0.894,-0.894,-0.894,-0.894,-0.894,-0.894,-0.894,-0.894,-0.894,-0.894,-0.8927,-0.8852,-0.8628,-0.837,-0.8296,-0.816,-0.8038,-0.8038,-0.8038,-0.8038,-0.8038,-0.8038,-0.8038,-0.8038,-0.8038,-0.8038,-0.8038,-0.7984,-0.7862,-0.7645,-0.7543,-0.7414,-0.7183,-0.7143,-0.7143,-0.7143,-0.7143,-0.7143,-0.7143,-0.7143,-0.7143,-0.7143,-0.7143,-0.7143,-0.7143,-0.7143,-0.7143,-0.7143,-0.7143,-0.7143,-0.7143,-0.7143,-0.7143,-0.7143,-0.4816,-0.3571,-0.3571,-0.1165,0.0,0.0,0.0,0.0,0.0,0.0,0.0,0.0,0.0,0.0,0.0,0.0,0.0,0.0,0.0,-0.0364,-0.1573,-0.2035,-0.3078,-0.5538,-0.6406,-0.7257,-0.847,-0.895,-0.9232,-0.932,-0.9496,-0.9652,-0.9768,-0.9802,-0.9822,-0.9822,-0.9822,-0.9822,-0.9822,-0.9822,-0.9754,-0.9612,-0.9462,-0.9306,-0.9157,-0.9008,-0.894,-0.894,-0.894,-0.894,-0.894,-0.894,-0.894,-0.894,-0.894,0.0,0.0,-0.8602,-0.838,-0.838,-0.8042,-0.7931,-0.7931,-0.7931,-0.7931,-0.7931,-0.7931,-0.8152,-0.838,-0.838,-0.8534,-0.8506,-0.8364,-0.8208,-0.8079,-0.8052,-0.8038,-0.8038,-0.8038,-0.8038,-0.7939,-0.764,-0.7335,-0.7129,-0.7129,-0.7335,-0.7464,-0.6923,-0.7045,-0.7131,-0.6783,-0.6536,-0.6422,-0.6694,-0.6517,-0.6334,-0.6334,-0.6605,-0.6605,-0.6334,-0.6782,-0.6959,-0.6782,-0.6966,-0.6959,-0.6782,-0.6966,-0.7143,-0.7143,-0.7143,-0.6959,-0.6782,-0.4639,-0.3482,-0.3215,-0.1076,0.0,0.0,0.0,0.0,0.0,0.0,0.0,0.0,0.0,0.0,0.0,0.0,0.0,0.0,0.0,0.0,-0.0123,-0.1474,-0.2562,-0.2646,-0.5145,-0.698,-0.6888,-0.8341,-0.9313,-0.9191,-0.9435,-0.9612,-0.9625,-0.9747,-0.9822,-0.9822,-0.9822,-0.9822,-0.9822,-0.9822,-0.9754,-0.9612,-0.9462,-0.9306,-0.9157,-0.9008,-0.894,-0.894,-0.894,-0.894,-0.894,-0.894,-0.894,-0.894,-0.894,0.0,0.0,-0.7482,-0.6922,-0.6811,-0.5472,-0.4916,-0.4916,-0.4916,-0.4916,-0.4916,-0.4916,-0.5806,-0.6922,-0.6922,-0.7719,-0.8662,-0.8506,-0.8364,-0.8221,-0.8079,-0.8038,-0.8038,-0.8038,-0.8038,-0.7739,-0.6431,-0.5222,-0.4418,-0.4418,-0.5322,-0.5792,-0.4403,-0.5088,-0.5842,-0.5624,-0.4611,-0.4283,-0.5359,-0.4639,-0.3927,-0.3927,-0.491,-0.5176,-0.4016,-0.5797,-0.6694,-0.5625,-0.6517,-0.6694,-0.5625,-0.6517,-0.7143,-0.7143,-0.7143,-0.6605,-0.5536,-0.4283,-0.3037,-0.1968,-0.0628,0.0,0.0,0.0,0.0,0.0,0.0,0.0,0.0,0.0,0.0,0.0,0.0,0.0,0.0,0.0,0.0,0.0,-0.0494,-0.1354,-0.2198,-0.3386,-0.4422,-0.5424,-0.6869,-0.7743,-0.7772,-0.873,-0.9408,-0.9591,-0.9659,-0.9727,-0.9815,-0.9822,-0.9822,-0.9822,-0.9822,-0.9713,-0.9483,-0.9415,-0.9266,-0.9028,-0.8967,-0.894,-0.894,-0.8042,-0.7593,-0.7593,-0.67,-0.6255,-0.6255,-0.6255,0.0,0.0,-0.5584,-0.5361,-0.5361,-0.4693,-0.447,-0.447,-0.447,-0.447,-0.447,-0.447,-0.4916,-0.5361,-0.5361,-0.578,-0.627,-0.7057,-0.6594,-0.5653,-0.5651,-0.5622,-0.5622,-0.5622,-0.5622,-0.5422,-0.4922,-0.4418,-0.4014,-0.4014,-0.4418,-0.4595,-0.3925,-0.4231,-0.4524,-0.4342,-0.3893,-0.3749,-0.4283,-0.3927,-0.3571,-0.3571,-0.4016,-0.4105,-0.366,-0.5087,-0.5625,-0.4372,-0.4727,-0.5087,-0.5359,-0.5176,-0.5354,-0.6068,-0.5354,-0.4816,-0.4283,-0.3126,-0.2236,-0.1791,-0.0628,0.0,0.0,0.0,0.0,0.0,0.0,0.0,0.0,0.0,0.0,0.0,0.0,0.0,0.0,0.0,0.0,0.0,0.0,-0.037,-0.1602,-0.2074,-0.2659,-0.3847,-0.5178,-0.6152,-0.6165,-0.7514,-0.8583,-0.8747,-0.8835,-0.8683,-0.8406,-0.8412,-0.8395,-0.8354,-0.8354,-0.8634,-0.9388,-0.934,-0.9191,-0.894,-0.8491,-0.8269,-0.8263,-0.67,-0.6033,-0.6033,-0.5027,-0.447,-0.447,0.0,0.0,0.0,-0.4024,-0.3801,-0.3798,-0.3354,-0.3131,-0.3131,-0.3131,-0.3131,-0.3131,-0.3131,-0.3466,-0.3801,-0.3801,-0.3801,-0.4003,-0.4962,-0.4643,-0.4043,-0.397,-0.4034,-0.4014,-0.4014,-0.3717,-0.3416,-0.3416,-0.3115,-0.2814,-0.2814,-0.3115,-0.3302,-0.2769,-0.3009,-0.3236,-0.308,-0.2741,-0.2698,-0.304,-0.2769,-0.2504,-0.2504,-0.2858,-0.2948,-0.2591,-0.3575,-0.402,-0.3126,-0.3393,-0.3838,-0.4287,-0.3838,-0.4016,-0.4821,-0.4016,-0.3393,-0.3037,-0.2236,-0.1612,-0.1255,-0.0449,0.0,0.0,0.0,0.0,0.0,0.0,0.0,0.0,0.0,0.0,0.0,0.0,0.0,0.0,0.0,0.0,0.0,0.0,0.0,0.0,-0.1355,-0.2448,-0.2291,-0.3722,-0.4624,-0.4596,-0.5916,-0.6869,-0.6873,-0.7067,-0.6483,-0.5043,-0.4924,0.0,-0.4932,-0.4929,-0.6331,-0.9265,-0.9232,-0.9083,-0.894,-0.7482,-0.67,-0.67,-0.525,-0.447,-0.447,-0.447,-0.447,0.0,0.0,0.0,0.0,-0.2905,-0.2235,-0.2124,-0.0672,0.0,0.0,0.0,0.0,0.0,0.0,-0.1008,-0.2235,-0.2235,-0.2235,-0.2229,-0.2193,-0.3122,-0.412,-0.4047,-0.3974,-0.4014,-0.4014,-0.3015,-0.2012,-0.2012,-0.1008,0.0,0.0,-0.1109,-0.1611,-0.0303,-0.1091,-0.1944,-0.1813,-0.0843,-0.0459,-0.1616,-0.0808,0.0,0.0,-0.1076,-0.1343,-0.018,-0.1076,-0.1791,-0.1791,-0.2948,-0.3126,-0.1878,-0.2948,-0.3571,-0.366,-0.3571,-0.3037,-0.188,-0.1791,-0.1255,0.0,0.0,0.0,0.0,0.0,0.0,0.0,0.0,0.0,0.0,0.0,0.0,0.0,0.0,0.0,0.0,0.0,0.0,0.0,0.0,0.0,0.0,-0.0494,-0.0739,-0.0735,-0.206,-0.2994,-0.2964,-0.4353,-0.5381,-0.5354,-0.5518,-0.5436,-0.4961,-0.4843,-0.495,-0.4925,-0.4756,-0.5188,-0.6111,-0.6194,-0.6016,-0.5922,-0.5472,-0.525,-0.5139,-0.3687,-0.2905,-0.2905,-0.1902,-0.1456,0.0,0.0,0.0,0.0,-0.0896,-0.0672,-0.0672,-0.0224,0.0,0.0,0.0,0.0,0.0,0.0,-0.0336,-0.0672,-0.0672,-0.0672,-0.0671,-0.0668,-0.098,-0.1269,-0.1231,-0.1316,-0.1309,-0.1309,-0.0907,-0.0605,-0.0605,-0.0303,0.0,0.0,-0.0303,-0.0504,-0.0101,-0.0298,-0.0585,-0.0574,-0.0281,-0.0092,-0.054,-0.0269,0.0,0.0,-0.0359,-0.0449,0.0,-0.0359,-0.0538,-0.0538,-0.0896,-0.1343,-0.1791,-0.1343,-0.1522,-0.2325,-0.1612,-0.0986,-0.0538,-0.0538,-0.0359,0.0,0.0,0.0,0.0,0.0,0.0,0.0,0.0,0.0,0.0,0.0,0.0,0.0,0.0,0.0,0.0,0.0,0.0,0.0,0.0,0.0,0.0,0.0,0.0,0.0,-0.0734,-0.1575,-0.2167,-0.308,-0.3763,-0.3785,-0.3788,-0.3661,-0.3054,-0.3052,-0.3036,-0.2999,-0.2968,-0.295,-0.295,-0.4082,-0.4627,-0.447,-0.3913,-0.3575,-0.3575,-0.2125,-0.1343,-0.1343,-0.0448,0.0,0.0,0.0,0.0,0.0,0.0,0.0,0.0,0.0,0.0,0.0,0.0,0.0,0.0,0.0,0.0,0.0,0.0,0.0,0.0,0.0,0.0,0.0,0.0,0.0,0.0,0.0,0.0,0.0,0.0,0.0,0.0,0.0,0.0,0.0,0.0,0.0,0.0,0.0,0.0,0.0,0.0,0.0,0.0,0.0,0.0,0.0,0.0,0.0,0.0,0.0,0.0,-0.0359,-0.1076,-0.0449,-0.0359,-0.1076,-0.0359,0.0,0.0,0.0,0.0,0.0,0.0,0.0,0.0,0.0449,0.0718,0.0,0.0,0.0,0.0,0.0,0.0,0.0,0.0,0.0,0.0,0.0,0.0,0.0,0.0,0.0,0.0,0.0,0.0,0.0,0.0,-0.0491,-0.1932,-0.2021,-0.2012,-0.2042,-0.2044,-0.1434,-0.0118,0.0,0.0,0.0,0.0,0.0,0.0,-0.2686,-0.4136,-0.4136,-0.2794,-0.2012,-0.2012,-0.0672,0.0,0.0,0.0,0.0,0.0,0.0,0.0,0.0,0.0,0.0,0.0,0.0,0.0,0.0,0.0,0.0,0.0,0.0,0.0,0.0,0.0,0.0,0.0,0.0,0.0,0.0,0.0,0.0,0.0,0.0,0.0,0.0,0.0,0.0,0.0,0.0,0.0,0.0,0.0,0.0,0.0,0.0,0.0,0.0,0.0,0.0,0.0,0.0,0.0,0.0,0.0,0.0,0.0,0.0,0.0,0.0,0.0,0.0,0.0,0.0,0.0,0.0,0.0,0.0,0.0,0.0,0.0,0.0,0.0,0.1255,0.1791,0.0,0.0,0.0,0.0,0.0,0.0,0.0,0.0,0.0,0.0,0.0,0.0,0.0,0.0,0.0,0.0,0.0,0.0,0.0,0.0,-0.0123,-0.0491,-0.0484,-0.048,-0.0482,-0.0477,-0.0355,0.0,0.0,0.0,0.0,0.0,0.0,0.0,-0.0677,-0.1008,-0.1008,-0.0672,-0.056,-0.056,-0.0112,0.0,0.0,0.0,0.0,0.0,0.0,0.0,0.0,0.0,0.0,0.0,0.0,0.0,0.0,0.0,0.0,0.0,0.0,0.0,0.0,0.0,0.0,0.0,0.0,0.0,0.0,0.0,0.0,0.0,0.0,0.0,0.0,0.0,0.0,0.0,0.0,0.0,0.0,0.0,0.0,0.0,0.0,0.0,0.0,0.0,0.0,0.0,0.0,0.0,0.0,0.0,0.0,0.0,0.0,0.0,0.0,0.0,0.0,0.0,0.0,0.0,0.0,0.0,0.0,0.0,0.0,0.0,0.0,0.0,0.1255,0.1791,0.0,0.0,0.0,0.0,0.0,0.0,0.0,0.0,0.0,0.0,0.0,0.0,0.0,0.0,0.0,0.0,0.0,0.0,0.0,0.0,0.0,0.0,0.0,0.0,0.0,0.0,0.0,0.0,0.0,0.0,0.0,0.0,0.0,0.0,0.0,0.0,0.0,0.0,0.0,0.0,0.0,0.0,0.0,0.0,0.0,0.0,0.0,0.0,0.0,0.0,0.0,0.0,0.0,0.0,0.0,0.0,0.0,0.0,0.0,0.0,0.0,0.0,0.0,0.0,0.0,0.0,0.0,0.0,0.0,0.0,0.0,0.0,0.0,0.0,0.0,0.0,0.0,0.0,0.0,0.0,0.0,0.0,0.0,0.0,0.0,0.0,0.0,0.0,0.0,0.0,0.0,0.0,0.0,0.0,0.0,0.0,0.0,0.0,0.0,0.0,0.0,0.0,0.0,0.0,0.0,0.0,0.0,0.0,0.0,0.0,0.1255,0.1791,0.0,0.0,0.0,0.0,0.0,0.0,0.0,0.0,0.0,0.0,0.0,0.0,0.0,0.0,0.0,0.0,0.0,0.0,0.0,0.0,0.0,0.0,0.0,0.0,0.0,0.0,0.0,0.0,0.0,0.0,0.0,0.0,0.0,0.0,0.0,0.0,0.0,0.0,0.0,0.0,0.0,0.0,0.0,0.0,0.0,0.0,0.0,0.0,0.0,0.0,0.0,0.0,0.0,0.0,0.0,0.0,0.0,0.0,0.0,0.0,0.0,0.0,0.0,0.0,0.0,0.0,0.0,0.0,0.0,0.0,0.0,0.0,0.0,0.0,0.0,0.0,0.0,0.0,0.0,0.0,0.0,0.0,0.0,0.0,0.0,0.0,0.0,0.0,0.0,0.0,0.0,0.0,0.0,0.0,0.0,0.018,0.027,0.0269,0.009,0.0,0.0,0.0,0.0,0.0,0.018,0.0269,0.0269,0.0449,0.0538,0.0538,0.1791,0.2325,0.0,0.0,0.0,0.0,0.0,0.0,0.0,0.0,0.0,0.0,0.0,0.0,0.0,0.0,0.0,0.0,0.0,0.0,0.0,0.0,0.0,0.0,0.0,0.0,0.0,0.0,0.0,0.0,0.0,0.0,0.0,0.0,0.0,0.0,0.0,0.0,0.0,0.0,0.0,0.0,0.0,0.0,0.0,0.0,0.0,0.0,0.0,0.0,0.0,0.0,0.0,0.0,0.0,0.0,0.0,0.0,0.0,0.0,0.0,0.0,0.0,0.0,0.0,0.0,0.0,0.0,0.0,0.0,0.0,0.0,0.0,0.0,0.0,0.0,0.0,0.0,0.0,0.0,0.0,0.0,0.0,0.0,0.0,0.0,0.0,0.0,0.0,0.0,0.0,0.0,0.0,0.0,0.0,0.0,0.0,0.092,0.1551,0.1524,0.0538,0.0,0.0,0.0,0.0,0.0,0.0986,0.1522,0.1522,0.2593,0.3037,0.3037,0.4287,0.4825,0.0,0.0,0.0,0.0,0.0,0.0,0.0,0.0,0.0,0.0,0.0,0.0,0.0,0.0,0.0,0.0,0.0,0.0,0.0,0.0,0.0,0.0,0.0,0.0,0.0,0.0,0.0,0.0,0.0,0.0,0.0,0.0,0.0,0.0,0.0,0.0,0.0,0.0,0.0,0.0,0.0,0.0,0.0,0.0,0.0,0.0,0.0,0.0,0.0,0.0,0.0,0.0,0.0,0.0,0.0,0.0,0.0,0.0,0.0,0.0,0.0,0.0,0.0,0.0,0.0,0.0,0.0,0.0,0.0,0.0,0.0,0.0,0.0,0.0,0.0,0.0,0.0,0.0,0.0,0.0,0.0,0.0,0.0,0.0,0.0,0.0,0.0,0.0,0.0,0.0677,0.1059,0.1049,0.1713,0.2179,0.2157,0.2626,0.2959,0.2777,0.2236,0.1968,0.1968,0.1968,0.1968,0.1968,0.2502,0.2769,0.2769,0.3432,0.3723,0.3723,0.4318,0.4618,0.0,0.0,0.0,0.0,0.0,0.0,0.0,0.0,0.0,0.0,0.0,0.0,0.0,0.0,0.0,0.0,0.0,0.0,0.0,0.0,0.0,0.0,0.0,0.0,0.0,0.0,0.0,0.0,0.0,0.0,0.0,0.0,0.0,0.0,0.0,0.0,0.0,0.0,0.0,0.0,0.0,0.0,0.0,0.0,0.0,0.0,0.0,0.0,0.0,0.0,0.0,0.0,0.0,0.0,0.0,0.0,0.0,0.0,0.0,0.0,0.0,0.0,0.0,0.0,0.0,0.0,0.0,0.0,0.0,0.0,0.0,0.0,0.0,0.0,0.0,0.0101,0.0404,0.0504,0.0605,0.0907,0.0907,0.0907,0.0907,0.0907,0.0907,0.0907,0.0907,0.0903,0.089,0.1871,0.2447,0.2509,0.337,0.4131,0.4399,0.4379,0.4496,0.4538,0.3984,0.3713,0.3713,0.3713,0.3713,0.3713,0.3984,0.4074,0.4074,0.451,0.4728,0.4732,0.4806,0.484,0.0,0.0,0.0,0.0,0.0,0.0,0.0,0.0,0.0,0.0,0.0,0.0,0.0,0.0,0.0,0.0,0.0,0.0,0.0,0.0,0.0,0.0,0.0,0.0,0.0,0.0,0.0,0.0,0.0,0.0,0.0,0.0,0.0,0.0,0.0,0.0,0.0,0.0,0.0,0.0,0.0,0.0,0.0,0.0,0.0,0.0,0.0,0.0,0.0,0.0,0.0,0.0,0.0,0.0,0.0,0.0,0.0,0.0,0.0,0.0,0.0,0.0,0.0,0.0,0.0,0.0,0.0,0.0,0.0,0.0,0.0,0.0,0.0,0.0,0.0,0.0303,0.1611,0.1811,0.2213,0.3516,0.3717,0.3717,0.3717,0.3717,0.3717,0.3717,0.3717,0.3714,0.3707,0.3807,0.3907,0.3901,0.3901,0.4468,0.5562,0.5656,0.6156,0.7282,0.52,0.3971,0.3971,0.3971,0.3971,0.3971,0.5101,0.5665,0.5665,0.6813,0.7295,0.7295,0.7308,0.7315,0.1848,0.1602,0.1356,0.0247,0.0,0.0,0.0,0.0,0.0,0.0,0.0,0.0,0.0,0.0,0.0,0.0,0.0,0.0,0.0,0.0,0.0,0.0,0.0,0.0,0.0,0.0,0.0,0.0,0.0,0.0,0.0,0.0,0.0,0.0,0.0,0.0,0.0,0.0,0.0,0.0,0.0,0.0,0.0,0.0,0.0,0.0,0.0,0.0,0.0,0.0,0.0,0.0,0.0,0.0,0.0,0.0,0.0,0.0,0.0,0.0,0.0,0.0,0.0,0.0,0.0,0.0,0.0,0.0,0.0,0.0,0.0,0.0,0.0,0.0,0.0,0.0101,0.0605,0.0706,0.1109,0.2515,0.2714,0.3015,0.3814,0.4014,0.4014,0.4014,0.4014,0.4014,0.4014,0.4718,0.5222,0.5222,0.6022,0.6708,0.7162,0.7205,0.7375,0.7778,0.6834,0.6267,0.6267,0.6267,0.6267,0.6267,0.6643,0.6926,0.6932,0.7495,0.7733,0.7733,0.7828,0.7875,0.2094,0.1725,0.148,0.0247,0.0,0.0,0.0,0.0,0.0,0.0,0.0,0.0,0.0,0.0,0.0,0.0,0.0,0.0,0.0,0.0,0.0,0.0,0.0,0.0,0.0,0.0,0.0,0.0,0.0,0.0,0.0,0.0,0.0,0.0,0.0,0.0,0.0,0.0,0.0,0.0,0.0,0.0,0.0,0.0,0.0,0.0,0.0,0.0,0.0,0.0,0.0,0.0,0.0,0.0,0.0112,0.056,0.0448,0.0112,0.056,0.0336,0.0112,0.056,0.0672,0.0784,0.1232,0.1456,0.1456,0.1456,0.1444,0.1422,0.1381,0.1046,0.062,0.0613,0.0911,0.141,0.1813,0.1913,0.2316,0.362,0.3917,0.4218,0.5118,0.5218,0.5218,0.5218,0.5218,0.5218,0.5218,0.6027,0.6631,0.6631,0.7434,0.8038,0.8038,0.8038,0.8038,0.8038,0.7848,0.774,0.774,0.774,0.774,0.774,0.774,0.774,0.774,0.7834,0.7882,0.7882,0.7991,0.8038,0.0494,0.0123,0.0123,0.0,0.0,0.0,0.0,0.0,0.0,0.0,0.0,0.0,0.0,0.0,0.0,0.0,0.0,0.0,0.0,0.0,0.0,0.0,0.0,0.0,0.0,0.0,0.0,0.0,0.0,0.0,0.0,0.0,0.0,0.0,0.0,0.0,0.0,0.0,0.0,0.0,0.0,0.0,0.0,0.0,0.0,0.0,0.0,0.0,0.0,0.0,0.0,0.0,0.0,0.0,0.0224,0.1678,0.1343,0.0224,0.1678,0.1231,0.0336,0.179,0.2235,0.2459,0.4024,0.447,0.447,0.447,0.447,0.4453,0.4487,0.3292,0.207,0.207,0.3058,0.4318,0.5727,0.6032,0.6331,0.7739,0.7939,0.7939,0.8038,0.8038,0.8038,0.8038,0.8038,0.8038,0.8038,0.8038,0.8038,0.8038,0.8038,0.8038,0.8038,0.8038,0.8038,0.8038,0.8038,0.8038,0.8038,0.8038,0.8038,0.8038,0.8038,0.8038,0.8038,0.8038,0.8038,0.8038,0.8038,0.8038,0.5647,0.5158,0.4668,0.2339,0.1725,0.1479,0.0247,0.0,0.0,0.0,0.0,0.0,0.0,0.0,0.0,0.0,0.0,0.0,0.0,0.0,0.0,0.0,0.0,0.0,0.0,0.0,0.0,0.0,0.0,0.0,0.0,0.0,0.0,0.0,0.0,0.0,0.0,0.0,0.0,0.0,0.0,0.0,0.0,0.0,0.0,0.0,0.0,0.0609,0.1803,0.2956,0.3371,0.3319,0.3302,0.3275,0.3243,0.3689,0.3578,0.3243,0.3689,0.3578,0.3243,0.3689,0.3801,0.3913,0.4359,0.447,0.447,0.447,0.447,0.4467,0.4554,0.48,0.4915,0.4014,0.3946,0.43,0.461,0.4661,0.5018,0.6331,0.6631,0.693,0.7839,0.8038,0.8038,0.8038,0.8038,0.8038,0.8038,0.8038,0.8038,0.8038,0.8038,0.8038,0.8038,0.8038,0.8038,0.8038,0.8038,0.8038,0.8038,0.8038,0.8038,0.8038,0.8038,0.8038,0.8038,0.8038,0.8038,0.8038,0.8038,0.8038,0.6874,0.6381,0.5892,0.3935,0.3444,0.32,0.2216,0.0986,0.0,0.0,0.0,0.0,0.0,0.0,0.0,0.0,0.0,0.0,0.0,0.0,0.0,0.0,0.0,0.0,0.0,0.0,0.0,0.0,0.0,0.0,0.0,0.0,0.0,0.0,0.0,0.0,0.0,0.0,0.0,0.0,0.0,0.0,0.0,0.0,0.0,0.0,0.074,0.196,0.3514,0.4529,0.4826,0.4777,0.4714,0.4665,0.4623,0.515,0.5027,0.4582,0.5139,0.5027,0.4582,0.5139,0.5361,0.5472,0.6033,0.6255,0.6255,0.6255,0.6255,0.6255,0.6255,0.6869,0.7116,0.5594,0.5602,0.5945,0.5945,0.576,0.5992,0.6805,0.6871,0.7036,0.7839,0.8038,0.8038,0.8038,0.8038,0.8038,0.8038,0.8038,0.8038,0.8038,0.8038,0.8038,0.8038,0.8038,0.8038,0.8038,0.8038,0.8038,0.8038,0.8038,0.8038,0.8038,0.8038,0.8038,0.8038,0.8038,0.8038,0.8038,0.8038,0.8038,0.5774,0.5406,0.5284,0.5161,0.5039,0.4916,0.4916,0.2585,0.037,0.0247,0.0123,0.0,0.0,0.0,0.0,0.0,0.0,0.0,0.0,0.0,0.0,0.0,0.0,0.0,0.0,0.0,0.0,0.0,0.0,0.0,0.0,0.0,0.0,0.0,0.0123,0.0247,0.0247,0.037,0.0494,0.0,0.0494,0.0494,0.0494,0.0247,0.0247,0.0494,0.2216,0.3812,0.5154,0.5324,0.529,0.5268,0.523,0.5165,0.5264,0.6527,0.6047,0.515,0.6482,0.6033,0.5139,0.6478,0.6922,0.7149,0.8491,0.894,0.894,0.894,0.894,0.894,0.894,0.894,0.8569,0.7116,0.7642,0.8506,0.8506,0.8391,0.8289,0.8289,0.8174,0.8072,0.8065,0.8058,0.8058,0.8038,0.8038,0.8038,0.8038,0.8038,0.8038,0.8038,0.8038,0.8038,0.8038,0.8038,0.8038,0.8038,0.8038,0.8038,0.8038,0.8038,0.8038,0.8038,0.8038,0.8038,0.8038,0.8038,0.8038,0.8038,0.8038,0.8038,0.8836,0.8714,0.8465,0.7118,0.5892,0.4916,0.4916,0.4303,0.3446,0.2216,0.0863,0.0,0.0,0.0,0.0,0.0,0.0,0.0,0.0,0.0,0.0,0.0,0.0,0.0,0.0,0.0,0.0,0.0,0.0,0.0,0.0,0.0,0.0,0.0,0.1233,0.1971,0.1971,0.32,0.3812,0.0,0.3812,0.3812,0.3812,0.2585,0.2708,0.3935,0.5647,0.6503,0.6991,0.8193,0.8732,0.8641,0.8579,0.8488,0.8378,0.859,0.842,0.8176,0.8412,0.8263,0.8042,0.838,0.838,0.8491,0.883,0.894,0.894,0.894,0.894,0.894,0.894,0.894,0.8816,0.8452,0.8553,0.8662,0.8662,0.854,0.8438,0.8438,0.8411,0.835,0.8241,0.8221,0.818,0.8058,0.8038,0.8038,0.8038,0.8038,0.8038,0.8038,0.8038,0.8038,0.8038,0.8038,0.8038,0.8038,0.8038,0.8038,0.8038,0.8038,0.8038,0.8038,0.8038,0.8038,0.8038,0.8038,0.8038,0.8038,0.8038,0.8038,0.9822,0.9822,0.9572,0.8714,0.7856,0.7245,0.7245,0.663,0.5892,0.5035,0.3566,0.2339,0.2339,0.2339,0.2339,0.2339,0.2339,0.2339,0.2339,0.2339,0.2339,0.2339,0.2339,0.2339,0.2339,0.2339,0.0,0.0,0.0,0.2339,0.2339,0.2339,0.2339,0.2339,0.32,0.3689,0.3689,0.4426,0.4916,0.4916,0.4916,0.5284,0.6014,0.4426,0.4548,0.6137,0.6996,0.785,0.8587,0.9451,0.9774,0.9707,0.9639,0.9557,0.9469,0.932,0.9218,0.9144,0.9069,0.8994,0.894,0.894,0.894,0.894,0.894,0.894,0.894,0.894,0.894,0.894,0.894,0.894,0.894,0.894,0.8879,0.8818,0.8818,0.8703,0.8587,0.8587,0.8533,0.8459,0.8384,0.837,0.8343,0.8262,0.8255,0.8255,0.8255,0.8194,0.8147,0.8147,0.8085,0.8038,0.8038,0.8038,0.8038,0.8038,0.8038,0.8038,0.8038,0.8038,0.8038,0.8038,0.8038,0.8038,0.8038,0.8038,0.8038,0.8038,0.8038,0.8038,0.9822,0.9822,0.9822,0.9822,0.9822,0.9822,0.9822,0.8714,0.785,0.785,0.6263,0.4916,0.4916,0.4916,0.4916,0.4916,0.4916,0.4916,0.4916,0.4916,0.4916,0.4916,0.4916,0.4916,0.4916,0.4916,0.0,0.0,0.0,0.4916,0.4916,0.4916,0.4916,0.4916,0.5161,0.5284,0.5284,0.5651,0.5774,0.5774,0.5774,0.6508,0.7728,0.6385,0.6508,0.785,0.785,0.8587,0.9822,0.9822,0.9822,0.9808,0.9693,0.9646,0.9625,0.9476,0.934,0.9225,0.9205,0.9096,0.8974,0.8974,0.896,0.894,0.894,0.894,0.894,0.894,0.894,0.894,0.894,0.894,0.894,0.894,0.894,0.894,0.894,0.8838,0.875,0.875,0.8628,0.852,0.852,0.8499,0.8479,0.8479,0.8479,0.8479,0.8479,0.8377,0.8309,0.8309,0.8194,0.8113,0.8113,0.8113,0.8113,0.8113,0.8113,0.8113,0.8113,0.8113,0.8113,0.8113,0.8065,0.8038,0.8038,0.8038,0.8038,0.8038,0.8038,0.8038,0.9822,0.9822,0.9822,0.9822,0.9822,0.9822,0.9822,0.9572,0.9451,0.9451,0.6996,0.4916,0.4916,0.4916,0.4916,0.4916,0.4916,0.4916,0.4916,0.4916,0.4916,0.4916,0.4916,0.4916,0.4916,0.4916,0.0,0.0,0.4916,0.4916,0.4916,0.4916,0.4916,0.4916,0.6259,0.7113,0.7113,0.8465,0.9207,0.9207,0.9207,0.9207,0.9451,0.9207,0.9329,0.9451,0.9451,0.9572,0.9822,0.9822,0.9822,0.9822,0.9802,0.9795,0.9774,0.9632,0.9564,0.953,0.9395,0.9252,0.9123,0.9123,0.9042,0.894,0.894,0.894,0.894,0.894,0.894,0.894,0.894,0.894,0.894,0.894,0.894,0.894,0.894,0.892,0.8906,0.8906,0.8784,0.8682,0.8682,0.8567,0.8479,0.8479,0.8479,0.8479,0.8479,0.8465,0.8452,0.8452,0.8438,0.8425,0.8425,0.8425,0.8425,0.8425,0.8425,0.8425,0.8425,0.8425,0.8425,0.8425,0.8174,0.8038,0.8038,0.8038,0.8038,0.8038,0.8038,0.8038,0.9822,0.9822,0.9822,0.9822,0.9822,0.9822,0.9822,0.9822,0.9822,0.9822,0.8593,0.7612,0.7612,0.7612,0.7612,0.7612,0.7612,0.7612,0.7612,0.7612,0.7612,0.7612,0.7612,0.7612,0.7612,0.7612,0.0,0.0,0.7612,0.7612,0.7612,0.7612,0.7612,0.7612,0.8343,0.8714,0.8714,0.9451,0.9822,0.9822,0.9822,0.9822,0.9822,0.9822,0.9822,0.9822,0.9822,0.9822,0.9822,0.9822,0.9822,0.9822,0.9822,0.9822,0.9815,0.9747,0.968,0.9598,0.953,0.9408,0.9279,0.9279,0.9178,0.9055,0.9055,0.9001,0.894,0.894,0.894,0.894,0.894,0.894,0.894,0.894,0.894,0.894,0.894,0.894,0.894,0.894,0.8886,0.8838,0.8838,0.8784,0.8737,0.8737,0.8737,0.8737,0.8737,0.8662,0.8608,0.8608,0.8533,0.8479,0.8479,0.8479,0.8479,0.8479,0.8479,0.8479,0.8479,0.8479,0.8479,0.8479,0.8357,0.8289,0.8289,0.8208,0.8167,0.8167,0.8079,0.8038,0.9822,0.9822,0.9822,0.9822,0.9822,0.9822,0.9822,0.9822,0.9822,0.9822,0.9822,0.9822,0.9822,0.9822,0.9822,0.9822,0.9822,0.9822,0.9822,0.9822,0.9822,0.9822,0.9822,0.9822,0.9822,0.9822,0.0,0.0,0.9822,0.9822,0.9822,0.9822,0.9822,0.9822,0.9822,0.9822,0.9822,0.9822,0.9822,0.9822,0.9822,0.9822,0.9822,0.9822,0.9822,0.9822,0.9822,0.9822,0.9822,0.9822,0.9822,0.9822,0.9822,0.9822,0.9822,0.9822,0.9754,0.9659,0.9659,0.9564,0.9442,0.9442,0.9334,0.9211,0.9211,0.911,0.8994,0.8994,0.8967,0.894,0.894,0.894,0.894,0.894,0.894,0.894,0.894,0.894,0.894,0.894,0.894,0.894,0.894,0.894,0.894,0.894,0.894,0.894,0.894,0.8838,0.8771,0.8771,0.8669,0.8601,0.8601,0.8601,0.8601,0.8601,0.8601,0.8601,0.8601,0.8601,0.8601,0.8601,0.8601,0.856,0.8479,0.8377,0.8323,0.8323,0.8208,0.8153,0.9822,0.9822,0.9822,0.9822,0.9822,0.9822,0.9822,0.9822,0.9822,0.9822,0.9822,0.9822,0.9822,0.9822,0.9822,0.9822,0.9822,0.9822,0.9822,0.9822,0.9822,0.9822,0.9822,0.9822,0.9822,0.9822,0.0,0.0,0.9822,0.9822,0.9822,0.9822,0.9822,0.9822,0.9822,0.9822,0.9822,0.9822,0.9822,0.9822,0.9822,0.9822,0.9822,0.9822,0.9822,0.9822,0.9822,0.9822,0.9822,0.9822,0.9822,0.9822,0.9822,0.9822,0.9822,0.9822,0.9815,0.9808,0.9808,0.972,0.9598,0.9598,0.9496,0.9367,0.9367,0.9266,0.9144,0.9144,0.9042,0.894,0.894,0.894,0.894,0.894,0.894,0.894,0.894,0.894,0.894,0.894,0.894,0.894,0.894,0.894,0.894,0.894,0.894,0.894,0.894,0.8933,0.8927,0.8927,0.892,0.8913,0.8913,0.8913,0.8913,0.8913,0.8913,0.8913,0.8913,0.8913,0.8913,0.8913,0.8913,0.8771,0.8479,0.8472,0.8472,0.8472,0.8465,0.8459,0.9822,0.9822,0.9822,0.9822,0.9822,0.9822,0.9822,0.9822,0.9822,0.9822,0.9822,0.9822,0.9822,0.9822,0.9822,0.9822,0.9822,0.9822,0.9822,0.9822,0.9822,0.9822,0.9822,0.9822,0.9822,0.9822,0.0,0.0,0.0,0.9822,0.9822,0.9822,0.9822,0.9822,0.9822,0.9822,0.9822,0.9822,0.9822,0.9822,0.9822,0.9822,0.9822,0.9822,0.9822,0.9822,0.9822,0.9822,0.9822,0.9822,0.9822,0.9822,0.9822,0.9822,0.9822,0.9822,0.9822,0.9822,0.9822,0.9788,0.9747,0.9747,0.9646,0.953,0.953,0.9422,0.93,0.93,0.9266,0.9198,0.9103,0.9076,0.9055,0.896,0.894,0.894,0.894,0.894,0.894,0.894,0.894,0.894,0.894,0.894,0.894,0.894,0.894,0.894,0.894,0.894,0.894,0.894,0.894,0.894,0.894,0.894,0.894,0.894,0.894,0.894,0.894,0.894,0.894,0.894,0.894,0.8886,0.8777,0.8676,0.8628,0.8628,0.8526,0.8479,0.9822,0.9822,0.9822,0.9822,0.9822,0.9822,0.9822,0.9822,0.9822,0.9822,0.9822,0.9822,0.9822,0.9822,0.9822,0.9822,0.9822,0.9822,0.9822,0.9822,0.9822,0.9822,0.9822,0.9822,0.9822,0.9822,0.0,0.0,0.0,0.0,0.9822,0.9822,0.9822,0.9822,0.9822,0.9822,0.9822,0.9822,0.9822,0.9822,0.9822,0.9822,0.9822,0.9822,0.9822,0.9822,0.9822,0.9822,0.9822,0.9822,0.9822,0.9822,0.9822,0.9822,0.9822,0.9822,0.9822,0.9822,0.9822,0.9822,0.9822,0.9822,0.9754,0.968,0.968,0.9578,0.9456,0.9456,0.9422,0.9361,0.9259,0.9232,0.9205,0.911,0.9089,0.9076,0.9022,0.8974,0.894,0.894,0.894,0.894,0.894,0.894,0.894,0.894,0.894,0.894,0.894,0.894,0.894,0.894,0.894,0.894,0.894,0.894,0.894,0.894,0.894,0.894,0.894,0.9375,0.9588,0.9588,1.0131,1.0351,1.0351,0.9268,0.9001,0.9529,0.889,0.8635,0.0,0.0,0.0,0.9822,0.9822,0.9822,0.9822,0.9822,0.9822,0.9822,0.9822,0.9822,0.9822,0.9822,0.9822,0.9822,0.9822,0.9822,0.9822,0.9822,0.9822,0.9822,0.9822,0.9822,0.9822,0.9822,0.0,0.0,0.9822,0.9822,0.9822,0.9822,0.9822,0.9822,0.9822,0.9822,0.9822,0.9822,0.9822,0.9822,0.9822,0.9822,0.9822,0.9822,0.9822,0.9822,0.9822,0.9822,0.9822,0.9822,0.9822,0.9822,0.9822,0.9822,0.9822,0.9822,0.9822,0.9822,0.9822,0.9822,0.9822,0.9822,0.9822,0.9822,0.9822,0.9727,0.9618,0.9618,0.951,0.9395,0.9388,0.9388,0.9381,0.9381,0.9381,0.934,0.9191,0.9049,0.8947,0.894,0.894,0.894,0.894,0.894,0.894,0.894,0.894,0.894,0.894,0.894,0.894,0.894,0.894,0.894,0.894,0.894,0.894,0.894,0.894,0.894,0.894,1.0351,1.1109,1.1,1.2507,1.3264,1.3264,1.0351,0.9809,1.1109,0.9699,0.9044,0.9822,0.0,0.0,0.0,0.0,0.0,0.9822,0.9822,0.9822,0.9822,0.9822,0.9822,0.9822,0.9822,0.9822,0.9822,0.9822,0.9822,0.9822,0.9822,0.9822,0.9822,0.9822,0.9822,0.9822,0.0,0.0,0.0,0.9822,0.9822,0.9822,0.9822,0.9822,0.9822,0.9822,0.9822,0.9822,0.9822,0.9822,0.9822,0.9822,0.9822,0.9822,0.9822,0.9822,0.9822,0.9822,0.9822,0.9822,0.9822,0.9822,0.9822,0.9822,0.9822,0.9822,0.9822,0.9822,0.9822,0.9822,0.9822,0.9822,0.9822,0.9822,0.9822,0.9822,0.9795,0.9761,0.9761,0.9734,0.9673,0.9571,0.9462,0.9381,0.9381,0.9381,0.9367,0.9327,0.9286,0.9198,0.8981,0.894,0.894,0.894,0.894,0.894,0.894,0.894,0.894,0.894,0.894,0.894,0.894,0.894,0.894,0.894,0.894,0.894,0.894,0.894,0.894,0.894,1.0351,1.0562,0.9478,1.1,1.1755,1.1755,1.1973,1.229,1.2724,1.2299,1.2082,0.9836,0.9822,0.9822,0.9822,0.0,0.0,0.9822,0.9822,0.9822,0.9822,0.9822,0.9822,0.9822,0.9822,0.9822,0.9822,0.9822,0.9822,0.9822,0.9822,0.9822,0.9822,0.9822,0.9822,0.9822,0.9822,0.9822,0.9822,0.9822,0.9822,0.9822,0.9822,0.9822,0.9822,0.9822,0.9822,0.9822,0.9822,0.9822,0.9822,0.9822,0.9822,0.9822,0.9822,0.9822,0.9822,0.9822,0.9822,0.9822,0.9822,0.9822,0.9822,0.9822,0.9822,0.9822,0.9822,0.9822,0.9822,0.9822,0.9822,0.9822,0.9822,0.9822,0.9822,0.9822,0.9822,0.9822,0.9822,0.9822,0.9802,0.972,0.9632,0.9564,0.9564,0.9564,0.9551,0.949,0.9476,0.9408,0.9171,0.9123,0.9123,0.9123,0.9123,0.9103,0.9035,0.9579,0.9883,0.9816,1.0351,1.0781,1.0781,1.0781,1.0781,1.0781,1.0781,1.0781,1.0781,1.0781,1.0781,1.0781,1.2073,1.2507,1.1647,1.3048,1.3804,1.3804,1.2832,1.2724,1.3264,1.3911,1.3911,0.989,0.9842,0.9842,0.9822,0.9822,0.0,0.9822,0.9822,0.9822,0.9822,0.9822,0.9822,0.9822,0.9822,0.9822,0.9822,0.9822,0.9822,0.9822,0.9822,0.9822,0.9822,0.9822,0.9822,0.9822,0.9822,0.9822,0.9822,0.9822,0.9822,0.9822,0.9822,0.9822,0.9822,0.9822,0.9822,0.9822,0.9822,0.9822,0.9822,0.9822,0.9822,0.9822,0.9822,0.9822,0.9822,0.9822,0.9822,0.9822,0.9822,0.9822,0.9822,0.9822,0.9822,0.9822,0.9822,0.9822,0.9822,0.9822,0.9822,0.9822,0.9822,0.9822,0.9822,0.9822,0.9822,0.9822,0.9822,0.9822,0.9822,0.9822,0.9822,0.9822,0.9822,0.9822,0.9788,0.9898,0.987,0.9947,0.9916,0.9634,0.9381,0.9381,0.9381,0.9334,0.9198,1.0288,1.1011,1.0974,1.2037,1.29,1.3128,1.3118,1.3227,1.3335,1.3335,1.3325,1.3305,1.3305,1.3295,1.3264,1.4663,1.5304,1.5198,1.6605,1.7371,1.7371,1.3588,1.2507,1.3804,1.5091,1.4984,0.0,0.0,0.0,0.0,0.9822,0.0,0.9822,0.9822,0.9822,0.9822,0.9822,0.9822,0.9822,0.9822,0.9822,0.9822,0.9822,0.9822,0.9822,0.9822,0.9822,0.9822,0.9822,0.9822,0.9822,0.9822,0.9822,0.9822,0.9822,0.9822,0.9822,0.9822,0.9822,0.9822,0.9822,0.9822,0.9822,0.9822,0.9822,0.9822,0.9822,0.9822,0.9822,0.9822,0.9822,0.9822,0.9822,0.9822,0.9822,0.9822,0.9822,0.9822,0.9822,0.9822,0.9822,0.9822,0.9822,0.9822,0.9822,0.9822,0.9822,0.9822,0.9822,0.9822,0.9822,0.9822,0.9822,0.9822,0.9822,0.9822,0.9822,0.9822,0.9822,0.9822,0.9822,1.0172,1.1455,1.1687,1.2038,1.3296,1.1286,0.9381,0.9381,0.9381,0.9367,0.934,0.9564,0.9781,0.9752,0.9975,1.0654,1.1898,1.2125,1.257,1.379,1.3902,1.3831,1.3648,1.3637,1.3556,1.3275,1.4663,1.4877,1.3696,1.5091,1.5849,1.5849,1.6168,1.6499,1.6817,1.7041,1.7041,0.0,0.0,0.0,0.9958,0.0,0.0,0.0,0.9822,0.9822,0.9822,0.9822,0.9822,0.9822,0.9822,0.9822,0.9822,0.9822,0.9822,0.9822,0.9822,0.9822,0.9822,0.9822,0.9822,0.9822,0.9822,0.9822,0.9822,0.9822,0.9822,0.9822,0.9822,0.9822,0.9822,0.9822,0.9822,0.9822,0.9822,0.9822,0.9822,0.9822,0.9822,0.9822,0.9822,0.9822,0.9822,0.9822,0.9822,0.9822,0.9822,0.9822,0.9822,0.9822,0.9822,0.9822,0.9822,0.9822,0.9822,0.9822,0.9822,0.9822,0.9822,0.9822,0.9822,0.9822,0.9822,0.9822,0.9822,0.9822,0.9822,0.9822,0.9822,0.9822,0.9822,0.9822,1.0058,1.0778,1.102,1.1261,1.2097,1.0771,1.0066,1.1711,1.1938,1.2021,1.1927,1.249,1.2906,1.2803,1.3477,1.4282,1.5074,1.5186,1.5412,1.6198,1.631,1.6263,1.6133,1.6121,1.6062,1.5932,1.6587,1.6525,1.5623,1.639,1.665,1.6499,1.7252,1.7582,1.7582,1.7582,1.7582,0.0,0.0,0.0,0.0,0.0,0.9856,0.0,0.0,0.0,0.9822,0.9822,0.9822,0.9822,0.9822,0.9822,0.9822,0.9822,0.9822,0.9822,0.9822,0.0,0.9822,0.9822,0.0,0.9822,0.9822,0.9822,0.9822,0.9822,0.9822,0.9822,0.9822,0.9822,0.9822,0.9822,0.9822,0.9822,0.9822,0.9822,0.9822,0.9822,0.9822,0.9822,0.9822,0.9822,0.9822,0.9822,0.9822,0.9822,0.9822,0.9822,0.9822,0.9822,0.9822,0.9822,0.9822,0.9822,0.9822,0.9822,0.9822,0.9822,0.9822,0.9822,0.9822,0.9822,0.9822,0.9822,0.9822,0.9822,0.9822,0.9822,0.9822,0.9822,0.9822,0.9822,0.9943,1.0179,1.0543,1.0778,1.1133,1.1495,1.2209,1.3885,1.4123,1.4183,1.4356,1.5373,1.6115,1.6023,1.704,1.7853,1.819,1.819,1.8315,1.8664,1.8664,1.8637,1.8584,1.8571,1.8544,1.849,1.849,1.837,1.813,1.813,1.8009,1.7756,1.7702,1.7635,1.7582,1.7582,1.7582,0.0,0.0,0.0,0.0,1.0039,0.0,0.9849,0.0,0.9822,0.9822,0.0,0.9822,0.9822,0.0,0.0,0.9822,0.9822,0.9822,0.9822,0.9822,0.9822,0.9822,0.9822,0.0,0.0,0.9822,0.9822,0.9822,0.9822,0.9822,0.9822,0.9822,0.9822,0.9822,0.9822,0.9822,0.9822,0.9822,0.9822,0.9822,0.9822,0.9822,0.9822,0.9822,0.9822,0.9822,0.9822,0.9822,0.9822,0.9822,0.9822,0.9822,0.9822,0.9822,0.9822,0.9822,0.9822,0.9822,0.9822,0.9822,0.9822,0.9822,0.9822,0.9822,0.9822,0.9822,0.9822,0.9822,0.9822,0.9822,0.9822,0.9822,0.9822,0.9822,0.9822,1.0179,1.1615,1.3048,1.448,1.5902,1.7325,1.7091,1.3168,1.2449,1.2928,1.4331,1.4677,1.4795,1.4765,1.5001,1.559,1.6996,1.7113,1.7707,1.915,1.9265,1.9158,1.8891,1.8878,1.8758,1.8504,1.849,1.8477,1.8437,1.8437,1.8424,1.8384,1.8116,1.7849,1.7582,1.7582,1.7582,0.0,0.0,0.0,0.0,0.0,0.0,0.9985,0.0,0.993,0.0,0.0,0.0,0.0,0.0,0.0,0.0,0.9822,0.9822,0.9822,0.9822,0.9822,0.9822,0.0,0.0,0.0,0.0,0.0,0.0,0.9822,0.9822,0.9822,0.9822,0.9822,0.9822,0.9822,0.9822,0.9822,0.9822,0.9822,0.9822,0.9822,0.9822,0.9822,0.9822,0.9822,0.9822,0.9822,0.9822,0.9822,0.9822,0.9822,0.9822,0.9822,0.9822,0.9822,0.9822,0.9822,0.9822,0.9822,0.9822,0.9822,0.9822,0.9822,0.9822,0.9822,0.9822,0.9822,0.9822,0.9822,0.9822,0.9822,1.0543,1.114,1.114,1.1856,1.2808,1.3407,1.4123,1.4837,1.5429,1.6149,1.6267,1.5182,1.5784,1.6621,1.7337,1.7337,1.7337,1.7337,1.7337,1.7689,1.8286,1.8402,1.8648,1.9359,1.9372,1.9319,1.9185,1.9185,1.9118,1.9011,1.8998,1.8918,1.8744,1.8744,1.8664,1.849,1.837,1.8237,1.8103,1.7742,1.7582,1.0717,0.0,0.0,0.0,0.0,0.0,0.0,0.0,0.0,0.0,0.0,0.0,0.0,0.0,0.0,0.0,0.0,0.9822,0.9822,0.9822,0.9822,0.0,0.0,0.0,0.0,0.0,0.0,0.0,0.0,0.9822,0.9822,0.9822,0.9822,0.9822,0.9822,0.9822,0.9822,0.9822,0.9822,0.9822,0.9822,0.9822,0.9822,0.9822,0.9822,0.9822,0.9822,0.9822,0.9822,0.9822,0.9822,0.9822,0.9822,0.9822,0.9822,0.9822,0.9822,0.9822,0.9822,0.9822,0.9822,0.9822,0.9822,0.9943,1.0301,1.0422,1.0536,1.102,1.114,1.114,1.114,1.1976,1.2808,1.2808,1.3765,1.4599,1.4599,1.4955,1.5311,1.5311,1.5548,1.6267,1.7443,1.8286,1.8881,1.9372,1.9372,1.9372,1.9372,1.9372,1.9372,1.9372,1.9372,1.9372,1.9372,1.9372,1.9372,1.9372,1.9372,1.9372,1.9372,1.9372,1.9265,1.9052,1.9052,1.8945,1.8731,1.8651,1.8611,1.8597,1.8076,1.7782,0.0,0.0,0.0,1.0527,0.0,0.0,0.0,0.0,1.0229,0.0,0.0,0.0,0.0,0.0,0.0,0.0,0.0,0.0,0.0,0.9822,0.9822,0.9822,0.0,0.0,0.0,0.0,0.0,0.0,0.0,0.0,0.9822,0.9822,0.9822,0.9822,0.9822,0.9822,0.9822,0.9822,0.9822,0.9822,0.9822,0.9822,0.9822,0.9822,0.9822,0.9822,0.9822,0.9822,0.9822,0.9822,0.9822,0.9822,0.9822,0.9822,0.9822,0.9822,0.9822,0.9822,0.9822,0.9822,0.9822,0.9822,0.9822,1.0058,1.1615,1.2097,1.2457,1.4004,1.448,1.448,1.448,1.448,1.448,1.448,1.4599,1.4599,1.4599,1.5784,1.6962,1.6962,1.8169,1.9243,1.9359,1.804,1.7572,1.9127,1.9372,1.9372,1.9372,1.9372,1.9372,1.9372,1.9372,1.9372,1.9372,1.9372,1.9372,1.9372,1.9372,1.9372,1.9372,1.9372,1.9359,1.9359,1.9359,1.9345,1.9332,1.9052,1.8905,1.8905,1.8597,1.8303,0.0,0.0,1.0711,1.0656,0.0,0.0,0.0,0.0,0.0,0.0,0.0,0.0,0.0,0.0,0.0,0.0,0.0,0.0,0.0,0.9822,0.9822,0.9822,0.9822,0.9822,0.0,0.0,0.0,0.0,0.0,0.0,0.0,0.9822,0.9822,0.9822,0.9822,0.9822,0.9822,0.9822,0.9822,0.9822,0.9822,0.9822,0.9822,0.9822,0.9822,0.9822,0.9822,0.9822,0.9822,0.9822,0.9822,0.9822,0.9822,0.9822,0.9822,0.9822,0.9822,0.9822,0.9822,0.9822,0.9822,0.9822,0.9822,0.9943,1.0422,1.0664,1.0778,1.1261,1.2217,1.3048,1.3048,1.4599,1.6138,1.6138,1.6973,1.7818,1.7818,1.8169,1.8648,1.8648,1.901,1.9372,1.9372,1.8997,1.8765,1.9359,1.9372,1.9372,1.9372,1.9372,1.9372,1.9372,1.9372,1.9372,1.9372,1.9372,1.9372,1.9372,1.9372,1.9372,1.9372,1.9372,1.9372,1.9372,1.9372,1.9372,1.9372,1.9265,1.9212,1.9212,1.9118,1.8811,1.1023,1.0914,0.0,1.0799,1.0758,0.0,1.0595,0.0,0.0,0.0,0.0,0.0,0.0,0.0,0.0,0.0,0.0,0.0,0.0,0.9822,0.9822,0.9822,0.9822,0.9822,0.9822,0.0,0.0,0.0,0.0,0.0,0.0,0.0,0.9822,0.9822,0.9822,0.9822,0.9822,0.9822,0.9822,0.9822,0.9822,0.9822,0.9822,0.9822,0.9822,0.9822,0.9822,0.9822,0.9822,0.9822,0.9822,0.9822,0.9822,0.9822,0.9822,0.9822,0.9822,0.9822,0.9822,0.9822,0.9822,0.9822,0.9822,0.9943,1.0543,1.102,1.1495,1.1495,1.2689,1.3765,1.3168,1.5074,1.6962,1.6962,1.8286,1.9372,1.9372,1.9372,1.9372,1.9372,1.9372,1.9372,1.9372,1.9372,1.9372,1.9372,1.9372,1.9372,1.9372,1.9372,1.9372,1.9372,1.9372,1.9372,1.9372,1.9372,1.9372,1.9372,1.9372,1.9372,1.9372,1.9372,1.9372,1.9372,1.9372,1.9372,1.9372,1.9372,1.9372,1.9372,1.9372,1.9158]},{"header":{"parameterUnit":"m.s-1","parameterCategory":1,"la1":30.6,"la2":29.2853,"lo1":-89.7004,"lo2":-87.6739,"dy":0.0162,"dx":0.0183,"nx":112,"ny":82,"refTime":"2023-04-20T06:00:00:Z","depth":0,"parameterNumber":3,"parameterNumberName":"V-component_of_WINDS"},"data":[0.0,0.0,0.0,0.0,0.0,0.0,0.0,0.0,0.0,0.0,0.0,0.0,0.0,0.0,0.0,0.0,0.0,0.0,0.0,0.0,0.0,0.0,0.0,0.0,0.0,0.0,0.0,0.0,0.0,0.0,0.0,0.0,0.0,0.0,0.0,0.0,0.0,0.0,0.0,0.0,0.0,0.0,0.0,0.0,0.0,0.0,0.0,0.0,0.0,0.0,0.0,0.0,0.0,0.0,0.0,0.0,0.0,0.0,0.0,0.0,0.0,0.0,0.0,0.0,0.0,0.0,0.0,0.0,0.0,0.0,0.0,0.0,0.0,0.0,0.0,0.0,0.0,0.0,0.0,0.0,0.0,0.0,0.0,0.0,0.0,0.0,0.0,0.0,0.0,0.0,3.0687,3.2422,3.3264,3.3788,3.3956,3.338,3.1364,2.7604,0.0,0.0,0.0,0.0,0.0,0.0,0.0,0.0,0.0,0.0,0.0,0.0,0.0,0.0,0.0,0.0,0.0,0.0,0.0,0.0,0.0,0.0,0.0,0.0,0.0,0.0,0.0,0.0,0.0,0.0,0.0,0.0,0.0,0.0,0.0,0.0,0.0,0.0,0.0,0.0,0.0,0.0,0.0,0.0,0.0,0.0,0.0,0.0,0.0,0.0,0.0,0.0,0.0,0.0,0.0,0.0,0.0,0.0,0.0,0.0,0.0,0.0,0.0,0.0,0.0,0.0,0.0,0.0,0.0,0.0,0.0,0.0,0.0,0.0,0.0,0.0,0.0,0.0,0.0,0.0,0.0,0.0,0.0,0.0,0.0,0.0,0.0,0.0,0.0,0.0,0.0,0.0,0.0,0.0,0.0,0.0,0.0,0.0,0.0,0.0,0.0,0.0,0.0,0.0,3.1799,3.3811,3.4088,3.4612,3.5643,3.5093,3.3243,2.9733,0.0,0.0,0.0,0.0,0.0,0.0,0.0,0.0,0.0,0.0,0.0,0.0,0.0,0.0,0.0,0.0,0.0,0.0,0.0,0.0,0.0,0.0,0.0,0.0,0.0,0.0,0.0,0.0,0.0,0.0,0.0,0.0,0.0,0.0,0.0,0.0,0.0,0.0,0.0,0.0,0.0,0.0,0.0,0.0,0.0,0.0,0.0,0.0,0.0,0.0,0.0,0.0,0.0,0.0,0.0,0.0,0.0,0.0,0.0,0.0,0.0,0.0,0.0,0.0,0.0,0.0,0.0,0.0,0.0,0.0,0.0,0.0,0.0,0.0,0.0,0.0,0.0,0.0,0.0,0.0,0.0,0.0,0.0,0.0,0.0,0.0,0.0,0.0,0.0,0.0,0.0,0.0,0.0,0.0,0.0,0.0,0.0,0.0,0.0,0.0,0.0,0.0,0.0,3.2329,3.3991,3.5307,3.5821,3.6322,3.6854,3.6456,3.5132,3.2676,2.8254,0.0,0.0,0.0,0.0,0.0,0.0,0.0,0.0,0.0,0.0,0.0,0.0,0.0,0.0,0.0,0.0,0.0,0.0,0.0,0.0,0.0,0.0,0.0,0.0,0.0,0.0,0.0,0.0,0.0,0.0,0.0,0.0,0.0,0.0,0.0,0.0,0.0,0.0,0.0,0.0,0.0,0.0,0.0,0.0,0.0,0.0,0.0,0.0,0.0,0.0,0.0,0.0,0.0,0.0,0.0,0.0,0.0,0.0,0.0,0.0,0.0,0.0,0.0,0.0,0.0,0.0,0.0,0.0,0.0,0.0,0.0,0.0,0.0,0.0,0.0,0.0,0.0,0.0,0.0,0.0,0.0,0.0,0.0,0.0,0.0,0.0,0.0,0.0,0.0,0.0,0.0,0.0,0.0,0.0,0.0,0.0,0.0,0.0,0.0,0.0,0.0,0.0,3.5138,3.6167,3.6794,3.7468,3.7931,3.8063,3.7838,3.6928,3.5187,3.1625,0.0,0.0,0.0,0.0,0.0,0.0,0.0,0.0,0.0,0.0,0.0,0.0,0.0,0.0,0.0,0.0,0.0,0.0,0.0,0.0,0.0,0.0,0.0,0.0,0.0,0.0,0.0,0.0,0.0,0.0,0.0,0.0,0.0,0.0,0.0,0.0,0.0,0.0,0.0,0.0,0.0,0.0,0.0,0.0,0.0,0.0,0.0,0.0,0.0,0.0,0.0,0.0,0.0,0.0,0.0,0.0,0.0,0.0,0.0,0.0,0.0,0.0,0.0,0.0,0.0,0.0,0.0,0.0,0.0,0.0,0.0,0.0,0.0,0.0,0.0,0.0,0.0,0.0,0.0,0.0,0.0,0.0,0.0,0.0,0.0,0.0,0.0,0.0,0.0,0.0,0.0,0.0,0.0,0.0,0.0,0.0,0.0,0.0,0.0,0.0,0.0,0.0,3.651,3.7675,3.8209,3.8551,3.891,3.9425,3.9449,3.8581,3.6571,3.4631,0.0,0.0,0.0,0.0,0.0,0.0,0.0,0.0,0.0,0.0,0.0,0.0,0.0,0.0,0.0,0.0,0.0,0.0,0.0,0.0,0.0,0.0,0.0,0.0,0.0,0.0,0.0,0.0,0.0,0.0,0.0,0.0,0.0,0.0,0.0,0.0,0.0,0.0,0.0,0.0,0.0,0.0,0.0,0.0,0.0,0.0,0.0,0.0,0.0,0.0,0.0,0.0,0.0,0.0,0.0,0.0,0.0,0.0,0.0,0.0,0.0,0.0,0.0,0.0,0.0,0.0,0.0,0.0,0.0,0.0,0.0,0.0,0.0,0.0,0.0,0.0,0.0,0.0,0.0,0.0,0.0,0.0,0.0,0.0,0.0,0.0,0.0,0.0,0.0,0.0,0.0,0.0,0.0,0.0,0.0,0.0,0.0,0.0,0.0,0.0,0.0,0.0,3.7076,3.7985,3.8686,3.9293,3.9795,4.006,4.0236,3.9785,3.849,0.0,0.0,0.0,0.0,0.0,0.0,0.0,0.0,0.0,0.0,0.0,0.0,0.0,0.0,0.0,0.0,0.0,0.0,0.0,0.0,0.0,0.0,0.0,0.0,0.0,0.0,0.0,0.0,0.0,0.0,0.0,0.0,0.0,0.0,0.0,0.0,0.0,0.0,0.0,0.0,0.0,0.0,0.0,0.0,0.0,0.0,0.0,0.0,0.0,0.0,0.0,0.0,0.0,0.0,0.0,0.0,0.0,0.0,0.0,0.0,0.0,0.0,0.0,0.0,0.0,0.0,0.0,0.0,0.0,0.0,0.0,0.0,0.0,0.0,0.0,0.0,0.0,0.0,0.0,0.0,0.0,0.0,0.0,0.0,0.0,0.0,0.0,0.0,0.0,0.0,0.0,0.0,0.0,0.0,0.0,0.0,0.0,0.0,0.0,0.0,0.0,0.0,3.7072,3.8025,3.881,3.9337,3.9967,4.0361,4.0416,4.0598,4.036,3.9561,0.0,0.0,0.0,0.0,0.0,0.0,0.0,0.0,0.0,0.0,0.0,0.0,0.0,0.0,0.0,0.0,0.0,0.0,0.0,0.0,0.0,0.0,0.0,0.0,0.0,0.0,0.0,0.0,0.0,0.0,0.0,0.0,0.0,0.0,0.0,0.0,0.0,0.0,0.0,0.0,0.0,0.0,0.0,0.0,0.0,0.0,0.0,0.0,0.0,0.0,0.0,0.0,0.0,0.0,0.0,0.0,0.0,0.0,0.0,0.0,0.0,0.0,0.0,0.0,0.0,0.0,0.0,0.0,0.0,0.0,0.0,0.0,0.0,0.0,0.0,0.0,0.0,0.0,0.0,0.0,0.0,0.0,0.0,0.0,0.0,0.0,0.0,0.0,0.0,0.0,0.0,0.0,0.0,0.0,0.0,0.0,0.0,0.0,0.0,0.0,0.0,0.0,3.8457,3.9618,4.0343,4.0229,4.0515,4.0645,4.0508,4.0508,4.021,0.0,0.0,0.0,0.0,0.0,0.0,0.0,0.0,0.0,0.0,0.0,0.0,0.0,0.0,0.0,0.0,0.0,0.0,0.0,0.0,0.0,0.0,0.0,0.0,0.0,0.0,0.0,0.0,0.0,0.0,0.0,0.0,0.0,0.0,0.0,0.0,0.0,0.0,0.0,0.0,0.0,0.0,0.0,0.0,0.0,0.0,0.0,0.0,0.0,0.0,0.0,0.0,0.0,0.0,0.0,0.0,0.0,0.0,0.0,0.0,0.0,0.0,0.0,0.0,0.0,0.0,0.0,0.0,0.0,0.0,0.0,0.0,0.0,0.0,0.0,0.0,0.0,0.0,0.0,0.0,0.0,0.0,0.0,0.0,0.0,0.0,0.0,0.0,0.0,0.0,0.0,0.0,0.0,0.0,0.0,0.0,0.0,0.0,0.0,0.0,0.0,0.0,0.0,3.9528,4.0118,4.0494,4.0547,4.0621,4.0684,4.071,4.07,4.0639,4.0447,0.0,0.0,0.0,0.0,0.0,0.0,0.0,0.0,0.0,0.0,0.0,0.0,0.0,0.0,0.0,0.0,0.0,0.0,0.0,0.0,0.0,0.0,0.0,0.0,0.0,0.0,0.0,0.0,0.0,0.0,0.0,0.0,0.0,0.0,0.0,0.0,0.0,0.0,0.0,0.0,0.0,0.0,0.0,0.0,0.0,0.0,0.0,0.0,0.0,0.0,0.0,0.0,0.0,0.0,0.0,0.0,0.0,0.0,0.0,0.0,0.0,0.0,0.0,0.0,0.0,0.0,0.0,0.0,0.0,0.0,0.0,0.0,0.0,0.0,0.0,0.0,0.0,0.0,0.0,0.0,0.0,0.0,0.0,0.0,0.0,0.0,0.0,0.0,0.0,0.0,0.0,0.0,0.0,0.0,0.0,0.0,0.0,0.0,0.0,0.0,0.0,0.0,4.0196,4.0461,4.066,4.0701,4.0694,4.0688,4.0682,4.0671,4.0684,4.0755,0.0,0.0,0.0,0.0,0.0,0.0,0.0,0.0,0.0,0.0,0.0,0.0,0.0,0.0,0.0,0.0,0.0,0.0,0.0,0.0,0.0,0.0,0.0,0.0,0.0,0.0,0.0,0.0,0.0,0.0,0.0,0.0,0.0,0.0,0.0,0.0,0.0,0.0,0.0,0.0,0.0,0.0,0.0,0.0,0.0,0.0,0.0,0.0,0.0,0.0,0.0,0.0,0.0,0.0,0.0,0.0,0.0,0.0,0.0,0.0,0.0,0.0,0.0,0.0,0.0,0.0,0.0,0.0,0.0,0.0,0.0,0.0,0.0,0.0,0.0,0.0,0.0,0.0,0.0,0.0,0.0,0.0,0.0,0.0,0.0,0.0,0.0,0.0,0.0,0.0,0.0,0.0,0.0,0.0,0.0,0.0,0.0,0.0,0.0,0.0,0.0,0.0,4.0411,4.0582,4.0723,4.0629,4.0604,4.0563,4.0438,4.0438,4.053,4.0667,0.0,0.0,0.0,0.0,0.0,0.0,0.0,0.0,0.0,0.0,0.0,0.0,0.0,0.0,0.0,0.0,0.0,0.0,0.0,0.0,0.0,0.0,0.0,0.0,0.0,0.0,0.0,0.0,0.0,0.0,0.0,0.0,0.0,0.0,0.0,0.0,0.0,0.0,0.0,0.0,0.0,0.0,0.0,0.0,0.0,0.0,0.0,0.0,0.0,0.0,0.0,0.0,0.0,0.0,0.0,0.0,0.0,0.0,0.0,0.0,4.0812,0.0,0.0,0.0,0.0,0.0,0.0,0.0,0.0,0.0,0.0,0.0,0.0,0.0,0.0,0.0,0.0,0.0,0.0,0.0,0.0,0.0,0.0,0.0,0.0,0.0,0.0,0.0,0.0,0.0,0.0,0.0,0.0,0.0,0.0,0.0,0.0,0.0,0.0,0.0,0.0,0.0,4.0476,4.0358,4.0245,4.0248,3.9986,3.9844,3.9781,4.0042,4.0227,4.0284,4.0539,0.0,0.0,0.0,0.0,0.0,0.0,0.0,0.0,0.0,0.0,0.0,0.0,0.0,0.0,0.0,0.0,0.0,0.0,0.0,0.0,0.0,0.0,0.0,0.0,0.0,0.0,0.0,0.0,0.0,0.0,0.0,0.0,0.0,0.0,0.0,0.0,0.0,0.0,0.0,0.0,0.0,0.0,0.0,0.0,0.0,0.0,0.0,0.0,0.0,0.0,0.0,0.0,0.0,0.0,0.0,0.0,0.0,0.0,0.0,0.0,4.0781,0.0,0.0,0.0,0.0,0.0,0.0,0.0,0.0,0.0,0.0,0.0,0.0,0.0,0.0,0.0,0.0,0.0,0.0,0.0,0.0,0.0,0.0,0.0,0.0,0.0,0.0,0.0,0.0,0.0,0.0,0.0,0.0,0.0,0.0,0.0,0.0,0.0,0.0,0.0,0.0,4.0366,4.0053,3.984,3.984,3.9709,3.958,3.958,3.9754,3.9865,3.9891,4.0059,0.0,0.0,0.0,0.0,0.0,0.0,0.0,0.0,0.0,0.0,0.0,0.0,0.0,0.0,0.0,0.0,0.0,0.0,0.0,0.0,0.0,0.0,0.0,0.0,0.0,0.0,0.0,0.0,0.0,0.0,0.0,0.0,0.0,0.0,0.0,0.0,0.0,0.0,0.0,0.0,0.0,0.0,0.0,0.0,0.0,0.0,0.0,0.0,0.0,0.0,0.0,0.0,0.0,4.077,4.0761,4.0761,4.0761,4.0761,4.0761,4.0761,4.0779,4.0789,4.0795,0.0,0.0,0.0,0.0,0.0,0.0,0.0,0.0,0.0,0.0,0.0,0.0,0.0,0.0,0.0,0.0,0.0,0.0,0.0,0.0,0.0,0.0,0.0,0.0,4.0595,4.0439,0.0,0.0,0.0,0.0,0.0,0.0,0.0,0.0,0.0,0.0,0.0,0.0,4.0087,3.9768,3.951,3.951,3.9462,3.9451,3.9451,3.95,3.951,3.951,3.9557,3.9731,0.0,0.0,0.0,0.0,0.0,0.0,0.0,0.0,0.0,0.0,0.0,0.0,0.0,0.0,0.0,0.0,0.0,0.0,0.0,0.0,0.0,0.0,0.0,0.0,0.0,0.0,0.0,0.0,0.0,0.0,0.0,0.0,4.096,4.0994,0.0,0.0,0.0,0.0,0.0,0.0,0.0,0.0,0.0,0.0,0.0,0.0,0.0,4.0821,4.0821,4.0752,4.0726,4.0726,4.059,4.0559,4.0559,4.0559,4.0559,4.0559,4.0559,0.0,4.0782,4.0804,0.0,0.0,0.0,0.0,0.0,0.0,0.0,0.0,0.0,0.0,0.0,0.0,0.0,0.0,0.0,0.0,0.0,0.0,0.0,0.0,0.0,0.0,4.0482,4.0511,4.0496,4.0496,0.0,4.0579,4.0699,4.0753,4.0555,0.0,0.0,0.0,0.0,0.0,0.0,0.0,3.97,3.9389,3.916,3.916,3.897,3.8803,3.8803,3.9045,3.916,3.916,3.9438,3.9603,3.9649,3.973,0.0,0.0,0.0,0.0,0.0,0.0,0.0,0.0,0.0,0.0,0.0,0.0,0.0,0.0,0.0,0.0,0.0,0.0,0.0,0.0,0.0,0.0,0.0,0.0,0.0,0.0,0.0,0.0,0.0,4.2444,4.2442,4.2357,4.2351,4.2351,0.0,0.0,0.0,0.0,0.0,0.0,0.0,0.0,0.0,4.2099,4.2099,4.2099,4.2099,4.2058,4.2054,4.2054,4.1979,4.197,4.1931,4.1431,4.1239,4.12,4.07,4.0535,4.0641,4.0721,4.0752,4.0772,0.0,0.0,0.0,0.0,4.0794,4.0766,4.0682,4.0652,0.0,0.0,0.0,0.0,0.0,0.0,0.0,0.0,0.0,0.0,0.0,0.0,0.0,4.0508,4.0389,4.0286,4.0286,4.0191,4.0145,0.0,4.0159,4.0001,4.0104,0.0,0.0,0.0,0.0,3.9411,3.9339,3.9073,3.8884,3.8884,3.8743,3.8689,3.8689,3.8803,3.8884,3.8884,3.899,3.9144,3.9314,3.9387,3.9608,0.0,0.0,0.0,0.0,0.0,0.0,0.0,0.0,0.0,0.0,0.0,0.0,0.0,0.0,0.0,0.0,0.0,0.0,0.0,0.0,0.0,0.0,0.0,0.0,0.0,0.0,0.0,0.0,4.3573,4.3494,4.3345,4.3365,4.3365,0.0,0.0,0.0,0.0,0.0,0.0,4.3181,4.3181,4.3163,4.3085,4.3085,4.3085,4.3085,4.3085,4.3085,4.3085,4.3085,4.3085,4.3085,4.2431,4.2124,4.2085,4.1431,4.1162,4.1139,4.0783,4.0642,4.0655,4.0723,4.0752,4.0733,4.0761,4.0752,4.0733,4.0733,4.0733,4.0733,4.0733,0.0,4.0779,4.0774,0.0,0.0,0.0,0.0,4.0587,4.0641,4.0588,4.0508,4.0508,4.0356,4.0214,4.0214,3.9944,3.9775,0.0,3.9709,3.9486,3.9618,0.0,0.0,0.0,0.0,3.898,3.898,3.8833,3.8689,3.8689,3.8689,3.8689,3.8689,3.8689,3.8689,3.8689,3.8689,3.8773,3.9017,3.898,3.92,3.9612,0.0,0.0,0.0,0.0,0.0,0.0,0.0,0.0,0.0,0.0,0.0,0.0,0.0,0.0,0.0,0.0,0.0,0.0,0.0,0.0,0.0,0.0,0.0,0.0,0.0,0.0,0.0,0.0,0.0,4.3233,4.3221,0.0,0.0,0.0,0.0,4.3221,4.3149,4.3118,4.3102,4.3102,4.3102,4.3085,4.3085,4.3085,4.3085,4.3085,4.3085,4.3085,4.3085,4.3085,4.3085,4.3047,4.3047,4.3047,4.3008,4.297,4.2854,4.1178,4.0485,4.0515,4.0655,4.0617,4.053,4.0655,4.0617,4.05,4.05,4.05,4.05,4.05,4.059,4.0738,4.0788,4.0782,0.0,0.0,4.0715,4.068,4.0545,4.0523,4.0508,4.0508,4.0508,4.0492,4.0492,4.0286,3.9982,0.0,3.9339,3.9212,3.9534,0.0,3.8833,3.909,3.8913,3.8719,3.8719,3.8689,3.8689,3.8689,3.8689,3.8689,3.8689,3.8689,3.8689,3.8689,3.8689,3.8689,3.8719,3.8719,3.8855,3.9133,3.916,0.0,0.0,0.0,0.0,0.0,0.0,0.0,0.0,0.0,0.0,0.0,0.0,0.0,0.0,0.0,0.0,0.0,0.0,0.0,0.0,0.0,0.0,0.0,0.0,0.0,0.0,0.0,0.0,4.4755,4.4739,0.0,4.4739,4.4739,4.4739,4.4739,4.4713,4.4701,4.4701,4.4701,4.4701,4.4701,4.4701,4.4701,4.4701,4.4701,4.4701,4.4701,4.4701,4.4701,4.4701,4.4124,4.3855,4.3855,4.3316,4.3085,4.3047,4.2431,4.2162,4.214,4.1624,4.1378,4.1293,4.0737,4.053,4.0508,4.0508,4.0508,4.0508,4.0508,4.053,4.0588,4.0617,4.0591,4.0578,4.0602,4.0574,4.0559,4.05,4.0508,4.0508,4.0508,4.0372,4.0176,3.9964,3.9671,3.9377,3.9073,3.9063,3.9133,3.9264,3.897,3.875,3.8833,3.8743,3.8689,3.8689,3.8689,3.8689,3.8689,3.8689,3.8689,3.8689,3.8689,3.8689,3.8689,3.8855,3.8961,3.8961,3.8961,3.898,3.908,3.908,3.9175,0.0,0.0,0.0,0.0,0.0,0.0,0.0,0.0,0.0,0.0,0.0,0.0,0.0,0.0,0.0,0.0,0.0,0.0,0.0,0.0,0.0,0.0,0.0,0.0,0.0,4.5815,4.5747,4.562,4.5586,4.5586,4.5586,4.5586,4.5586,4.5586,4.5586,4.5586,4.5586,4.5586,4.5586,4.5586,4.5586,4.5586,4.5586,4.5586,4.5586,4.5586,4.5586,4.5586,4.5586,4.5009,4.4739,4.4701,4.4162,4.3932,4.3932,4.3932,4.3932,4.3816,4.2701,4.2239,4.2162,4.1585,4.1393,4.1354,4.1046,4.0739,4.0508,4.0508,4.0508,4.0508,4.0508,4.0508,4.0508,4.0508,4.0508,4.0508,4.0508,4.0422,4.0372,4.0372,4.0139,3.9861,3.9664,3.9414,3.9223,3.9017,3.8961,3.8961,3.8961,3.8833,3.8689,3.8689,3.8689,3.8689,3.8689,3.8689,3.8689,3.8689,3.8689,3.8689,3.8689,3.8689,3.8689,3.8689,3.8961,3.908,3.908,3.908,3.908,3.908,3.9008,3.9063,3.9264,0.0,0.0,0.0,0.0,0.0,0.0,0.0,0.0,0.0,0.0,0.0,0.0,0.0,0.0,0.0,0.0,0.0,0.0,0.0,0.0,0.0,0.0,0.0,4.5909,4.5836,4.5747,4.562,4.5586,4.5586,4.5586,4.5586,4.5586,4.5586,4.5586,4.5586,4.5586,4.5586,4.5586,4.5586,4.5586,4.5586,4.5586,4.5586,4.5586,4.5586,4.5586,4.5586,4.5586,4.5586,4.5586,4.5586,4.5586,4.5586,4.5586,4.5586,4.5586,4.5432,4.3778,4.3124,4.3124,4.3124,4.3085,4.297,4.2124,4.1277,4.0585,4.0546,4.0546,4.0546,4.0508,4.0508,4.0508,4.0508,4.0508,4.0508,4.0508,4.0321,4.012,4.0081,3.984,3.958,3.958,3.958,3.9557,3.9557,3.91,3.8689,3.8689,3.8689,3.8689,3.8689,3.8689,0.0,3.8689,3.8689,3.8689,3.8689,3.8689,3.8719,3.8719,3.8719,3.8719,3.8719,3.899,3.9107,3.9107,3.9107,3.9107,3.908,3.8855,3.9027,3.958,0.0,0.0,0.0,0.0,0.0,0.0,0.0,0.0,0.0,0.0,0.0,0.0,0.0,0.0,0.0,0.0,0.0,0.0,0.0,0.0,0.0,4.59,4.5803,4.5718,4.568,4.5616,4.5603,4.5586,4.5586,4.5586,4.5586,4.5586,4.5586,4.5586,4.5586,4.5586,4.5586,4.5586,4.5586,4.5586,4.5586,4.5586,4.5586,4.5586,4.5586,4.5586,4.5586,4.5586,4.5586,4.5586,4.5586,4.5586,4.5586,4.5586,4.5586,4.5586,4.547,4.4393,4.397,4.3893,4.3316,4.3085,4.3085,4.2816,4.2585,4.2277,4.1662,4.1431,4.1316,4.07,4.0508,4.0508,4.0508,4.0508,4.0508,4.0508,4.0438,4.0339,4.0158,4.0022,3.9819,3.9339,3.9238,3.9197,3.8998,3.8803,3.8743,3.8961,3.8833,3.8689,3.8689,3.8689,0.0,3.8689,3.8855,3.8942,3.8719,3.8884,3.898,3.898,3.898,3.898,3.898,3.9524,3.9731,3.9462,3.9709,3.9618,3.9107,3.9275,3.9451,0.0,0.0,0.0,0.0,0.0,0.0,0.0,0.0,0.0,0.0,0.0,0.0,0.0,0.0,0.0,0.0,0.0,0.0,0.0,0.0,0.0,0.0,4.5859,4.5877,4.6121,4.5817,4.574,4.6086,4.6124,4.6278,4.6624,4.6663,4.6663,4.6663,4.6663,4.6663,4.6663,4.6663,4.6663,4.6663,4.6663,4.6471,4.6163,4.6124,4.597,4.5586,4.5586,4.5586,4.5586,4.5586,4.5586,0.0,4.5586,4.5586,4.5586,4.5586,4.5586,0.0,0.0,0.0,0.0,0.0,4.3932,4.3585,4.3585,4.3393,4.3008,4.2508,4.2354,4.2239,4.1739,4.1316,4.1046,4.1046,4.0777,4.0508,4.0508,4.0406,4.0304,4.0158,4.0002,3.9775,3.9389,3.9314,3.9238,3.91,0.0,0.0,3.9117,3.8884,3.8689,3.8689,3.8689,3.8689,3.8689,3.8933,3.9036,3.8884,3.9144,3.9314,3.9314,3.9314,0.0,0.0,0.0,4.0002,3.9819,4.0002,0.0,0.0,0.0,3.9462,0.0,0.0,0.0,0.0,4.0304,4.012,0.0,0.0,0.0,0.0,0.0,0.0,0.0,0.0,0.0,0.0,0.0,0.0,0.0,0.0,0.0,0.0,4.6073,4.6312,4.695,4.6355,4.6163,4.6932,4.7048,4.7317,4.8048,4.8086,4.8086,4.8086,4.8086,4.8086,4.8086,0.0,0.0,0.0,0.0,4.7778,4.7048,4.7048,4.6663,4.5855,4.5855,4.5855,4.5855,4.5855,4.5817,4.574,4.574,4.5701,4.5586,4.5586,4.5586,4.5586,4.5586,4.5586,4.5586,4.5586,4.5124,0.0,0.0,0.0,0.0,4.3278,4.3239,4.3201,4.3124,4.2547,4.197,4.197,4.1393,4.0777,4.0662,4.0475,4.0273,4.012,3.9861,3.9664,3.958,3.958,3.958,3.958,3.958,3.9486,3.9212,3.8942,3.875,3.8689,3.8689,0.0,3.8689,3.8933,3.908,3.908,0.0,0.0,3.9664,3.9664,3.9664,3.9664,3.9941,4.0101,4.012,4.0158,4.0002,3.9687,3.9364,3.9339,3.958,3.958,3.9754,4.0042,4.0339,4.0176,0.0,0.0,0.0,0.0,0.0,0.0,0.0,0.0,0.0,0.0,0.0,0.0,0.0,0.0,0.0,4.7946,4.7719,4.7717,4.7855,4.774,4.7663,4.7855,4.7855,4.7932,4.8086,4.8086,4.8086,4.8086,4.8086,4.8086,4.8086,4.8086,4.8086,4.8086,4.8086,4.8048,4.7855,4.7855,4.7778,4.7625,0.0,0.0,4.7625,4.7625,4.7278,4.6663,4.6663,4.624,4.5586,4.5586,4.5586,4.5586,4.5586,4.5586,4.5586,4.5586,4.547,4.5355,4.5355,4.524,4.5009,4.4316,4.4085,4.3932,4.3316,4.297,0.0,4.2854,4.2739,4.2431,4.1739,4.1514,4.1238,4.033,4.0042,3.9941,3.9664,3.958,3.958,3.958,3.958,3.9557,3.951,3.9249,3.8961,3.875,3.8689,3.8689,3.8689,3.8933,3.908,3.908,3.9389,3.9709,3.9982,4.0002,4.0002,4.0002,4.0042,4.0214,4.0406,4.0406,4.0304,4.0002,3.9962,3.9797,3.958,3.958,3.9603,3.9709,4.0042,4.0101,0.0,0.0,0.0,0.0,0.0,0.0,0.0,0.0,0.0,0.0,0.0,5.0801,4.987,0.0,4.9272,4.8337,4.8158,4.824,4.8702,4.874,4.874,4.874,4.874,4.8933,4.9356,4.9394,4.9394,4.9394,4.9394,4.9394,4.9394,4.9394,4.9394,4.9394,4.9394,4.9202,4.874,4.874,4.8548,4.8086,4.8086,4.8086,4.8086,4.8086,4.7894,4.7509,4.7509,4.724,4.6817,4.6432,4.597,4.5586,4.5586,4.5586,4.5586,4.5586,4.5586,4.5586,4.5586,4.5586,4.5509,4.5086,4.4932,4.4893,4.447,4.4047,4.3701,4.3701,4.3393,4.3008,4.2547,4.247,4.2206,4.1182,4.0955,4.0805,4.0196,4.0043,4.0043,4.0043,4.0043,4.0004,3.9861,3.9731,3.9524,3.9208,3.899,3.8913,3.8913,3.9171,3.9339,3.9339,3.9759,4.0139,4.0304,4.0304,4.0304,4.0304,4.0304,4.0356,4.0469,4.0508,4.0422,4.0304,4.0177,4.0022,3.984,3.984,3.984,3.984,4.0157,4.0139,0.0,0.0,0.0,0.0,0.0,0.0,0.0,5.1154,5.1133,5.1042,5.1008,5.0778,4.9969,4.9823,4.9544,4.8739,4.8625,4.8856,4.9548,4.9663,4.9663,4.9663,4.9663,4.9933,5.0625,5.0702,5.0702,5.0702,5.0702,5.0702,5.0702,5.0702,5.0702,5.0702,5.0702,5.0356,4.9663,4.9663,4.9317,4.8625,4.8625,4.8625,4.8625,4.8625,4.8509,4.8355,4.8163,4.8086,4.8048,4.7394,4.6624,4.5855,4.5855,4.574,4.5586,4.5586,4.5586,4.5586,4.5586,4.5586,4.5586,4.5586,4.5586,4.5586,4.5586,4.5124,4.4547,4.4547,4.4085,4.3547,4.3393,4.3316,4.3124,4.2277,4.1931,4.1623,4.0893,4.0623,4.0508,4.0508,4.0508,4.0422,4.0233,4.0196,4.0042,3.9687,3.9364,3.9186,3.9186,3.9414,3.9603,3.9709,4.0139,4.0438,4.0508,4.0508,4.0508,4.0508,4.0508,4.0508,4.0508,4.0508,4.0508,4.0508,4.0304,4.0177,4.012,4.012,4.0062,4.0002,4.0304,4.0194,5.1406,5.1406,5.1366,5.1261,5.1215,5.118,0.0,5.092,5.0903,5.0756,5.0758,5.0701,5.0605,5.0605,5.0548,5.0452,5.0394,5.0433,5.0548,5.0548,5.0548,5.0548,5.0548,5.0587,5.0702,5.0702,5.0702,5.0702,5.0702,5.0702,5.0702,5.0702,5.0702,5.0702,5.0702,5.0625,5.0548,5.0548,5.051,5.0394,5.0394,5.0394,5.0394,5.0394,4.9971,4.9202,4.8432,4.8086,4.8086,4.8009,4.7509,4.674,4.674,4.6278,4.5586,4.5586,4.5586,4.5586,4.5586,4.5586,4.5586,4.5586,4.5586,4.5586,4.5586,4.5509,4.5432,4.5432,4.5393,4.5124,4.4355,4.4162,4.397,4.3162,4.2354,4.1777,4.17,4.1046,4.0508,4.0508,4.0508,4.0508,4.0438,4.0476,4.0266,3.9709,3.9557,3.9534,3.9534,3.9557,3.9731,4.0002,4.0081,4.0251,4.0492,4.0508,4.0508,4.0508,4.0508,4.0508,4.0508,4.0508,4.0508,4.0508,4.0454,4.0339,4.012,4.012,3.9962,3.9649,4.0002,4.0251,5.1318,5.1274,5.1261,5.1154,5.1125,5.1083,5.0945,5.0889,5.0867,5.0721,5.0702,5.0702,5.0702,5.0702,5.0702,5.0702,5.0702,5.0702,5.0702,5.1087,5.1395,5.1395,5.1395,5.1202,5.0741,5.0702,5.0702,5.0702,5.0702,5.0702,5.0702,5.0702,5.0702,5.0702,5.0702,5.0702,5.0702,5.0702,5.0702,5.0702,5.0702,5.0702,5.0702,5.0702,5.051,5.0125,4.9779,4.9317,4.8856,4.8856,4.8355,4.7548,4.7086,4.6701,4.6317,4.5778,4.5586,4.5586,4.5586,4.5586,4.5586,4.5586,4.5586,4.5586,4.5586,4.5586,4.5586,4.5586,4.5586,4.5509,4.5163,4.5047,4.4855,4.4008,4.3508,4.3008,4.2008,4.1508,4.1123,4.0585,4.0508,4.0508,4.0508,4.0508,4.0422,4.0138,3.9984,3.9882,3.9882,3.9882,4.0022,4.0304,4.0339,4.0372,4.0508,4.0508,4.0508,4.0508,4.0508,4.0508,4.0508,4.0508,4.0508,4.0508,4.0508,4.0438,4.0339,4.0339,4.0317,4.0236,4.0317,4.0415,5.1258,5.1201,5.118,5.1084,5.1031,5.0996,5.0898,5.0851,5.0803,5.0702,5.0702,5.0702,5.0702,5.0702,5.0702,5.0702,5.0702,5.0779,5.101,5.1548,5.201,5.2241,5.2279,5.2049,5.1433,5.0971,5.0702,5.0702,5.0702,5.0702,5.0702,5.0702,5.0702,5.0702,5.0702,5.0702,5.0702,5.0702,5.0702,5.0702,5.0702,5.0702,5.0702,5.0702,5.0702,5.0702,5.0702,5.0317,4.974,4.974,4.924,4.8394,4.7817,4.7317,4.6817,4.6201,4.5817,4.5586,4.5586,4.5586,4.5586,4.5586,4.5586,4.5586,4.5586,4.5586,4.5586,4.5586,4.5586,4.5586,4.5586,4.5586,4.5432,4.4816,4.447,4.397,4.2739,4.2124,4.1623,4.0969,4.0662,4.0508,4.0508,4.0508,4.0508,4.0508,4.0339,4.0233,4.0233,4.0233,4.0286,4.0492,4.0508,4.0508,4.0508,4.0508,4.0508,4.0508,4.0508,4.0508,4.0508,4.0508,4.0508,4.0508,4.0508,4.0508,4.0508,4.053,4.0615,4.0692,4.063,4.0616,5.1258,5.1201,5.1167,5.0946,5.0903,5.0883,5.074,5.0721,5.0721,5.0702,5.0702,5.0702,5.0702,5.0702,5.0702,5.0702,5.0702,5.0971,5.1741,5.1895,5.2202,5.3049,5.3164,5.3164,5.3126,5.1664,5.0702,5.0702,5.0702,5.0702,5.0702,5.0702,5.0702,5.0702,5.0702,5.0702,5.0702,5.0702,5.0702,5.0702,5.0702,5.0702,5.0702,5.0702,5.0702,5.0702,5.0702,5.0664,5.0664,5.0664,5.0164,4.9356,4.9317,4.8317,4.6894,4.6894,4.6317,4.5586,4.5586,4.5586,4.5586,4.5586,4.5586,4.5586,4.5586,4.5586,4.5586,4.5586,4.5586,4.5586,4.5586,4.5586,4.5586,4.5547,4.4893,4.4278,4.4239,4.297,4.1777,4.1777,4.1085,4.0508,4.0508,4.0508,4.0508,4.0508,4.0469,4.0508,4.0508,4.0508,4.0508,4.0508,4.0508,4.0508,4.0508,4.0508,4.0508,4.0508,4.0508,4.0508,4.0508,4.0508,4.0508,4.0508,4.0508,4.0508,4.0508,4.0617,4.0692,4.0703,4.0761,4.0774,5.1375,5.1201,5.118,5.1074,5.102,5.1008,5.0985,5.0889,5.0819,5.0819,5.0738,5.0702,5.0702,5.0702,5.0702,5.0702,5.0702,5.0971,5.1779,5.2395,5.3087,5.3972,5.4049,5.4049,5.4049,5.3049,5.2356,5.2356,5.2356,5.2356,5.2356,5.2356,5.2087,5.151,5.151,5.1241,5.0702,5.0702,5.0702,5.0702,5.0702,5.0702,5.0702,5.0702,5.0702,5.0702,5.0702,5.0702,5.0702,5.0702,5.051,5.0202,4.9625,4.9048,4.8509,4.7894,4.7163,4.6394,4.5778,4.5586,4.5586,4.5586,4.5586,4.5586,4.5586,4.5586,4.5586,4.5586,4.5586,4.5586,4.5586,4.5586,4.5586,4.5586,4.5355,4.5009,4.4432,4.3855,4.3124,4.2008,4.1546,4.1162,4.0585,4.0508,4.0508,4.0508,4.0508,4.0508,4.0508,4.0508,4.0508,4.0508,4.0508,4.0508,4.0508,4.0508,4.0508,4.0508,4.0508,4.0508,4.0508,4.0508,4.0508,4.0508,4.0508,4.0508,4.0508,4.0617,4.071,4.0761,4.0805,4.085,5.1453,5.1201,5.1185,5.1122,5.1094,5.1094,5.1094,5.1023,5.0889,5.0889,5.0819,5.0756,5.0756,5.0756,5.0756,5.0756,5.0721,5.1087,5.2202,5.2856,5.3626,5.478,5.4934,5.4934,5.4934,5.4434,5.3857,5.3241,5.3203,5.3203,5.3203,5.3203,5.2933,5.2395,5.2356,5.1972,5.1125,5.1125,5.0971,5.0702,5.0702,5.0702,5.0702,5.0702,5.0702,5.0702,5.0702,5.0702,5.0702,5.0702,5.0702,5.0625,5.0087,4.9663,4.9317,4.8779,4.8048,4.7201,4.6355,4.5855,4.5586,4.5586,4.5586,4.5586,4.5586,4.5586,4.5586,4.5586,4.5586,4.5586,4.5586,4.5586,4.5586,4.5586,4.5586,4.5432,4.4893,4.4509,4.3893,4.2547,4.2008,4.1508,4.0662,4.0508,4.0508,4.0508,4.0508,4.0508,4.0508,4.0508,4.0508,4.0508,4.0508,4.0508,4.0508,4.0508,4.0508,4.0508,4.0508,4.0508,4.0508,4.0508,4.0508,4.0508,4.0508,4.0515,4.0574,4.0665,4.077,4.087,4.0939,4.0972,5.1574,5.1284,5.123,5.1139,5.1113,5.1113,5.1113,5.0996,5.0903,5.0918,5.0903,5.0889,5.0889,5.0889,5.0889,5.0874,5.0773,5.1279,5.2972,5.3203,5.3818,5.5511,5.5703,5.5703,5.5703,5.5703,5.5049,5.3433,0.0,5.3318,5.3318,5.3318,5.3318,5.328,5.328,5.2856,5.1972,5.1933,5.151,5.0702,5.0702,5.0702,5.0702,5.0702,5.0702,5.0702,5.0702,5.0702,5.0702,5.0702,5.0702,5.0702,5.0702,5.0202,4.9471,4.9471,4.8894,4.8048,4.7278,4.6432,4.5663,4.5663,4.5624,4.5586,4.5586,4.5586,4.5586,4.5586,4.5586,4.5586,4.5586,4.5586,4.5586,4.5586,4.5586,4.5586,4.5586,4.4932,4.4124,4.3278,4.2354,4.147,4.0623,4.0508,4.0508,4.0508,4.0508,4.0508,4.0508,4.0508,4.0508,4.0508,4.0508,4.0508,4.0508,4.0508,4.0508,4.0508,4.0508,4.0508,4.0508,4.0508,4.0508,4.0508,4.0523,4.0574,4.0703,4.077,4.087,4.1016,4.1129,4.1211,5.2732,5.2301,5.2144,5.1474,5.1316,5.1316,5.1316,5.1193,5.1074,5.1125,5.0992,5.0889,5.0889,5.0889,5.0883,5.0756,5.0721,5.1279,5.2972,5.3203,5.3818,5.5511,5.5703,5.5703,5.5703,5.5703,5.5511,5.5088,5.5049,5.5049,5.5049,5.5049,5.478,5.4203,5.4164,5.3741,5.2895,5.2241,5.151,5.0702,5.0702,5.0702,5.0702,5.0702,5.0702,5.0702,5.0702,5.0702,5.0702,5.0702,5.0702,5.0702,5.0702,5.0548,5.0356,5.0356,4.9817,4.9048,4.8817,4.7817,4.6586,4.6586,4.6124,4.5586,4.5586,4.5586,4.5586,4.5586,4.5586,4.5586,4.5586,4.5586,4.5586,4.5586,4.5586,4.5586,4.5586,4.5432,4.4816,4.3393,4.1854,4.0739,4.0546,4.0508,4.0508,4.0508,4.0508,4.0508,4.0508,4.0508,4.0508,4.0508,4.0508,4.0508,4.0508,4.0508,4.0508,4.0508,4.0508,4.0508,4.0508,4.0508,4.0508,4.0508,4.0615,4.0655,4.0703,4.0882,4.0964,4.1016,4.1129,4.1211,5.3633,5.3281,5.3164,5.2656,5.2266,5.207,5.2461,5.2117,5.181,5.225,5.1951,5.1558,5.1528,5.1244,5.0945,5.0825,5.074,5.1164,5.2472,5.2972,5.3703,5.5011,5.5472,5.5703,5.5703,5.5703,5.5703,5.5703,5.5703,5.5703,5.5703,5.5703,5.5472,5.5049,5.5011,5.4434,5.3203,5.201,5.1164,5.0702,5.0702,5.0702,5.0702,5.0702,5.0702,5.0702,0.0,5.0702,5.0702,5.0702,5.0702,5.0702,5.0702,5.0702,5.0702,5.0702,5.0394,4.9971,4.9971,4.9086,4.7894,4.7163,4.6586,4.6086,4.5701,4.5586,4.5586,4.5586,4.5586,4.5586,4.5586,4.5586,4.5586,4.5586,4.5586,4.5586,4.5586,4.5586,4.5086,4.3431,4.2008,4.0931,4.0546,4.0508,4.0508,4.0508,4.0508,4.0508,4.0508,4.0508,4.0508,4.0508,4.0508,4.0508,4.0508,4.0508,4.0508,4.0508,4.0508,4.0508,4.0508,4.0508,4.0508,4.0508,4.0617,4.0688,4.0752,4.0928,4.1026,4.1082,4.117,4.1211,5.4414,5.418,5.4141,5.4023,5.3437,5.3086,5.3828,5.3307,5.2884,5.3674,5.3201,5.2629,5.2511,5.1921,5.1353,5.1111,5.0945,5.1087,5.1818,5.2664,5.351,5.4395,5.5203,5.5703,5.5703,5.5703,5.5703,5.5703,5.5703,5.5703,5.5703,5.5703,5.5703,5.5703,5.5588,5.478,5.3241,5.1625,5.0818,5.0702,5.0702,5.0702,5.0702,5.0702,5.0702,5.0702,0.0,0.0,5.0702,5.0702,5.0702,5.0702,5.0702,5.0702,5.0702,5.0702,5.0702,5.0702,5.0702,5.0202,4.9317,4.774,4.7086,4.6778,4.6009,4.5701,4.5586,4.5586,4.5586,4.5586,4.5586,4.5586,4.5586,4.5586,4.5586,4.5586,4.5586,4.5509,4.497,4.3393,4.2393,4.1508,4.0662,4.0508,4.0508,4.0508,4.0508,4.0508,4.0508,4.0508,4.0508,4.0508,4.0508,4.0508,4.0508,4.0508,4.0508,4.0508,4.0508,4.0508,4.0508,4.0508,4.0508,4.0508,4.0642,4.0752,4.0821,4.0955,4.1082,4.1211,4.1211,4.1211,5.5312,5.5078,5.4883,5.418,5.3906,5.3828,5.3984,5.3776,5.3639,5.3903,5.3771,5.3582,5.3532,5.3346,5.288,5.2017,5.1794,5.1741,5.1895,5.2664,5.351,5.4395,5.5203,5.5703,5.5703,5.5703,5.5703,5.5703,5.5703,5.5703,5.5703,5.5703,5.5703,5.5703,5.5049,5.4203,5.3203,5.2202,5.1356,5.0702,5.0702,5.0702,5.0702,5.0702,5.0702,5.0702,5.0702,0.0,5.0702,5.0702,5.0702,5.0702,5.0702,5.0702,5.0702,5.0702,5.0702,5.0702,5.0702,5.0587,5.0317,4.9317,4.8048,4.6894,4.674,4.6163,4.5586,4.5586,4.5586,4.5586,4.5586,4.5586,4.5586,4.5586,4.5586,4.5586,4.5586,4.5009,4.4239,4.3278,4.2393,4.1508,4.0662,4.0508,4.0508,4.0508,4.0508,4.0508,4.0508,4.0508,4.0508,4.0508,4.0508,4.0508,4.0508,4.0508,4.0508,4.0508,4.0508,4.0508,4.0508,4.0508,4.0508,4.0508,4.071,4.0796,4.0821,4.1033,4.1171,4.1211,4.1211,4.1211,5.6094,5.5976,5.5898,5.5469,5.5,5.4805,5.5234,5.4958,5.472,5.5234,5.4958,5.4554,5.4494,5.4066,5.3515,5.2898,5.2321,5.1969,5.1914,5.2279,5.2856,5.3703,5.4549,5.5241,5.5665,5.5703,5.5703,5.5703,5.5703,5.5703,5.5703,5.5703,5.5511,5.5088,5.4241,5.3395,5.2549,5.1702,5.1087,5.0702,5.0702,5.0702,5.0702,5.0702,5.0702,5.0702,5.0702,0.0,5.0702,5.0702,5.0702,5.0702,5.0702,5.0702,5.0702,5.0702,5.0702,5.0702,5.0702,5.0702,5.0625,5.0202,4.8933,4.7471,4.7048,4.6278,4.5586,4.5586,4.5586,4.5586,4.5586,4.5586,4.5586,4.5586,4.5586,4.5586,4.5586,4.5278,4.4586,4.3355,4.2777,4.2047,4.0739,4.0508,4.0508,4.0508,4.0508,4.0508,4.0508,4.0508,4.0508,4.0508,4.0508,4.0508,4.0508,4.0508,4.0508,4.0508,4.0508,4.0508,4.0508,4.0508,4.0508,4.0508,4.0692,4.0821,4.0821,4.1077,4.1211,4.1211,4.1211,4.1211,5.6601,5.6601,5.6601,5.6601,5.6094,5.5742,5.6445,5.6055,5.5781,5.6445,5.6055,5.5546,5.5446,5.4845,5.4209,5.3817,5.3131,5.2469,5.201,5.2088,5.2356,5.2856,5.3857,5.4741,5.5395,5.5588,5.5703,5.5703,5.5703,5.5703,5.5703,5.5703,5.5318,5.4511,5.3664,5.2779,5.1933,5.1087,5.0702,5.0702,5.0702,5.0702,5.0702,5.0702,5.0702,5.0702,5.0702,0.0,0.0,5.0721,5.0758,5.0758,5.0773,5.0791,5.0791,5.0791,5.0791,5.0791,5.0791,5.0756,5.0758,5.0758,4.9663,4.824,4.7432,4.6547,4.5817,4.5663,4.5586,4.5586,4.5586,4.5586,4.5603,4.5654,4.5665,4.5658,4.5658,4.5665,4.5208,4.3713,4.3258,4.2611,4.1084,4.0689,4.0549,4.0545,4.0574,4.0563,4.0563,4.0559,4.0559,4.0563,4.053,4.05,4.053,4.0539,4.05,4.053,4.0539,4.0508,4.0508,4.0508,4.05,4.053,4.0713,4.0828,4.085,4.108,4.1211,4.1211,4.1211,4.1211,5.6601,5.6601,5.6601,5.6601,5.6523,5.6484,5.6562,5.6523,5.6484,5.6562,5.6523,5.6484,5.6445,5.6309,5.5879,5.5093,5.468,5.3925,5.2322,5.2664,5.2818,5.2125,5.351,5.4511,5.4587,5.528,5.5703,5.5703,5.5703,5.5703,5.5703,5.5703,5.5318,5.4511,5.3664,5.2779,5.1933,5.1087,5.0702,5.0702,5.0702,5.0702,5.0702,5.0702,5.0702,5.0702,5.0702,0.0,0.0,5.0819,5.0859,5.0874,5.0996,5.1053,5.1053,5.1053,5.1053,5.1053,5.1053,5.0959,5.0859,5.0859,5.0152,4.9125,4.824,4.7432,4.6624,4.5817,4.5586,4.5586,4.5586,4.5586,4.5637,4.5761,4.5836,4.5881,4.5881,4.5825,4.5531,4.4705,4.3807,4.2925,4.2008,4.1267,4.0752,4.0703,4.0713,4.0788,4.0788,4.0721,4.0688,4.0779,4.0604,4.0545,4.0667,4.0574,4.0545,4.0667,4.0574,4.0508,4.0508,4.0508,4.0559,4.068,4.0752,4.0864,4.0968,4.1128,4.1211,4.1211,4.1211,4.1211,5.6601,5.6601,5.6601,5.6601,5.6601,5.6601,5.6601,5.6601,5.6601,5.6601,5.6601,5.6601,5.6601,5.656,5.639,5.5933,5.5365,5.4665,5.3868,5.3073,5.2597,5.279,5.2878,5.3356,5.4395,5.478,5.5164,5.5665,5.5703,5.5703,5.5703,5.5703,5.5088,5.378,5.3395,5.2549,5.1202,5.0856,5.0702,5.0702,5.0773,5.0803,5.0803,5.0889,5.0945,5.0945,5.0945,0.0,0.0,5.0984,5.1008,5.1008,5.1074,5.1094,5.1094,5.1094,5.1094,5.1094,5.1094,5.1053,5.1008,5.1008,5.0726,5.0156,4.8671,4.7671,4.6887,4.6021,4.5789,4.5789,4.5789,4.5789,4.5813,4.5869,4.5881,4.5879,4.5879,4.5881,4.5629,4.4868,4.3937,4.3044,4.2199,4.138,4.0805,4.0752,4.0788,4.0821,4.0821,4.0779,4.077,4.0813,4.0699,4.0667,4.0743,4.0703,4.0699,4.0703,4.0688,4.0665,4.0604,4.0665,4.0692,4.0752,4.0857,4.0955,4.1016,4.1128,4.1211,4.1211,4.1211,4.1211,5.6601,5.6601,5.6601,5.6601,5.6601,5.6601,5.6601,5.6601,5.6601,5.6601,5.6601,5.6601,5.6601,5.6601,5.6561,5.6462,5.5899,5.5366,5.5022,5.3775,5.2964,5.3081,5.263,5.2704,5.3706,5.4246,5.4824,5.5421,5.5459,5.5343,5.5073,5.5073,5.4516,5.3241,5.2972,5.2125,5.0702,5.074,5.0776,5.0738,5.0889,5.0972,5.0972,5.1042,5.1094,5.1094,0.0,0.0,0.0,5.1131,5.1148,5.1109,5.1179,5.1193,5.1193,5.1193,5.1193,5.1193,5.1193,5.1172,5.1148,5.1148,5.1148,5.0858,4.9282,4.8214,4.7406,4.655,4.6113,4.5879,4.5879,4.5944,4.5967,4.5967,4.5988,4.6008,4.6008,4.5988,4.5779,4.5267,4.4429,4.3552,4.2701,4.1824,4.1162,4.0903,4.0883,4.0939,4.0939,4.0877,4.087,4.0894,4.0859,4.0818,4.0857,4.0836,4.0796,4.0791,4.0796,4.0779,4.0731,4.0779,4.0836,4.0864,4.0955,4.1023,4.1074,4.113,4.1211,4.1211,4.1211,4.1211,5.6601,5.6601,5.6601,5.6601,5.6601,5.6601,5.6601,5.6601,5.6601,5.6601,5.6601,5.6601,5.6601,5.6601,5.6601,5.6601,5.6468,5.6079,5.5226,5.4952,5.4217,5.2534,5.2952,5.3073,5.2206,5.3677,5.4774,5.4886,5.4897,0.0,5.368,5.3641,5.3494,5.3223,5.2356,5.151,5.0702,5.0819,5.0889,5.0889,5.102,5.1094,5.1094,5.1094,5.1094,0.0,0.0,0.0,0.0,5.1167,5.1201,5.1206,5.1363,5.1406,5.1406,5.1406,5.1406,5.1406,5.1406,5.1318,5.1201,5.1201,5.1201,5.1045,5.0225,4.9276,4.8301,4.7445,4.6589,4.5879,4.5879,4.5995,4.6089,4.6089,4.62,4.6289,4.6289,4.6198,4.6144,4.6249,4.5456,4.4528,4.3712,4.2921,4.2068,4.114,4.1125,4.1211,4.1211,4.108,4.1033,4.1171,4.108,4.1016,4.1016,4.087,4.0857,4.0972,4.087,4.0821,4.0813,4.0821,4.0864,4.1012,4.1016,4.1074,4.1211,4.1211,4.1211,4.1211,4.1211,4.1211,5.6601,5.6601,5.6601,5.6601,5.6601,5.6601,5.6601,5.6601,5.6601,5.6601,5.6601,5.6601,5.6601,5.6601,5.6601,5.6601,5.656,5.644,5.6167,5.5509,5.484,5.4294,5.3808,5.3441,5.3169,5.3623,5.3985,5.3991,5.4002,5.3874,5.3602,5.3029,5.2675,5.2615,5.233,5.18,5.0985,5.0996,5.102,5.1031,5.1117,5.1167,5.1167,5.1254,5.1307,0.0,0.0,0.0,0.0,5.132,5.1324,5.1324,5.1367,5.1406,5.1406,5.1406,5.1406,5.1406,5.1406,5.1366,5.1324,5.1324,5.1324,5.1285,5.1011,4.9912,4.846,4.7015,4.6387,4.6153,4.6153,4.6202,4.6246,4.6246,4.6288,4.6289,4.6289,4.6288,4.6247,4.6289,4.5546,4.4684,4.3824,4.2968,4.2109,4.1246,4.1171,4.1211,4.1211,4.117,4.113,4.1211,4.117,4.1129,4.1129,4.1084,4.1033,4.1016,4.1033,4.1026,4.095,4.1023,4.1082,4.1129,4.1129,4.117,4.1211,4.1211,4.1211,4.1211,4.1211,4.1211,5.6601,5.6601,5.6601,5.6601,5.6601,5.6601,5.6601,5.6601,5.6601,5.6601,5.6601,5.6601,5.6601,5.6601,5.6601,5.6601,5.6601,5.6601,5.6601,5.605,5.5524,5.5153,5.4248,5.3814,5.4126,5.4164,5.4056,5.378,5.3741,5.3468,5.2805,5.2259,5.1947,5.1947,5.1871,5.159,5.1094,5.1139,5.1125,5.1125,5.1245,5.1271,5.1271,5.1365,5.1406,0.0,0.0,0.0,0.0,5.1406,5.1406,5.1406,5.1406,5.1406,5.1406,5.1406,5.1406,5.1406,5.1406,5.1406,5.1406,5.1406,5.1406,5.1328,5.1055,5.0,4.8555,4.6797,4.6289,4.6289,4.6289,4.6289,4.6289,4.6289,4.6289,4.6289,4.6289,4.6289,4.6289,4.6289,4.5859,4.5195,4.4336,4.3476,4.2617,4.1797,4.1406,4.1211,4.1211,4.1211,4.1211,4.1211,4.1211,4.1211,4.1211,4.1211,4.117,4.108,4.113,4.117,4.108,4.117,4.1211,4.1211,4.1211,4.1211,4.1211,4.1211,4.1211,4.1211,4.1169,4.1126,0.0,5.6601,5.6601,5.6601,5.6601,5.6601,5.6601,5.6601,0.0,5.6601,5.6601,5.6601,5.6601,5.6601,5.6601,5.6601,5.6601,5.6601,5.6601,5.6601,5.6248,5.5318,5.4455,5.422,5.504,5.5079,5.4747,5.4062,5.3984,5.3281,5.168,5.1523,5.1484,5.1484,5.1258,5.1122,5.1122,5.1174,5.121,5.121,5.1324,5.1406,5.1406,5.1406,5.1406,0.0,0.0,0.0,0.0,5.1406,5.1406,5.1406,5.1406,5.1406,5.1406,5.1406,5.1406,5.1406,5.1406,5.1406,5.1406,5.1406,5.1406,5.125,5.043,4.9609,4.8555,4.6875,4.6367,4.6289,4.6289,4.6289,4.6289,4.6289,4.6289,4.6289,4.6289,4.6289,4.6289,4.6289,4.6289,4.6016,4.5156,4.4336,4.3476,4.2539,4.1758,4.125,4.1211,4.1211,4.1211,4.1211,4.1211,4.1211,4.1211,4.1211,4.1211,4.1211,4.1211,4.1211,4.1211,4.1211,4.1211,4.1211,4.1211,4.1211,4.1211,4.1211,4.1211,4.1211,4.1074,4.1016,5.6601,0.0,5.6601,5.6601,5.6601,5.6601,0.0,5.6601,5.6601,5.6601,5.6601,5.6601,5.6601,5.6601,5.6601,5.6601,5.6601,5.6601,5.6601,5.6601,5.6523,5.6287,5.5467,5.5037,5.5232,5.4646,5.4178,5.4023,5.3984,5.3828,5.3398,5.2773,5.2383,5.2383,5.1714,5.1318,5.1318,5.1363,5.1364,5.1364,5.1367,5.1406,5.1406,5.1406,5.1406,0.0,0.0,0.0,5.1406,5.1406,5.1406,5.1406,5.1406,5.1406,5.1406,5.1406,5.1406,5.1406,5.1406,5.1406,5.1406,5.1406,5.1406,5.125,5.043,4.9609,4.8672,4.7617,4.6797,4.6289,4.6289,4.6289,4.6289,4.6289,4.6289,4.6289,4.6289,4.6289,4.6289,4.6289,4.6289,4.6016,4.5156,4.4844,4.418,4.2617,4.2226,4.1914,4.1289,4.1211,4.1211,4.1211,4.1211,4.1211,4.1211,4.1211,4.1211,4.1211,4.1211,4.1211,4.1211,4.1211,4.1211,4.1211,4.1211,4.1211,4.1211,4.1211,4.1211,4.1211,4.1074,4.1016,5.6601,5.6601,5.6601,5.6601,5.6601,5.6601,5.6601,5.6601,5.6601,5.6601,5.6601,5.6601,5.6601,5.6601,5.6601,5.6601,5.6601,5.6601,5.6601,5.6601,5.6601,5.6601,5.6172,5.5898,5.5898,5.5469,5.5039,5.4648,5.4609,5.4414,5.4023,5.3555,5.3281,5.3281,5.2851,5.2226,5.1406,5.1406,5.1406,5.1406,5.1406,5.1406,5.1406,5.1406,5.1406,0.0,0.0,0.0,5.1406,5.1406,5.1406,5.1406,5.1406,5.1406,5.1406,5.1406,5.1406,5.1406,5.1406,5.1406,5.1406,5.1406,5.1406,5.1328,5.0898,5.0156,4.9219,4.7969,4.6953,4.6289,4.6289,4.6289,4.6289,4.6289,4.6289,4.6289,4.6289,4.6289,4.6289,4.6289,4.6289,4.6133,4.5664,4.5273,4.4687,4.3711,4.3242,4.2695,4.1875,4.1758,4.1601,4.125,4.1211,4.1211,4.1211,4.1211,4.1211,4.1211,4.1211,4.1211,4.1211,4.1211,4.1211,4.1211,4.1211,4.1211,4.1211,4.1211,4.1211,4.1211,4.1074,4.1016,5.6601,5.6601,5.6601,5.6601,5.6601,5.6601,5.6601,5.6601,5.6601,5.6601,5.6601,5.6601,5.6601,5.6601,5.6601,5.6601,5.6601,5.6601,5.6601,5.6601,5.6601,5.6601,5.6601,5.6601,5.6601,5.6601,5.6289,5.5547,5.5508,5.5195,5.4453,5.4258,5.4219,5.4219,5.4062,5.3281,5.1797,5.1641,5.1601,5.1601,5.1445,5.1406,5.1406,5.1406,5.1406,0.0,0.0,0.0,5.1406,5.1406,5.1406,5.1406,5.1406,5.1406,5.1406,5.1406,5.1406,5.1406,5.1406,5.1406,5.1406,5.1406,5.1406,5.1406,5.1406,5.0859,4.9844,4.8242,4.7187,4.6484,4.6328,4.6289,4.6289,4.6289,4.6289,4.6289,4.6289,4.6289,4.6289,4.6289,4.6289,4.6289,4.6289,4.5703,4.5156,4.5039,4.4375,4.3594,4.2695,4.2617,4.2344,4.1641,4.1562,4.1523,4.1406,4.1367,4.1327,4.1171,4.1172,4.1211,4.1211,4.1211,4.1211,4.1211,4.1171,4.1171,4.1171,4.1169,4.1129,4.1129,4.1016,4.095,5.6601,5.6601,5.6601,5.6601,5.6601,5.6601,5.6601,5.6601,5.6601,5.6601,5.6601,5.6601,5.6601,5.6601,5.6601,5.6601,5.6601,5.6601,5.6601,5.6601,5.6601,5.6601,5.6601,5.6601,5.6601,5.6601,5.6523,5.6406,5.6406,5.6328,5.6211,5.5508,5.5117,5.5117,5.4375,5.3867,5.3594,5.2851,5.25,5.25,5.1758,5.1406,5.1406,5.1406,5.1406,0.0,0.0,5.1406,5.1406,5.1406,5.1406,5.1406,5.1406,5.1406,5.1406,5.1406,5.1406,5.1406,5.1406,5.1406,5.1406,5.1406,5.1406,5.1406,5.1406,5.0859,5.0,4.8984,4.8086,4.7226,4.6484,4.6289,4.6289,4.6289,4.6289,4.6289,4.6289,4.6289,4.6289,4.6289,4.6289,4.6289,4.6289,4.6172,4.5859,4.5117,4.4883,4.4492,4.3594,4.3516,4.3437,4.332,4.332,4.3008,4.2266,4.2177,4.1807,4.1065,4.1129,4.1211,4.1211,4.1211,4.1211,4.1211,4.1082,4.1026,4.1026,4.0933,4.0864,4.0864,4.0791,4.077,5.6601,5.6601,5.6601,5.6601,5.6601,5.6601,5.6601,5.6601,5.6601,5.6601,5.6601,5.6601,5.6601,5.6601,5.6601,5.6601,5.6601,5.6601,5.6601,5.6601,5.6601,5.6601,5.6601,5.6601,5.6601,5.6601,5.6601,5.6601,5.6601,0.0,5.6601,5.6211,5.6015,5.6015,5.5625,5.539,5.539,5.4531,5.3867,5.3398,5.3008,5.2578,5.2109,5.2109,5.1836,5.1406,0.0,5.1406,5.1406,5.1406,5.1406,5.1406,5.1406,5.1406,5.1406,5.1406,5.1406,5.1406,5.1406,5.1406,5.1406,5.1406,5.1406,5.1406,5.1406,5.1133,5.0664,4.9844,4.8633,4.7383,4.6523,4.6289,4.6289,4.6289,4.6289,4.6289,4.6289,4.6289,4.6289,4.6289,4.6289,4.6289,4.6289,4.6289,4.6172,4.5742,4.5703,4.5391,4.4492,4.4331,4.4128,4.3698,4.3599,4.3383,4.2954,4.2927,4.2318,4.1,4.0955,4.0968,4.0968,4.0968,4.0968,4.0968,4.09,4.0883,4.0883,4.1303,4.1513,4.1513,4.1966,4.217,5.6601,5.6601,5.6601,5.6601,5.6601,5.6601,5.6601,5.6601,5.6601,5.6601,5.6601,5.6601,5.6601,5.6601,5.6601,5.6601,5.6601,5.6601,5.6601,5.6601,5.6601,5.6601,5.6601,5.6601,5.6601,5.6601,5.6601,5.6601,0.0,0.0,5.6601,5.6601,5.6601,5.6601,5.6601,5.6601,5.6601,5.5937,5.5156,5.4297,5.4101,5.3633,5.3008,5.3008,5.2656,5.1992,5.1797,5.1719,5.168,5.1484,5.1406,5.1406,5.1406,5.1406,5.1406,5.1406,5.1406,5.1406,5.1406,5.1406,5.1406,5.1406,5.1406,5.1406,5.1406,5.1406,5.1211,5.043,4.9258,4.7969,4.6875,4.6445,4.6289,4.6289,4.6289,4.6289,4.6248,4.6247,4.6246,4.6202,4.6202,4.6202,4.6202,4.6202,4.6202,4.6202,4.6202,4.5968,4.5304,4.5117,4.4816,4.4187,4.4051,4.3908,4.3685,4.3491,4.2772,4.1432,4.1371,4.1396,4.1396,4.1396,4.1396,4.1396,4.1371,4.1362,4.1362,4.2024,4.2315,4.2354,4.3014,4.3324,5.6601,5.6601,5.6601,5.6601,5.6601,5.6601,5.6601,5.6601,5.6601,5.6601,5.6601,5.6601,5.6601,5.6601,5.6601,5.6601,5.6601,5.6601,5.6601,5.6601,5.6601,5.6601,5.6601,5.6601,5.6601,5.6601,5.6601,5.6601,0.0,0.0,5.6601,5.6601,5.6601,5.6601,5.6601,5.6601,5.6601,5.6523,5.6055,5.5195,5.4375,5.3984,5.3906,5.3906,5.3867,5.3789,5.2969,5.2617,5.2539,5.1719,5.1406,5.1406,5.1406,5.1406,5.1406,5.1406,5.1406,5.1406,5.1406,5.1406,5.1406,5.1406,5.1406,5.1406,5.1406,5.1406,5.1211,5.043,5.0117,4.9648,4.793,4.6914,4.6289,4.6289,4.6289,4.6288,4.6144,4.6097,4.608,4.5959,4.5944,4.5944,4.5944,4.5944,4.5944,4.5944,4.5944,4.5905,4.5827,4.5819,4.581,4.5732,4.5732,4.5366,4.4497,4.3698,4.3117,4.2941,4.3125,4.3216,4.3216,4.3216,4.3216,4.3216,4.3098,4.3027,4.3027,4.3018,4.3018,4.3018,4.3096,4.3134,5.6454,5.6462,5.6507,5.6562,5.6601,5.6601,5.6601,5.6601,5.6601,5.6601,5.6601,5.6601,5.6601,5.6601,5.6601,5.6601,5.6601,5.6601,5.6601,5.6601,5.6601,5.6601,5.6601,5.6601,5.6601,5.6601,5.6601,5.6601,0.0,0.0,5.6601,5.6601,5.6601,5.6601,5.6601,5.6601,5.6601,5.6601,5.6445,5.6094,5.5781,5.5312,5.4805,5.4805,5.4492,5.3984,5.3633,5.3203,5.2656,5.2344,5.1875,5.1406,5.1406,5.1406,5.1406,5.1406,5.1406,5.1406,5.1406,5.1406,5.1406,5.1406,5.1406,5.1406,5.1406,5.1406,5.1328,5.1016,5.0586,4.9805,4.8047,4.7344,4.6953,4.6445,4.6289,4.6289,4.6246,4.6205,4.6198,4.6064,4.6014,4.5995,4.5896,4.5879,4.5879,4.5879,4.5879,4.5879,4.5879,4.5852,4.5836,4.5836,4.5738,4.5563,4.5218,4.4855,4.4669,4.468,4.3766,4.322,4.322,4.322,4.322,4.322,4.3163,4.3119,4.3158,4.3618,4.3855,4.3855,4.4393,4.4662,5.6445,5.6458,5.6504,5.6562,5.6601,5.6601,5.6601,5.6601,5.6601,5.6601,5.6601,5.6601,5.6601,5.6601,5.6601,5.6601,5.6601,5.6601,5.6601,5.6601,5.6601,5.6601,5.6601,5.6601,5.6601,5.6601,5.6601,5.6601,0.0,0.0,0.0,5.6601,5.6601,5.6601,5.6601,5.6601,5.6601,5.6601,5.6601,5.6601,5.6601,5.6289,5.5703,5.5703,5.539,5.4805,5.4531,5.4062,5.3516,5.3203,5.2617,5.1797,5.1523,5.1406,5.1406,5.1364,5.1365,5.1406,5.1364,5.1366,5.1406,5.1364,5.1324,5.1322,5.1313,5.1307,5.1307,5.1307,5.0917,5.0136,4.8691,4.7918,4.7379,4.6793,4.6397,4.615,4.6136,4.6132,4.6114,4.599,4.5927,4.59,4.5809,4.5797,4.5797,4.5797,4.5797,4.5797,4.5797,4.5777,4.5733,4.5733,4.5648,4.5586,4.5586,4.5586,4.5586,4.5586,4.4509,4.3893,4.3893,4.3893,4.3893,4.3893,4.3893,4.3893,4.3893,4.4432,4.4701,4.4701,4.5316,4.5586,5.656,5.6601,5.6601,5.6601,5.6601,5.6601,5.6601,5.6601,5.6601,5.6601,5.6601,5.6601,5.6601,5.6601,5.6601,5.6601,5.6601,5.6601,5.6601,5.6601,5.6601,5.6601,5.6601,5.6601,5.6601,5.6601,5.6601,5.6601,0.0,0.0,0.0,5.6601,5.6601,5.6601,5.6601,5.6601,5.6601,5.6601,5.6601,5.6601,5.6601,5.6601,5.6601,5.6601,5.6601,5.6562,5.5703,5.5312,5.5234,5.4375,5.3476,5.2617,5.1758,5.1406,5.1367,5.1261,5.1271,5.1367,5.1261,5.1274,5.1366,5.1258,5.1201,5.1191,5.1131,5.1094,5.1094,5.1094,5.1094,5.0899,5.0033,4.8599,4.7416,4.7416,4.6658,4.5891,4.5815,4.5815,4.5775,4.5637,4.5603,4.5603,4.5586,4.5586,4.5586,4.5586,4.5586,4.5586,4.5586,4.5586,4.5586,4.5586,4.5586,4.5586,4.5586,4.5586,4.5586,4.5586,4.5586,4.5586,4.5586,4.5586,4.5586,4.5586,4.5586,4.5586,4.5586,4.5586,4.5586,4.5586,4.5586,4.5586,5.6083,5.6131,5.6173,5.6397,5.6458,5.6465,5.6562,5.6601,5.6601,5.6601,5.6601,5.6601,5.6601,5.6601,5.6601,5.6601,5.6601,5.6601,5.6601,5.6601,5.6601,5.6601,5.6601,5.6601,5.6601,5.6601,5.6601,5.6601,0.0,0.0,0.0,5.6601,5.6601,5.6601,5.6601,5.6601,5.6601,5.6601,5.6601,5.6601,5.6601,5.6601,5.6601,5.6601,5.6601,5.6601,5.6328,5.5817,5.5088,5.4138,5.3214,5.2395,5.2122,5.1693,5.1186,5.1156,5.1164,5.1186,5.1156,5.1164,5.1186,5.1156,5.1148,5.1139,5.1103,5.1094,5.1094,5.1094,5.1094,5.1055,5.0773,4.9847,4.8816,4.831,4.7492,4.6795,4.6805,4.6289,4.582,4.5775,4.5733,4.5688,4.562,4.5586,4.5586,4.5586,4.5586,4.5586,4.5586,4.5586,4.5586,4.5586,4.5586,4.5586,4.5586,4.5586,4.5586,4.5586,4.5586,4.5586,4.5586,4.5586,4.5586,4.5586,4.5586,4.5586,4.5586,4.5586,4.5586,4.5586,4.5586,4.5586,5.5986,5.6005,5.6058,5.6269,5.6301,5.6354,5.6402,5.6515,5.6601,5.6601,5.6601,5.6601,5.6601,5.6601,5.6601,5.6601,5.6601,5.6601,5.6601,5.6601,5.6601,5.6601,5.6601,5.6601,5.6601,5.6601,5.6601,0.0,0.0,0.0,0.0,5.6601,5.6601,5.6601,5.6601,5.6601,5.6601,5.6601,5.6601,5.6601,5.6601,5.6601,5.6601,5.6601,5.6601,5.6601,5.6558,5.6138,5.5475,5.45,5.3807,5.3263,5.2562,5.2018,5.1551,5.1147,5.1042,5.1084,5.1031,5.1042,5.1084,5.1031,5.1008,5.0996,5.0972,5.0945,5.0945,5.0945,5.0945,5.0945,5.0945,5.0472,4.9846,4.9096,4.823,4.7559,4.7559,4.6913,4.6293,4.622,4.5974,4.5712,4.562,4.5586,4.5586,4.5586,4.5586,4.5586,4.5586,4.5586,4.5586,4.5586,4.5586,4.5586,4.5586,4.5586,4.5586,4.5586,4.5586,4.5586,4.5586,4.5586,4.5586,4.5586,4.5586,4.5586,4.5586,4.5586,4.5586,4.5586,4.5586,4.5586,5.611,5.6146,5.6158,5.6169,5.6181,5.6191,5.6191,5.6386,5.6561,5.6562,5.6601,5.6601,5.6601,5.6601,5.6601,5.6601,5.6601,5.6601,5.6601,5.6601,5.6601,5.6601,5.6601,5.6601,5.6601,5.6601,5.6601,0.0,0.0,0.0,0.0,5.6601,5.6601,5.6601,5.6601,5.6562,5.6562,5.6561,5.656,0.0,5.656,5.656,5.656,5.6562,5.6562,5.656,5.6402,5.6277,5.6092,5.5291,5.4941,5.4708,5.3102,5.2441,5.2275,5.1305,5.1089,5.1147,5.0956,5.0972,5.1031,5.0918,5.0859,5.0867,5.074,5.0702,5.0702,5.0702,5.0702,5.0702,5.0702,5.0702,5.0528,4.9846,4.8938,4.824,4.824,4.7586,4.7009,4.7009,4.6355,4.5778,4.574,4.5701,4.5701,4.5586,4.5586,4.5586,4.5586,4.5586,4.5586,4.5586,4.5586,4.5586,4.5586,4.5586,4.5586,4.5586,4.5586,4.5586,4.5586,4.5586,4.5586,4.5586,4.5586,4.5586,4.5586,4.5586,4.5586,4.5586,4.5586,4.5586,5.5789,5.5808,5.5807,5.5955,5.6058,5.6191,5.6191,5.6242,5.634,5.6402,5.6517,5.6601,5.6601,5.6601,5.6601,5.6601,5.6601,5.6601,5.6601,5.6601,5.6601,5.6601,5.6601,5.6601,5.6601,5.6601,5.6601,0.0,0.0,0.0,5.6601,5.6601,5.6601,5.6601,5.651,5.645,5.645,5.6354,5.6277,0.0,5.6277,5.6277,5.6277,5.6386,5.638,5.6269,5.6083,5.5991,5.5932,5.565,5.5133,5.4554,5.4168,5.359,5.2895,5.203,5.1702,5.1622,5.0951,5.0738,5.0773,5.0758,5.0758,5.074,5.0721,5.0702,5.0702,5.0702,5.0702,5.0702,5.0702,5.0702,5.0645,5.0508,4.9778,4.9125,4.9125,4.8432,4.7855,4.7855,4.7702,4.7355,4.674,4.6624,4.6394,4.5701,4.5586,4.5586,4.5586,4.5586,4.5586,4.5586,4.5586,4.5586,4.5586,4.5586,4.5586,4.5586,4.5586,4.5586,4.5586,4.5586,4.5586,4.5586,4.5586,4.5586,4.5586,4.5586,4.5586,4.5586,4.5586,4.5586,5.5703,5.5703,5.5707,5.5808,5.5896,5.5978,5.5978,5.6015,5.6058,5.6142,5.6293,5.6397,5.6397,5.6397,5.6397,5.6397,5.6397,5.6397,5.6397,5.6397,5.6397,5.6397,5.6397,5.6397,5.6397,5.6397,0.0,0.0,0.0,5.6397,5.6397,5.6397,5.6397,5.6397,5.6354,5.6285,5.6285,5.6232,5.6191,5.6191,5.6191,5.6158,5.6045,5.6232,5.6222,5.6032,5.5971,5.5857,5.5788,5.5728,5.5434,5.5049,5.4664,5.4203,5.3703,5.2856,5.2279,5.1856,5.1433,5.101,5.0702,5.0702,5.0702,5.0702,5.0702,5.0702,5.0702,5.0702,5.0702,5.0702,5.0702,5.0702,5.0702,5.0702,5.0356,5.001,5.001,4.9356,4.8702,4.8702,4.8394,4.7971,4.7548,4.7471,4.7317,4.6855,4.6817,4.6817,4.6817,4.6471,4.6201,4.6201,4.5855,4.5586,4.5586,4.5586,4.5586,4.5586,4.5586,4.5586,4.5586,4.5586,4.5586,4.5586,4.5586,4.5586,4.5586,4.5586,4.5586,4.5586,4.5586,4.5586,5.5703,5.5703,5.5703,5.5703,5.5703,5.5703,5.5703,5.5808,5.5857,5.5857,5.6057,5.6191,5.6191,5.6191,5.6191,5.6191,5.6191,5.6191,5.6191,5.6191,5.6191,5.6191,5.6191,5.6191,5.6191,5.6191,0.0,0.0,0.0,5.6191,5.6191,5.6191,5.6191,5.6191,5.6169,5.6158,5.6158,5.6122,5.611,5.611,5.611,5.6029,5.5874,5.6044,5.6029,5.5857,5.5857,5.5788,5.5703,5.5703,5.5703,5.5626,5.4972,5.4703,5.4587,5.3741,5.2972,5.2318,5.2202,5.1587,5.0894,5.0894,5.0818,5.0702,5.0702,5.0702,5.0702,5.0702,5.0702,5.0702,5.0702,5.0702,5.0702,5.0702,5.0702,5.0702,5.0702,5.0125,4.9625,4.9625,4.8933,4.8317,4.8317,4.8202,4.8086,4.8086,4.8086,4.8086,4.8086,4.7509,4.7124,4.7124,4.6471,4.6009,4.6009,4.6009,4.6009,4.6009,4.6009,4.6009,4.6009,4.6009,4.6009,4.6009,4.574,4.5586,4.5586,4.5586,4.5586,4.5586,4.5586,4.5586,5.5703,5.5703,5.5703,5.5703,5.5703,5.5703,5.5703,5.5707,5.5728,5.5728,5.5971,5.6191,5.6191,5.6191,5.6191,5.6191,5.6191,5.6191,5.6191,5.6191,5.6191,5.6191,5.6191,5.6191,5.6191,5.6191,0.0,0.0,5.6191,5.6191,5.6191,5.6191,5.6191,5.6191,5.6019,5.5916,5.5916,5.5807,5.5768,5.5768,5.5768,5.5768,5.5728,5.5768,5.5748,5.5728,5.5728,5.5707,5.5703,5.5703,5.5703,5.5703,5.5588,5.5549,5.5434,5.4626,5.4241,5.4049,5.328,5.2472,5.1741,5.1741,5.1279,5.0702,5.0702,5.0702,5.0702,5.0702,5.0702,5.0702,5.0702,5.0702,5.0702,5.0702,5.0702,5.0702,5.0702,5.0587,5.051,5.051,4.9817,4.924,4.924,4.8586,4.8086,4.8086,4.8086,4.8086,4.8086,4.8009,4.7932,4.7932,4.7855,4.7778,4.7778,4.7778,4.7778,4.7778,4.7778,4.7778,4.7778,4.7778,4.7778,4.7778,4.6355,4.5586,4.5586,4.5586,4.5586,4.5586,4.5586,4.5586,5.5703,5.5703,5.5703,5.5703,5.5703,5.5703,5.5703,5.5703,5.5703,5.5703,5.5827,5.593,5.593,5.593,5.593,5.593,5.593,5.593,5.593,5.593,5.593,5.593,5.593,5.593,5.593,5.593,0.0,0.0,5.593,5.593,5.593,5.593,5.593,5.593,5.5825,5.5808,5.5808,5.5728,5.5703,5.5703,5.5703,5.5703,5.5703,5.5703,5.5703,5.5703,5.5703,5.5703,5.5703,5.5703,5.5703,5.5703,5.5703,5.5703,5.5665,5.528,5.4895,5.4434,5.4049,5.3356,5.2626,5.2626,5.2049,5.1356,5.1356,5.1048,5.0702,5.0702,5.0702,5.0702,5.0702,5.0702,5.0702,5.0702,5.0702,5.0702,5.0702,5.0702,5.0702,5.0702,5.0394,5.0125,5.0125,4.9817,4.9548,4.9548,4.9548,4.9548,4.9548,4.9125,4.8817,4.8817,4.8394,4.8086,4.8086,4.8086,4.8086,4.8086,4.8086,4.8086,4.8086,4.8086,4.8086,4.8086,4.7394,4.7009,4.7009,4.6547,4.6317,4.6317,4.5817,4.5586,5.5703,5.5703,5.5703,5.5703,5.5703,5.5703,5.5703,5.5703,5.5703,5.5703,5.5703,5.5703,5.5703,5.5703,5.5703,5.5703,5.5703,5.5703,5.5703,5.5703,5.5703,5.5703,5.5703,5.5703,5.5703,5.5703,0.0,0.0,5.5703,5.5703,5.5703,5.5703,5.5703,5.5703,5.5703,5.5703,5.5703,5.5703,5.5703,5.5703,5.5703,5.5703,5.5703,5.5703,5.5703,5.5703,5.5703,5.5703,5.5703,5.5703,5.5703,5.5703,5.5703,5.5703,5.5703,5.5703,5.5318,5.478,5.478,5.4241,5.3549,5.3549,5.2933,5.2241,5.2241,5.1664,5.101,5.101,5.0856,5.0702,5.0702,5.0702,5.0702,5.0702,5.0702,5.0702,5.0702,5.0702,5.0702,5.0702,5.0702,5.0702,5.0702,5.0702,5.0702,5.0702,5.0702,5.0702,5.0702,5.0125,4.974,4.974,4.9163,4.8779,4.8779,4.8779,4.8779,4.8779,4.8779,4.8779,4.8779,4.8779,4.8779,4.8779,4.8779,4.8548,4.8086,4.7509,4.7201,4.7201,4.6547,4.624,5.5703,5.5703,5.5703,5.5703,5.5703,5.5703,5.5703,5.5703,5.5703,5.5703,5.5703,5.5703,5.5703,5.5703,5.5703,5.5703,5.5703,5.5703,5.5703,5.5703,5.5703,5.5703,5.5703,5.5703,5.5703,5.5703,0.0,0.0,5.5703,5.5703,5.5703,5.5703,5.5703,5.5703,5.5703,5.5703,5.5703,5.5703,5.5703,5.5703,5.5703,5.5703,5.5703,5.5703,5.5703,5.5703,5.5703,5.5703,5.5703,5.5703,5.5703,5.5703,5.5703,5.5703,5.5703,5.5703,5.5665,5.5626,5.5626,5.5126,5.4434,5.4434,5.3857,5.3126,5.3126,5.2549,5.1856,5.1856,5.1279,5.0702,5.0702,5.0702,5.0702,5.0702,5.0702,5.0702,5.0702,5.0702,5.0702,5.0702,5.0702,5.0702,5.0702,5.0702,5.0702,5.0702,5.0702,5.0702,5.0702,5.0664,5.0625,5.0625,5.0587,5.0548,5.0548,5.0548,5.0548,5.0548,5.0548,5.0548,5.0548,5.0548,5.0548,5.0548,5.0548,4.974,4.8086,4.8048,4.8048,4.8048,4.8009,4.7971,5.5703,5.5703,5.5703,5.5703,5.5703,5.5703,5.5703,5.5703,5.5703,5.5703,5.5703,5.5703,5.5703,5.5703,5.5703,5.5703,5.5703,5.5703,5.5703,5.5703,5.5703,5.5703,5.5703,5.5703,5.5703,5.5703,0.0,0.0,0.0,5.5703,5.5703,5.5703,5.5703,5.5703,5.5703,5.5703,5.5703,5.5703,5.5703,5.5703,5.5703,5.5703,5.5703,5.5703,5.5703,5.5703,5.5703,5.5703,5.5703,5.5703,5.5703,5.5703,5.5703,5.5703,5.5703,5.5703,5.5703,5.5703,5.5703,5.5511,5.528,5.528,5.4703,5.4049,5.4049,5.3433,5.2741,5.2741,5.2549,5.2164,5.1625,5.1471,5.1356,5.0818,5.0702,5.0702,5.0702,5.0702,5.0702,5.0702,5.0702,5.0702,5.0702,5.0702,5.0702,5.0702,5.0702,5.0702,5.0702,5.0702,5.0702,5.0702,5.0702,5.0702,5.0702,5.0702,5.0702,5.0702,5.0702,5.0702,5.0702,5.0702,5.0702,5.0702,5.0702,5.0394,4.9779,4.9202,4.8933,4.8933,4.8355,4.8086,5.5703,5.5703,5.5703,5.5703,5.5703,5.5703,5.5703,5.5703,5.5703,5.5703,5.5703,5.5703,5.5703,5.5703,5.5703,5.5703,5.5703,5.5703,5.5703,5.5703,5.5703,5.5703,5.5703,5.5703,5.5703,5.5703,0.0,0.0,0.0,0.0,5.5703,5.5703,5.5703,5.5703,5.5703,5.5703,5.5703,5.5703,5.5703,5.5703,5.5703,5.5703,5.5703,5.5703,5.5703,5.5703,5.5703,5.5703,5.5703,5.5703,5.5703,5.5703,5.5703,5.5703,5.5703,5.5703,5.5703,5.5703,5.5703,5.5703,5.5703,5.5703,5.5318,5.4895,5.4895,5.4318,5.3626,5.3626,5.3433,5.3087,5.251,5.2356,5.2202,5.1664,5.1548,5.1471,5.1164,5.0894,5.0702,5.0702,5.0702,5.0702,5.0702,5.0702,5.0702,5.0702,5.0702,5.0702,5.0702,5.0702,5.0702,5.0702,5.0702,5.0702,5.0702,5.0702,5.0702,5.0702,5.0702,5.0702,5.0702,5.0584,5.0504,5.0504,5.0358,5.0313,5.0313,5.0008,4.9779,4.9601,4.9163,4.8971,0.0,0.0,0.0,5.5703,5.5703,5.5703,5.5703,5.5703,5.5703,5.5703,5.5703,5.5703,5.5703,5.5703,5.5703,5.5703,5.5703,5.5703,5.5703,5.5703,5.5703,5.5703,5.5703,5.5703,5.5703,5.5703,0.0,0.0,5.5703,5.5703,5.5703,5.5703,5.5703,5.5703,5.5703,5.5703,5.5703,5.5703,5.5703,5.5703,5.5703,5.5703,5.5703,5.5703,5.5703,5.5703,5.5703,5.5703,5.5703,5.5703,5.5703,5.5703,5.5703,5.5703,5.5703,5.5703,5.5703,5.5703,5.5703,5.5703,5.5703,5.5703,5.5703,5.5703,5.5703,5.5164,5.4549,5.4549,5.3933,5.328,5.3241,5.3241,5.3203,5.3203,5.3203,5.2972,5.2125,5.1318,5.0741,5.0702,5.0702,5.0702,5.0702,5.0702,5.0702,5.0702,5.0702,5.0702,5.0702,5.0702,5.0702,5.0702,5.0702,5.0702,5.0702,5.0702,5.0702,5.0702,5.0702,5.0702,5.0702,5.0313,5.0111,5.0135,4.97,4.9504,4.9504,5.0313,5.0462,5.0111,5.0483,5.0644,5.5703,0.0,0.0,0.0,0.0,0.0,5.5703,5.5703,5.5703,5.5703,5.5703,5.5703,5.5703,5.5703,5.5703,5.5703,5.5703,5.5703,5.5703,5.5703,5.5703,5.5703,5.5703,5.5703,5.5703,0.0,0.0,0.0,5.5703,5.5703,5.5703,5.5703,5.5703,5.5703,5.5703,5.5703,5.5703,5.5703,5.5703,5.5703,5.5703,5.5703,5.5703,5.5703,5.5703,5.5703,5.5703,5.5703,5.5703,5.5703,5.5703,5.5703,5.5703,5.5703,5.5703,5.5703,5.5703,5.5703,5.5703,5.5703,5.5703,5.5703,5.5703,5.5703,5.5703,5.5549,5.5357,5.5357,5.5203,5.4857,5.428,5.3664,5.3203,5.3203,5.3203,5.3126,5.2895,5.2664,5.2164,5.0933,5.0702,5.0702,5.0702,5.0702,5.0702,5.0702,5.0702,5.0702,5.0702,5.0702,5.0702,5.0702,5.0702,5.0702,5.0702,5.0702,5.0702,5.0702,5.0702,5.0702,5.0702,5.0313,5.023,5.0525,5.0135,4.9924,4.9924,4.9872,4.9754,4.9645,4.9792,4.9846,5.578,5.5703,5.5703,5.5703,0.0,0.0,5.5703,5.5703,5.5703,5.5703,5.5703,5.5703,5.5703,5.5703,5.5703,5.5703,5.5703,5.5703,5.5703,5.5703,5.5703,5.5703,5.5703,5.5703,5.5703,5.5703,5.5703,5.5703,5.5703,5.5703,5.5703,5.5703,5.5703,5.5703,5.5703,5.5703,5.5703,5.5703,5.5703,5.5703,5.5703,5.5703,5.5703,5.5703,5.5703,5.5703,5.5703,5.5703,5.5703,5.5703,5.5703,5.5703,5.5703,5.5703,5.5703,5.5703,5.5703,5.5703,5.5703,5.5703,5.5703,5.5703,5.5703,5.5703,5.5703,5.5703,5.5703,5.5703,5.5703,5.5588,5.5126,5.4626,5.4241,5.4241,5.4241,5.4164,5.3818,5.3741,5.3356,5.201,5.1741,5.1741,5.1741,5.1741,5.1625,5.1241,5.1062,5.0845,5.05,5.0313,5.0183,5.0183,5.0183,5.0183,5.0183,5.0183,5.0183,5.0183,5.0183,5.0183,5.0183,4.9808,4.97,4.9949,4.9561,4.9356,4.9356,4.9617,4.9645,4.9504,4.9326,4.9326,5.6088,5.5818,5.5818,5.5703,5.5703,0.0,5.5703,5.5703,5.5703,5.5703,5.5703,5.5703,5.5703,5.5703,5.5703,5.5703,5.5703,5.5703,5.5703,5.5703,5.5703,5.5703,5.5703,5.5703,5.5703,5.5703,5.5703,5.5703,5.5703,5.5703,5.5703,5.5703,5.5703,5.5703,5.5703,5.5703,5.5703,5.5703,5.5703,5.5703,5.5703,5.5703,5.5703,5.5703,5.5703,5.5703,5.5703,5.5703,5.5703,5.5703,5.5703,5.5703,5.5703,5.5703,5.5703,5.5703,5.5703,5.5703,5.5703,5.5703,5.5703,5.5703,5.5703,5.5703,5.5703,5.5703,5.5703,5.5703,5.5703,5.5703,5.5703,5.5703,5.5703,5.5703,5.5703,5.5511,5.4737,5.4583,5.4331,5.3503,5.3276,5.3203,5.3203,5.3203,5.2933,5.2164,5.1721,5.1252,5.0541,5.0138,4.9882,4.9863,4.9825,4.9797,4.9768,4.9768,4.973,4.9655,4.9655,4.9617,4.9504,4.9108,4.8911,4.8945,4.8568,4.8382,4.8382,4.9416,4.97,4.9356,4.8978,4.9011,0.0,0.0,0.0,0.0,5.5703,0.0,5.5703,5.5703,5.5703,5.5703,5.5703,5.5703,5.5703,5.5703,5.5703,5.5703,5.5703,5.5703,5.5703,5.5703,5.5703,5.5703,5.5703,5.5703,5.5703,5.5703,5.5703,5.5703,5.5703,5.5703,5.5703,5.5703,5.5703,5.5703,5.5703,5.5703,5.5703,5.5703,5.5703,5.5703,5.5703,5.5703,5.5703,5.5703,5.5703,5.5703,5.5703,5.5703,5.5703,5.5703,5.5703,5.5703,5.5703,5.5703,5.5703,5.5703,5.5703,5.5703,5.5703,5.5703,5.5703,5.5703,5.5703,5.5703,5.5703,5.5703,5.5703,5.5703,5.5703,5.5703,5.5703,5.5703,5.5703,5.5703,5.5703,5.5561,5.5071,5.4982,5.4867,5.4334,5.367,5.3203,5.3203,5.3203,5.3126,5.2972,5.2892,5.2773,5.2619,5.2538,5.2365,5.2056,5.2003,5.1858,5.1466,5.1435,5.1171,5.0493,5.0455,5.0153,4.9541,4.9108,4.9043,4.9386,4.8978,4.8779,4.8779,4.8674,4.8604,4.8495,4.8458,4.8458,0.0,0.0,0.0,5.6472,0.0,0.0,0.0,5.5703,5.5703,5.5703,5.5703,5.5703,5.5703,5.5703,5.5703,5.5703,5.5703,5.5703,5.5703,5.5703,5.5703,5.5703,5.5703,5.5703,5.5703,5.5703,5.5703,5.5703,5.5703,5.5703,5.5703,5.5703,5.5703,5.5703,5.5703,5.5703,5.5703,5.5703,5.5703,5.5703,5.5703,5.5703,5.5703,5.5703,5.5703,5.5703,5.5703,5.5703,5.5703,5.5703,5.5703,5.5703,5.5703,5.5703,5.5703,5.5703,5.5703,5.5703,5.5703,5.5703,5.5703,5.5703,5.5703,5.5703,5.5703,5.5703,5.5703,5.5703,5.5703,5.5703,5.5703,5.5703,5.5703,5.5703,5.5703,5.5621,5.5446,5.5399,5.535,5.5134,5.4771,5.4309,5.3938,5.3849,5.367,5.3251,5.3041,5.2741,5.2323,5.2113,5.1939,5.1715,5.1682,5.1615,5.1374,5.1338,5.119,5.078,5.0743,5.0557,5.0147,4.9934,4.9749,4.9548,4.9341,4.9048,4.8604,4.8383,4.8306,4.8306,4.8306,4.8306,0.0,0.0,0.0,0.0,0.0,5.5895,0.0,0.0,0.0,5.5703,5.5703,5.5703,5.5703,5.5703,5.5703,5.5703,5.5703,5.5703,5.5703,5.5703,0.0,5.5703,5.5703,0.0,5.5703,5.5703,5.5703,5.5703,5.5703,5.5703,5.5703,5.5703,5.5703,5.5703,5.5703,5.5703,5.5703,5.5703,5.5703,5.5703,5.5703,5.5703,5.5703,5.5703,5.5703,5.5703,5.5703,5.5703,5.5703,5.5703,5.5703,5.5703,5.5703,5.5703,5.5703,5.5703,5.5703,5.5703,5.5703,5.5703,5.5703,5.5703,5.5703,5.5703,5.5703,5.5703,5.5703,5.5703,5.5703,5.5703,5.5703,5.5703,5.5703,5.5703,5.5703,5.5682,5.5599,5.5531,5.5446,5.5336,5.5262,5.5069,5.4671,5.4609,5.4352,5.3579,5.3174,5.2709,5.2001,5.1677,5.1484,5.1366,5.1366,5.1363,5.1279,5.1279,5.1206,5.1059,5.1022,5.0949,5.0802,5.0802,5.0472,4.9811,4.9811,4.9481,4.8783,4.8636,4.8453,4.8306,4.8306,4.8306,0.0,0.0,0.0,0.0,5.6934,0.0,5.5857,0.0,5.5703,5.5703,0.0,5.5703,5.5703,0.0,0.0,5.5703,5.5703,5.5703,5.5703,5.5703,5.5703,5.5703,5.5703,0.0,0.0,5.5703,5.5703,5.5703,5.5703,5.5703,5.5703,5.5703,5.5703,5.5703,5.5703,5.5703,5.5703,5.5703,5.5703,5.5703,5.5703,5.5703,5.5703,5.5703,5.5703,5.5703,5.5703,5.5703,5.5703,5.5703,5.5703,5.5703,5.5703,5.5703,5.5703,5.5703,5.5703,5.5703,5.5703,5.5703,5.5703,5.5703,5.5703,5.5703,5.5703,5.5703,5.5703,5.5703,5.5703,5.5703,5.5703,5.5703,5.5703,5.5703,5.5703,5.5599,5.5237,5.4876,5.4516,5.4118,5.372,5.3796,5.4848,5.5015,5.4905,5.4434,5.4301,5.4269,5.4156,5.4091,5.3924,5.3498,5.3461,5.3308,5.2973,5.2931,5.2637,5.1903,5.1867,5.1536,5.0839,5.0802,5.0765,5.0655,5.0655,5.0618,5.0508,4.9774,4.904,4.8306,4.8306,4.8306,0.0,0.0,0.0,0.0,0.0,0.0,5.6626,0.0,5.6319,0.0,0.0,0.0,0.0,0.0,0.0,0.0,5.5703,5.5703,5.5703,5.5703,5.5703,5.5703,0.0,0.0,0.0,0.0,0.0,0.0,5.5703,5.5703,5.5703,5.5703,5.5703,5.5703,5.5703,5.5703,5.5703,5.5703,5.5703,5.5703,5.5703,5.5703,5.5703,5.5703,5.5703,5.5703,5.5703,5.5703,5.5703,5.5703,5.5703,5.5703,5.5703,5.5703,5.5703,5.5703,5.5703,5.5703,5.5703,5.5703,5.5703,5.5703,5.5703,5.5703,5.5703,5.5703,5.5703,5.5703,5.5703,5.5703,5.5703,5.5531,5.5375,5.5375,5.5186,5.4933,5.479,5.4609,5.442,5.4255,5.4086,5.405,5.4284,5.4153,5.3943,5.3758,5.3758,5.3758,5.3758,5.3758,5.3643,5.3484,5.3444,5.34,5.3188,5.3225,5.3078,5.2711,5.2711,5.2527,5.2234,5.2197,5.1977,5.1499,5.1499,5.1279,5.0802,5.0472,5.0105,4.9738,4.8746,4.8306,6.0781,0.0,0.0,0.0,0.0,0.0,0.0,0.0,0.0,0.0,0.0,0.0,0.0,0.0,0.0,0.0,0.0,5.5703,5.5703,5.5703,5.5703,0.0,0.0,0.0,0.0,0.0,0.0,0.0,0.0,5.5703,5.5703,5.5703,5.5703,5.5703,5.5703,5.5703,5.5703,5.5703,5.5703,5.5703,5.5703,5.5703,5.5703,5.5703,5.5703,5.5703,5.5703,5.5703,5.5703,5.5703,5.5703,5.5703,5.5703,5.5703,5.5703,5.5703,5.5703,5.5703,5.5703,5.5703,5.5703,5.5703,5.5703,5.5682,5.5577,5.5554,5.5493,5.5399,5.5375,5.5375,5.5375,5.516,5.4933,5.4933,5.4701,5.4484,5.4484,5.4387,5.4288,5.4288,5.4221,5.405,5.3683,5.3484,5.3318,5.3225,5.3225,5.3225,5.3225,5.3225,5.3225,5.3225,5.3225,5.3225,5.3225,5.3225,5.3225,5.3225,5.3225,5.3225,5.3225,5.3225,5.2931,5.2344,5.2344,5.205,5.1463,5.1242,5.1132,5.1096,4.9664,4.8857,0.0,0.0,0.0,5.9704,0.0,0.0,0.0,0.0,5.8011,0.0,0.0,0.0,0.0,0.0,0.0,0.0,0.0,0.0,0.0,5.5703,5.5703,5.5703,0.0,0.0,0.0,0.0,0.0,0.0,0.0,0.0,5.5703,5.5703,5.5703,5.5703,5.5703,5.5703,5.5703,5.5703,5.5703,5.5703,5.5703,5.5703,5.5703,5.5703,5.5703,5.5703,5.5703,5.5703,5.5703,5.5703,5.5703,5.5703,5.5703,5.5703,5.5703,5.5703,5.5703,5.5703,5.5703,5.5703,5.5703,5.5703,5.5703,5.5621,5.5237,5.5134,5.5053,5.464,5.4516,5.4516,5.4516,5.4516,5.4516,5.4516,5.4484,5.4484,5.4484,5.4153,5.3795,5.3795,5.3524,5.323,5.3188,5.3526,5.3682,5.3272,5.3225,5.3225,5.3225,5.3225,5.3225,5.3225,5.3225,5.3225,5.3225,5.3225,5.3225,5.3225,5.3225,5.3225,5.3225,5.3225,5.3188,5.3188,5.3188,5.3151,5.3115,5.2344,5.194,5.194,5.1096,5.0288,0.0,0.0,6.0742,6.0435,0.0,0.0,0.0,0.0,0.0,0.0,0.0,0.0,0.0,0.0,0.0,0.0,0.0,0.0,0.0,5.5703,5.5703,5.5703,5.5703,5.5703,0.0,0.0,0.0,0.0,0.0,0.0,0.0,5.5703,5.5703,5.5703,5.5703,5.5703,5.5703,5.5703,5.5703,5.5703,5.5703,5.5703,5.5703,5.5703,5.5703,5.5703,5.5703,5.5703,5.5703,5.5703,5.5703,5.5703,5.5703,5.5703,5.5703,5.5703,5.5703,5.5703,5.5703,5.5703,5.5703,5.5703,5.5703,5.5682,5.5554,5.5508,5.5446,5.535,5.5107,5.4876,5.4876,5.4484,5.4048,5.4048,5.3833,5.3641,5.3641,5.3524,5.34,5.34,5.3314,5.3225,5.3225,5.3277,5.3359,5.3188,5.3225,5.3225,5.3225,5.3225,5.3225,5.3225,5.3225,5.3225,5.3225,5.3225,5.3225,5.3225,5.3225,5.3225,5.3225,5.3225,5.3225,5.3225,5.3225,5.3225,5.3225,5.2931,5.2784,5.2784,5.2527,5.1683,6.2512,6.1897,0.0,6.1243,6.1012,0.0,6.0089,0.0,0.0,0.0,0.0,0.0,0.0,0.0,0.0,0.0,0.0,0.0,0.0,5.5703,5.5703,5.5703,5.5703,5.5703,5.5703,0.0,0.0,0.0,0.0,0.0,0.0,0.0,5.5703,5.5703,5.5703,5.5703,5.5703,5.5703,5.5703,5.5703,5.5703,5.5703,5.5703,5.5703,5.5703,5.5703,5.5703,5.5703,5.5703,5.5703,5.5703,5.5703,5.5703,5.5703,5.5703,5.5703,5.5703,5.5703,5.5703,5.5703,5.5703,5.5703,5.5703,5.5682,5.5531,5.5399,5.5262,5.5262,5.496,5.4701,5.4848,5.4355,5.3795,5.3795,5.3484,5.3225,5.3225,5.3225,5.3225,5.3225,5.3225,5.3225,5.3225,5.3225,5.3225,5.3225,5.3225,5.3225,5.3225,5.3225,5.3225,5.3225,5.3225,5.3225,5.3225,5.3225,5.3225,5.3225,5.3225,5.3225,5.3225,5.3225,5.3225,5.3225,5.3225,5.3225,5.3225,5.3225,5.3225,5.3225,5.3225,5.2637]}]]